<?xml version='1.0' encoding='UTF-8'?><gpx version="1.1" creator="JPX - https://github.com/jenetics/jpx" xmlns="http://www.topografix.com/GPX/1/1"><trk><trkseg><trkpt lat="45.776751968499404" lon="11.447619401704593"><ele>265.0</ele><time>2026-05-01T11:18:45.999Z</time></trkpt><trkpt lat="45.77672505286856" lon="11.447509114729055"><ele>265.0</ele><time>2026-05-01T11:18:50Z</time></trkpt><trkpt lat="45.77668275863556" lon="11.447393309494158"><ele>265.0</ele><time>2026-05-01T11:18:52Z</time></trkpt><trkpt lat="45.77666347511702" lon="11.447685452659075"><ele>265.0</ele><time>2026-05-01T11:18:54Z</time></trkpt><trkpt lat="45.77667240074359" lon="11.447872903471419"><ele>265.4</ele><time>2026-05-01T11:18:57Z</time></trkpt><trkpt lat="45.77669011031632" lon="11.447992775352759"><ele>265.8</ele><time>2026-05-01T11:19:00Z</time></trkpt><trkpt lat="45.77663786874815" lon="11.448149096670015"><ele>266.2</ele><time>2026-05-01T11:19:02Z</time></trkpt><trkpt lat="45.7767300714342" lon="11.448213227942846"><ele>266.6</ele><time>2026-05-01T11:19:04Z</time></trkpt><trkpt lat="45.776795530800904" lon="11.448244687103331"><ele>267.0</ele><time>2026-05-01T11:19:05Z</time></trkpt><trkpt lat="45.77686667820518" lon="11.448307391691722"><ele>266.0</ele><time>2026-05-01T11:19:06Z</time></trkpt><trkpt lat="45.77687530153076" lon="11.44845080823742"><ele>265.0</ele><time>2026-05-01T11:19:07Z</time></trkpt><trkpt lat="45.7767641801501" lon="11.447951326084597"><ele>265.0</ele><time>2026-05-01T11:19:08Z</time></trkpt><trkpt lat="45.776806157640074" lon="11.44787488456342"><ele>265.0</ele><time>2026-05-01T11:19:09Z</time></trkpt><trkpt lat="45.77677624461112" lon="11.44777693746723"><ele>265.0</ele><time>2026-05-01T11:20:31.999Z</time></trkpt><trkpt lat="45.7768909903049" lon="11.44788628824467"><ele>265.0</ele><time>2026-05-01T11:21:34.999Z</time></trkpt><trkpt lat="45.776949534026386" lon="11.447950423432495"><ele>265.0</ele><time>2026-05-01T11:21:36.999Z</time></trkpt><trkpt lat="45.777019910705285" lon="11.447997166826314"><ele>265.0</ele><time>2026-05-01T11:21:38.999Z</time></trkpt><trkpt lat="45.77707252586776" lon="11.44793559010138"><ele>265.6</ele><time>2026-05-01T11:21:40.999Z</time></trkpt><trkpt lat="45.77711856568893" lon="11.447866702046637"><ele>266.2</ele><time>2026-05-01T11:21:42.999Z</time></trkpt><trkpt lat="45.777170563148196" lon="11.447765868821806"><ele>266.8</ele><time>2026-05-01T11:21:45.999Z</time></trkpt><trkpt lat="45.777265565172854" lon="11.447803817667076"><ele>267.4</ele><time>2026-05-01T11:21:48.999Z</time></trkpt><trkpt lat="45.77733316653837" lon="11.447901748400428"><ele>268.0</ele><time>2026-05-01T11:21:50.999Z</time></trkpt><trkpt lat="45.77742017670346" lon="11.447996116839935"><ele>268.5</ele><time>2026-05-01T11:21:52.999Z</time></trkpt><trkpt lat="45.77748841878946" lon="11.448116611899177"><ele>269.0</ele><time>2026-05-01T11:21:54.999Z</time></trkpt><trkpt lat="45.777436479644464" lon="11.44825204015014"><ele>269.5</ele><time>2026-05-01T11:21:56.999Z</time></trkpt><trkpt lat="45.77733625648576" lon="11.448386257210045"><ele>270.0</ele><time>2026-05-01T11:21:58.999Z</time></trkpt><trkpt lat="45.77726876126774" lon="11.448525812990558"><ele>270.0</ele><time>2026-05-01T11:22:00.999Z</time></trkpt><trkpt lat="45.77719577094655" lon="11.44865992225996"><ele>270.0</ele><time>2026-05-01T11:22:02.999Z</time></trkpt><trkpt lat="45.77713570724741" lon="11.448804681566882"><ele>270.0</ele><time>2026-05-01T11:22:04.999Z</time></trkpt><trkpt lat="45.777187203727856" lon="11.4489718799528"><ele>270.0</ele><time>2026-05-01T11:22:06.999Z</time></trkpt><trkpt lat="45.77724655479057" lon="11.449031222607069"><ele>270.0</ele><time>2026-05-01T11:22:07.999Z</time></trkpt><trkpt lat="45.777345309953375" lon="11.449141318009293"><ele>270.3333333333333</ele><time>2026-05-01T11:22:09.999Z</time></trkpt><trkpt lat="45.77741077966695" lon="11.449224559331345"><ele>270.6666666666667</ele><time>2026-05-01T11:22:11.999Z</time></trkpt><trkpt lat="45.77740589799804" lon="11.449338540761218"><ele>271.0</ele><time>2026-05-01T11:22:13.999Z</time></trkpt><trkpt lat="45.777364773720265" lon="11.449427453702326"><ele>271.33333333333337</ele><time>2026-05-01T11:22:14.999Z</time></trkpt><trkpt lat="45.77730969975611" lon="11.449523368742867"><ele>271.6666666666667</ele><time>2026-05-01T11:22:15.999Z</time></trkpt><trkpt lat="45.77725261487106" lon="11.449632579342566"><ele>272.0</ele><time>2026-05-01T11:22:16.999Z</time></trkpt><trkpt lat="45.77721596044316" lon="11.449739749349057"><ele>273.33333333333337</ele><time>2026-05-01T11:22:17.999Z</time></trkpt><trkpt lat="45.777178647195704" lon="11.44983881146357"><ele>274.6666666666667</ele><time>2026-05-01T11:22:18.999Z</time></trkpt><trkpt lat="45.77714225319844" lon="11.449919796102593"><ele>276.0</ele><time>2026-05-01T11:22:19.999Z</time></trkpt><trkpt lat="45.777101319076735" lon="11.449992429911928"><ele>277.3333333333333</ele><time>2026-05-01T11:22:20.999Z</time></trkpt><trkpt lat="45.77704969014132" lon="11.450059872285141"><ele>278.66666666666663</ele><time>2026-05-01T11:22:21.999Z</time></trkpt><trkpt lat="45.7769884506172" lon="11.450109370931676"><ele>280.0</ele><time>2026-05-01T11:22:22.999Z</time></trkpt><trkpt lat="45.77688171349375" lon="11.450140444773611"><ele>279.0</ele><time>2026-05-01T11:22:24.999Z</time></trkpt><trkpt lat="45.77680574684241" lon="11.450155733421106"><ele>278.0</ele><time>2026-05-01T11:22:26.999Z</time></trkpt><trkpt lat="45.77673019438204" lon="11.450132473287844"><ele>277.0</ele><time>2026-05-01T11:22:30.999Z</time></trkpt><trkpt lat="45.776582027736474" lon="11.45012229440787"><ele>276.0</ele><time>2026-05-01T11:22:32.999Z</time></trkpt><trkpt lat="45.77647141040145" lon="11.450118063746395"><ele>275.0</ele><time>2026-05-01T11:22:33.999Z</time></trkpt><trkpt lat="45.77637929596521" lon="11.450110010960296"><ele>275.0</ele><time>2026-05-01T11:22:34.999Z</time></trkpt><trkpt lat="45.77630415836386" lon="11.450178538314557"><ele>275.0</ele><time>2026-05-01T11:22:36.999Z</time></trkpt><trkpt lat="45.77624189362928" lon="11.450305198655789"><ele>275.0</ele><time>2026-05-01T11:22:39Z</time></trkpt><trkpt lat="45.776183005612744" lon="11.450391080571604"><ele>275.0</ele><time>2026-05-01T11:22:41Z</time></trkpt><trkpt lat="45.77611050493202" lon="11.450391848167493"><ele>275.0</ele><time>2026-05-01T11:22:43Z</time></trkpt><trkpt lat="45.77598263501742" lon="11.450399937375606"><ele>275.1666666666667</ele><time>2026-05-01T11:22:45Z</time></trkpt><trkpt lat="45.77588439215305" lon="11.450405034128227"><ele>275.33333333333337</ele><time>2026-05-01T11:22:47Z</time></trkpt><trkpt lat="45.7758603072422" lon="11.450544025451167"><ele>275.5</ele><time>2026-05-01T11:22:49Z</time></trkpt><trkpt lat="45.775837428523296" lon="11.45069294677001"><ele>275.6666666666667</ele><time>2026-05-01T11:22:51Z</time></trkpt><trkpt lat="45.77581256291147" lon="11.450776497223703"><ele>275.8333333333333</ele><time>2026-05-01T11:22:52Z</time></trkpt><trkpt lat="45.775789060585154" lon="11.450860999905673"><ele>276.0</ele><time>2026-05-01T11:22:53Z</time></trkpt><trkpt lat="45.77575443596644" lon="11.451026998911454"><ele>276.0</ele><time>2026-05-01T11:22:55Z</time></trkpt><trkpt lat="45.77569706140381" lon="11.451189539394456"><ele>276.0</ele><time>2026-05-01T11:22:57Z</time></trkpt><trkpt lat="45.775652236363996" lon="11.451255832183444"><ele>276.0</ele><time>2026-05-01T11:22:58Z</time></trkpt><trkpt lat="45.77555259501002" lon="11.451332870594197"><ele>276.0</ele><time>2026-05-01T11:23:00Z</time></trkpt><trkpt lat="45.77552741687616" lon="11.451440175734822"><ele>276.0</ele><time>2026-05-01T11:23:04Z</time></trkpt><trkpt lat="45.77561741716014" lon="11.451521864899744"><ele>277.6</ele><time>2026-05-01T11:23:06Z</time></trkpt><trkpt lat="45.775740895924194" lon="11.451613656768384"><ele>279.20000000000005</ele><time>2026-05-01T11:23:08Z</time></trkpt><trkpt lat="45.77580950804781" lon="11.451681378758114"><ele>280.79999999999995</ele><time>2026-05-01T11:23:09Z</time></trkpt><trkpt lat="45.77588848487381" lon="11.451741105003558"><ele>282.4</ele><time>2026-05-01T11:23:10Z</time></trkpt><trkpt lat="45.77598327847251" lon="11.451778066159465"><ele>284.0</ele><time>2026-05-01T11:23:11Z</time></trkpt><trkpt lat="45.77608791392448" lon="11.451803663470878"><ele>286.33333333333337</ele><time>2026-05-01T11:23:12Z</time></trkpt><trkpt lat="45.776179209455215" lon="11.45182222991924"><ele>288.6666666666667</ele><time>2026-05-01T11:23:13Z</time></trkpt><trkpt lat="45.776247702354055" lon="11.45185120159081"><ele>291.0</ele><time>2026-05-01T11:23:14Z</time></trkpt><trkpt lat="45.77631064467286" lon="11.451913101418182"><ele>293.3333333333333</ele><time>2026-05-01T11:23:15Z</time></trkpt><trkpt lat="45.77634990907132" lon="11.452010239274376"><ele>295.66666666666663</ele><time>2026-05-01T11:23:16Z</time></trkpt><trkpt lat="45.77637198998046" lon="11.452125419084297"><ele>298.0</ele><time>2026-05-01T11:23:17Z</time></trkpt><trkpt lat="45.776422928016956" lon="11.452216297402739"><ele>299.8333333333333</ele><time>2026-05-01T11:23:18Z</time></trkpt><trkpt lat="45.77650819251192" lon="11.45227635599764"><ele>301.66666666666663</ele><time>2026-05-01T11:23:19Z</time></trkpt><trkpt lat="45.77657144673102" lon="11.452330923716131"><ele>303.5</ele><time>2026-05-01T11:23:20Z</time></trkpt><trkpt lat="45.77664671245361" lon="11.452393052106403"><ele>305.3333333333333</ele><time>2026-05-01T11:23:21Z</time></trkpt><trkpt lat="45.776698983961964" lon="11.452473747135832"><ele>307.1666666666667</ele><time>2026-05-01T11:23:22Z</time></trkpt><trkpt lat="45.776699374599104" lon="11.45259741763699"><ele>309.0</ele><time>2026-05-01T11:23:23Z</time></trkpt><trkpt lat="45.77669917744079" lon="11.452722099245753"><ele>309.0</ele><time>2026-05-01T11:23:24Z</time></trkpt><trkpt lat="45.776702948988586" lon="11.4528609510437"><ele>309.0</ele><time>2026-05-01T11:23:25Z</time></trkpt><trkpt lat="45.77671366700194" lon="11.452978414186438"><ele>309.0</ele><time>2026-05-01T11:23:26Z</time></trkpt><trkpt lat="45.77670978946702" lon="11.453100174209508"><ele>309.0</ele><time>2026-05-01T11:23:27Z</time></trkpt><trkpt lat="45.77673884729359" lon="11.453190303864744"><ele>309.0</ele><time>2026-05-01T11:23:28Z</time></trkpt><trkpt lat="45.776806966850145" lon="11.453263904278092"><ele>309.0</ele><time>2026-05-01T11:23:29Z</time></trkpt><trkpt lat="45.776895199213705" lon="11.453318528399784"><ele>314.3333333333333</ele><time>2026-05-01T11:23:30Z</time></trkpt><trkpt lat="45.77697275712172" lon="11.453375976611872"><ele>319.6666666666667</ele><time>2026-05-01T11:23:31Z</time></trkpt><trkpt lat="45.7770368954542" lon="11.45342867607798"><ele>325.0</ele><time>2026-05-01T11:23:32Z</time></trkpt><trkpt lat="45.77709151920308" lon="11.453479122269284"><ele>330.33333333333337</ele><time>2026-05-01T11:23:33Z</time></trkpt><trkpt lat="45.7771847685975" lon="11.453389706640403"><ele>335.6666666666667</ele><time>2026-05-01T11:23:36.999Z</time></trkpt><trkpt lat="45.77725374083784" lon="11.453331845578715"><ele>341.0</ele><time>2026-05-01T11:23:38.999Z</time></trkpt><trkpt lat="45.777329830368664" lon="11.45327698784533"><ele>341.0</ele><time>2026-05-01T11:23:40.999Z</time></trkpt><trkpt lat="45.777430442956934" lon="11.453268552030261"><ele>341.0</ele><time>2026-05-01T11:23:42.999Z</time></trkpt><trkpt lat="45.77749470690436" lon="11.453315249369638"><ele>341.0</ele><time>2026-05-01T11:23:44.999Z</time></trkpt><trkpt lat="45.77754992560954" lon="11.453387999734092"><ele>341.0</ele><time>2026-05-01T11:23:47.999Z</time></trkpt><trkpt lat="45.77759074592072" lon="11.453510570860095"><ele>341.0</ele><time>2026-05-01T11:23:49.999Z</time></trkpt><trkpt lat="45.77763424152768" lon="11.453618729753655"><ele>341.0</ele><time>2026-05-01T11:23:51.999Z</time></trkpt><trkpt lat="45.77770307427696" lon="11.453735475860578"><ele>346.6666666666667</ele><time>2026-05-01T11:23:53.999Z</time></trkpt><trkpt lat="45.77773499367856" lon="11.45382170360426"><ele>352.33333333333337</ele><time>2026-05-01T11:23:55.999Z</time></trkpt><trkpt lat="45.777788987626536" lon="11.453872878561718"><ele>358.0</ele><time>2026-05-01T11:23:56.999Z</time></trkpt><trkpt lat="45.77784288206168" lon="11.453923476390303"><ele>363.6666666666667</ele><time>2026-05-01T11:23:57.999Z</time></trkpt><trkpt lat="45.777878623251794" lon="11.454008650570342"><ele>369.3333333333333</ele><time>2026-05-01T11:23:58.999Z</time></trkpt><trkpt lat="45.77796076795022" lon="11.454119868004156"><ele>375.0</ele><time>2026-05-01T11:24:00.999Z</time></trkpt><trkpt lat="45.778023152164785" lon="11.454186434822155"><ele>375.0</ele><time>2026-05-01T11:24:01.999Z</time></trkpt><trkpt lat="45.778084728198245" lon="11.454260389913832"><ele>375.0</ele><time>2026-05-01T11:24:02.999Z</time></trkpt><trkpt lat="45.778148644031404" lon="11.45440746307556"><ele>375.0</ele><time>2026-05-01T11:24:04.999Z</time></trkpt><trkpt lat="45.7781555577403" lon="11.454520827160483"><ele>375.0</ele><time>2026-05-01T11:24:06.999Z</time></trkpt><trkpt lat="45.77818994256749" lon="11.454622544955607"><ele>375.0</ele><time>2026-05-01T11:24:08.999Z</time></trkpt><trkpt lat="45.7782231714887" lon="11.454716440723805"><ele>375.0</ele><time>2026-05-01T11:24:10.999Z</time></trkpt><trkpt lat="45.778280529578794" lon="11.454863437203432"><ele>375.4</ele><time>2026-05-01T11:24:12.999Z</time></trkpt><trkpt lat="45.778298440413266" lon="11.454977168422225"><ele>375.8</ele><time>2026-05-01T11:24:14.999Z</time></trkpt><trkpt lat="45.77831501915726" lon="11.455094699801009"><ele>376.20000000000005</ele><time>2026-05-01T11:24:17.999Z</time></trkpt><trkpt lat="45.77832363500047" lon="11.455201635953335"><ele>376.6</ele><time>2026-05-01T11:24:19.999Z</time></trkpt><trkpt lat="45.778395586448305" lon="11.45537070042825"><ele>377.0</ele><time>2026-05-01T11:27:23Z</time></trkpt><trkpt lat="45.77850599042368" lon="11.455402483961523"><ele>380.6666666666667</ele><time>2026-05-01T11:27:34Z</time></trkpt><trkpt lat="45.77857904684639" lon="11.45540702657496"><ele>384.33333333333337</ele><time>2026-05-01T11:27:35Z</time></trkpt><trkpt lat="45.77867431763475" lon="11.455297806490446"><ele>388.0</ele><time>2026-05-01T11:27:37Z</time></trkpt><trkpt lat="45.77873038424018" lon="11.455201444052852"><ele>391.6666666666667</ele><time>2026-05-01T11:27:38Z</time></trkpt><trkpt lat="45.77877106896241" lon="11.455084548229307"><ele>395.3333333333333</ele><time>2026-05-01T11:27:39Z</time></trkpt><trkpt lat="45.77881412066269" lon="11.455001316179764"><ele>399.0</ele><time>2026-05-01T11:27:40Z</time></trkpt><trkpt lat="45.778848598347004" lon="11.454904048101536"><ele>399.0</ele><time>2026-05-01T11:27:41Z</time></trkpt><trkpt lat="45.77890944635792" lon="11.454863174140419"><ele>399.0</ele><time>2026-05-01T11:27:42Z</time></trkpt><trkpt lat="45.778972368478755" lon="11.454798276489292"><ele>399.0</ele><time>2026-05-01T11:27:44Z</time></trkpt><trkpt lat="45.778982042985696" lon="11.454660143901064"><ele>399.0</ele><time>2026-05-01T11:27:46Z</time></trkpt><trkpt lat="45.77891619243661" lon="11.45454475636137"><ele>399.0</ele><time>2026-05-01T11:27:48Z</time></trkpt><trkpt lat="45.778862605786145" lon="11.454453926566064"><ele>399.0</ele><time>2026-05-01T11:27:50Z</time></trkpt><trkpt lat="45.77880691542629" lon="11.454398879430332"><ele>399.0</ele><time>2026-05-01T11:27:53Z</time></trkpt><trkpt lat="45.778843652250885" lon="11.45449900556578"><ele>399.0</ele><time>2026-05-01T11:31:28Z</time></trkpt><trkpt lat="45.77894238020314" lon="11.454671570658494"><ele>399.0</ele><time>2026-05-01T11:31:30Z</time></trkpt><trkpt lat="45.77899512939507" lon="11.45477144926679"><ele>399.0</ele><time>2026-05-01T11:31:31Z</time></trkpt><trkpt lat="45.77894884501281" lon="11.454839953307882"><ele>399.0</ele><time>2026-05-01T11:31:34Z</time></trkpt><trkpt lat="45.77885768306788" lon="11.454873689057203"><ele>399.0</ele><time>2026-05-01T11:31:36Z</time></trkpt><trkpt lat="45.77881185925903" lon="11.454938049401704"><ele>399.0</ele><time>2026-05-01T11:31:37Z</time></trkpt><trkpt lat="45.778760494451646" lon="11.455020799662341"><ele>399.0</ele><time>2026-05-01T11:31:38Z</time></trkpt><trkpt lat="45.77871951819862" lon="11.455123894040591"><ele>399.0</ele><time>2026-05-01T11:31:39Z</time></trkpt><trkpt lat="45.778686623909934" lon="11.455215466553549"><ele>399.0</ele><time>2026-05-01T11:31:40Z</time></trkpt><trkpt lat="45.77868913234995" lon="11.455312471725406"><ele>399.0</ele><time>2026-05-01T11:31:41Z</time></trkpt><trkpt lat="45.778584548975054" lon="11.455373484949387"><ele>399.6</ele><time>2026-05-01T11:31:43Z</time></trkpt><trkpt lat="45.77847951461177" lon="11.455391781460376"><ele>400.2</ele><time>2026-05-01T11:31:45Z</time></trkpt><trkpt lat="45.77855593163934" lon="11.455506593922928"><ele>400.8</ele><time>2026-05-01T11:31:51Z</time></trkpt><trkpt lat="45.778626698656346" lon="11.45559809803021"><ele>401.40000000000003</ele><time>2026-05-01T11:31:53Z</time></trkpt><trkpt lat="45.77868900543329" lon="11.455734129782433"><ele>402.0</ele><time>2026-05-01T11:31:55Z</time></trkpt><trkpt lat="45.77873206325977" lon="11.455817454448162"><ele>402.0</ele><time>2026-05-01T11:31:57Z</time></trkpt><trkpt lat="45.77880063083589" lon="11.455930781226298"><ele>402.0</ele><time>2026-05-01T11:31:59Z</time></trkpt><trkpt lat="45.77882641248422" lon="11.456086664389304"><ele>402.0</ele><time>2026-05-01T11:32:01Z</time></trkpt><trkpt lat="45.778872767730824" lon="11.45617587536828"><ele>402.0</ele><time>2026-05-01T11:32:03Z</time></trkpt><trkpt lat="45.77897639260155" lon="11.456163456530597"><ele>402.0</ele><time>2026-05-01T11:32:05Z</time></trkpt><trkpt lat="45.77905807393356" lon="11.45618485509593"><ele>404.3333333333333</ele><time>2026-05-01T11:32:07Z</time></trkpt><trkpt lat="45.779095535594166" lon="11.45633444762864"><ele>406.66666666666663</ele><time>2026-05-01T11:32:09Z</time></trkpt><trkpt lat="45.77912276368209" lon="11.456417143030485"><ele>409.0</ele><time>2026-05-01T11:32:10Z</time></trkpt><trkpt lat="45.7792028802487" lon="11.456561567058333"><ele>411.3333333333333</ele><time>2026-05-01T11:32:12Z</time></trkpt><trkpt lat="45.77925636758794" lon="11.456633640799621"><ele>413.66666666666663</ele><time>2026-05-01T11:32:13Z</time></trkpt><trkpt lat="45.77931059138009" lon="11.456690051961353"><ele>416.0</ele><time>2026-05-01T11:32:14Z</time></trkpt><trkpt lat="45.779364892171564" lon="11.456747514552863"><ele>418.8333333333333</ele><time>2026-05-01T11:32:15Z</time></trkpt><trkpt lat="45.77942659469551" lon="11.456790531986316"><ele>421.66666666666663</ele><time>2026-05-01T11:32:16Z</time></trkpt><trkpt lat="45.77953812961999" lon="11.456826237525018"><ele>424.5</ele><time>2026-05-01T11:32:18Z</time></trkpt><trkpt lat="45.779629747181" lon="11.456909108861248"><ele>427.33333333333337</ele><time>2026-05-01T11:32:20Z</time></trkpt><trkpt lat="45.779683230138545" lon="11.456973936334238"><ele>430.1666666666667</ele><time>2026-05-01T11:32:21Z</time></trkpt><trkpt lat="45.77973277297881" lon="11.457042062011153"><ele>433.0</ele><time>2026-05-01T11:32:22Z</time></trkpt><trkpt lat="45.77980103697367" lon="11.457151342071565"><ele>434.59999999999997</ele><time>2026-05-01T11:32:23.999Z</time></trkpt><trkpt lat="45.77988631927568" lon="11.457246450072219"><ele>436.19999999999993</ele><time>2026-05-01T11:32:25.999Z</time></trkpt><trkpt lat="45.779973113458134" lon="11.45734403601288"><ele>437.8</ele><time>2026-05-01T11:32:27.999Z</time></trkpt><trkpt lat="45.78008305759459" lon="11.457391743419084"><ele>439.4</ele><time>2026-05-01T11:32:29.999Z</time></trkpt><trkpt lat="45.78017650772037" lon="11.457425418011887"><ele>441.0</ele><time>2026-05-01T11:32:31.999Z</time></trkpt><trkpt lat="45.78030135680262" lon="11.457438067394984"><ele>445.20000000000005</ele><time>2026-05-01T11:32:33.999Z</time></trkpt><trkpt lat="45.780428596036366" lon="11.45743739269074"><ele>449.40000000000003</ele><time>2026-05-01T11:32:35.999Z</time></trkpt><trkpt lat="45.78054796834997" lon="11.457460780404707"><ele>453.6</ele><time>2026-05-01T11:32:37.999Z</time></trkpt><trkpt lat="45.78067616013192" lon="11.457480078394036"><ele>457.8</ele><time>2026-05-01T11:32:39.999Z</time></trkpt><trkpt lat="45.78074498178938" lon="11.457478502392"><ele>462.0</ele><time>2026-05-01T11:32:40.999Z</time></trkpt><trkpt lat="45.78085712145052" lon="11.457508840564884"><ele>462.0</ele><time>2026-05-01T11:32:42.999Z</time></trkpt><trkpt lat="45.78092984510642" lon="11.457515675948239"><ele>462.0</ele><time>2026-05-01T11:32:43.999Z</time></trkpt><trkpt lat="45.780993412470856" lon="11.457511236659787"><ele>462.0</ele><time>2026-05-01T11:32:44.999Z</time></trkpt><trkpt lat="45.78110048038" lon="11.457527547421023"><ele>462.0</ele><time>2026-05-01T11:32:46.999Z</time></trkpt><trkpt lat="45.78118723486806" lon="11.45752341981696"><ele>462.0</ele><time>2026-05-01T11:32:48.999Z</time></trkpt><trkpt lat="45.78125437189648" lon="11.457552627737865"><ele>462.0</ele><time>2026-05-01T11:32:53.999Z</time></trkpt><trkpt lat="45.781331194711555" lon="11.457551874381977"><ele>465.8333333333333</ele><time>2026-05-01T11:32:59.999Z</time></trkpt><trkpt lat="45.78140337514" lon="11.457577959573744"><ele>469.66666666666663</ele><time>2026-05-01T11:33:10Z</time></trkpt><trkpt lat="45.78147709481929" lon="11.457582693009307"><ele>473.5</ele><time>2026-05-01T11:33:16Z</time></trkpt><trkpt lat="45.78153983484474" lon="11.457563177983994"><ele>477.3333333333333</ele><time>2026-05-01T11:33:20Z</time></trkpt><trkpt lat="45.781603935480945" lon="11.457504140340468"><ele>481.16666666666663</ele><time>2026-05-01T11:33:56Z</time></trkpt><trkpt lat="45.7816630711496" lon="11.457451923714146"><ele>485.0</ele><time>2026-05-01T11:33:59Z</time></trkpt><trkpt lat="45.78179042055827" lon="11.457392206399579"><ele>489.1428571428572</ele><time>2026-05-01T11:34:06Z</time></trkpt><trkpt lat="45.78186149995557" lon="11.45736144498329"><ele>493.28571428571433</ele><time>2026-05-01T11:34:11Z</time></trkpt><trkpt lat="45.7819306620719" lon="11.457371000687834"><ele>497.42857142857144</ele><time>2026-05-01T11:34:16Z</time></trkpt><trkpt lat="45.781995854934124" lon="11.457374173516783"><ele>501.5714285714286</ele><time>2026-05-01T11:34:19Z</time></trkpt><trkpt lat="45.782069705587226" lon="11.457328471063345"><ele>505.7142857142858</ele><time>2026-05-01T11:34:22Z</time></trkpt><trkpt lat="45.78215360989615" lon="11.457298308415952"><ele>509.85714285714283</ele><time>2026-05-01T11:34:25Z</time></trkpt><trkpt lat="45.782218482251764" lon="11.45728863433584"><ele>514.0</ele><time>2026-05-01T11:34:28Z</time></trkpt><trkpt lat="45.782290260074774" lon="11.457284673255668"><ele>514.0</ele><time>2026-05-01T11:34:33Z</time></trkpt><trkpt lat="45.78236179148712" lon="11.457309082063354"><ele>514.0</ele><time>2026-05-01T11:34:36Z</time></trkpt><trkpt lat="45.78244301276503" lon="11.457319955490812"><ele>514.0</ele><time>2026-05-01T11:34:38.999Z</time></trkpt><trkpt lat="45.78250487224849" lon="11.45734239124854"><ele>514.0</ele><time>2026-05-01T11:34:40.999Z</time></trkpt><trkpt lat="45.782577330430236" lon="11.457365807706214"><ele>514.0</ele><time>2026-05-01T11:34:43.999Z</time></trkpt><trkpt lat="45.782649110779445" lon="11.457404025174883"><ele>514.0</ele><time>2026-05-01T11:34:46.999Z</time></trkpt><trkpt lat="45.782716078313825" lon="11.45738259576915"><ele>514.0</ele><time>2026-05-01T11:34:49.999Z</time></trkpt><trkpt lat="45.78278997136143" lon="11.457338312236988"><ele>519.1666666666667</ele><time>2026-05-01T11:34:53.999Z</time></trkpt><trkpt lat="45.782859588304966" lon="11.457276383526272"><ele>524.3333333333334</ele><time>2026-05-01T11:35:05.999Z</time></trkpt><trkpt lat="45.782929778854296" lon="11.457262085704496"><ele>529.5</ele><time>2026-05-01T11:35:09.999Z</time></trkpt><trkpt lat="45.782996526643636" lon="11.457275019614425"><ele>534.6666666666666</ele><time>2026-05-01T11:35:14Z</time></trkpt><trkpt lat="45.78309295638058" lon="11.45725184868284"><ele>539.8333333333333</ele><time>2026-05-01T11:37:35Z</time></trkpt><trkpt lat="45.78317487049342" lon="11.457269026887147"><ele>545.0</ele><time>2026-05-01T11:37:43Z</time></trkpt><trkpt lat="45.78330345031725" lon="11.457295635791867"><ele>545.0</ele><time>2026-05-01T11:37:51Z</time></trkpt><trkpt lat="45.78339128364852" lon="11.45734285650274"><ele>545.0</ele><time>2026-05-01T11:37:55Z</time></trkpt><trkpt lat="45.78343942569913" lon="11.457403883637825"><ele>545.0</ele><time>2026-05-01T11:37:57Z</time></trkpt><trkpt lat="45.783505015573105" lon="11.457495136196412"><ele>545.0</ele><time>2026-05-01T11:37:59Z</time></trkpt><trkpt lat="45.78357746743169" lon="11.457564845431591"><ele>545.0</ele><time>2026-05-01T11:38:01Z</time></trkpt><trkpt lat="45.78364140487005" lon="11.45763440388044"><ele>545.0</ele><time>2026-05-01T11:38:05Z</time></trkpt><trkpt lat="45.7837060148067" lon="11.457671231614633"><ele>549.1428571428571</ele><time>2026-05-01T11:38:08Z</time></trkpt><trkpt lat="45.78378497846643" lon="11.457689253619948"><ele>553.2857142857143</ele><time>2026-05-01T11:38:14Z</time></trkpt><trkpt lat="45.783844569965844" lon="11.457656859971703"><ele>557.4285714285714</ele><time>2026-05-01T11:38:16Z</time></trkpt><trkpt lat="45.78390430839992" lon="11.457691606696091"><ele>561.5714285714286</ele><time>2026-05-01T11:38:20Z</time></trkpt><trkpt lat="45.78397896305436" lon="11.457715784574212"><ele>565.7142857142858</ele><time>2026-05-01T11:38:23Z</time></trkpt><trkpt lat="45.784047636448776" lon="11.457735894263365"><ele>569.8571428571429</ele><time>2026-05-01T11:38:29Z</time></trkpt><trkpt lat="45.7841126699468" lon="11.45773860526112"><ele>574.0</ele><time>2026-05-01T11:38:32Z</time></trkpt><trkpt lat="45.78418082413448" lon="11.457778361411663"><ele>574.0</ele><time>2026-05-01T11:38:36Z</time></trkpt><trkpt lat="45.7842437669834" lon="11.457780104445504"><ele>574.0</ele><time>2026-05-01T11:38:42Z</time></trkpt><trkpt lat="45.784318961698624" lon="11.457753419352015"><ele>574.0</ele><time>2026-05-01T11:38:47Z</time></trkpt><trkpt lat="45.78438387138926" lon="11.457783647783886"><ele>574.0</ele><time>2026-05-01T11:38:50Z</time></trkpt><trkpt lat="45.784455605904164" lon="11.457775306902487"><ele>574.0</ele><time>2026-05-01T11:38:53.999Z</time></trkpt><trkpt lat="45.784518941045526" lon="11.457816269295513"><ele>574.0</ele><time>2026-05-01T11:38:57.999Z</time></trkpt><trkpt lat="45.784580102191285" lon="11.457841605159338"><ele>574.0</ele><time>2026-05-01T11:39:00.999Z</time></trkpt><trkpt lat="45.78463075800438" lon="11.457933534652112"><ele>578.0</ele><time>2026-05-01T11:39:05.999Z</time></trkpt><trkpt lat="45.78469437399843" lon="11.458016748254622"><ele>582.0</ele><time>2026-05-01T11:39:08.999Z</time></trkpt><trkpt lat="45.784768443015025" lon="11.458037463775188"><ele>586.0</ele><time>2026-05-01T11:39:13.999Z</time></trkpt><trkpt lat="45.78482899919945" lon="11.458073106931163"><ele>590.0</ele><time>2026-05-01T11:39:17.999Z</time></trkpt><trkpt lat="45.784912120250304" lon="11.458124498534296"><ele>594.0</ele><time>2026-05-01T11:39:20.999Z</time></trkpt><trkpt lat="45.78499319416701" lon="11.458130488809923"><ele>598.0</ele><time>2026-05-01T11:39:26Z</time></trkpt><trkpt lat="45.78506090650546" lon="11.458105714482283"><ele>598.0</ele><time>2026-05-01T11:39:30Z</time></trkpt><trkpt lat="45.78512837732415" lon="11.458106694793626"><ele>598.0</ele><time>2026-05-01T11:39:32Z</time></trkpt><trkpt lat="45.78519630995583" lon="11.458085192932389"><ele>598.0</ele><time>2026-05-01T11:39:35Z</time></trkpt><trkpt lat="45.78530051608332" lon="11.45806196159555"><ele>598.0</ele><time>2026-05-01T11:39:37Z</time></trkpt><trkpt lat="45.785380904021935" lon="11.458035657293387"><ele>598.0</ele><time>2026-05-01T11:39:41Z</time></trkpt><trkpt lat="45.78545094591731" lon="11.458065363021014"><ele>598.0</ele><time>2026-05-01T11:39:43Z</time></trkpt><trkpt lat="45.78553388727557" lon="11.458063507653454"><ele>601.1428571428571</ele><time>2026-05-01T11:39:45Z</time></trkpt><trkpt lat="45.78559944504955" lon="11.458053174635216"><ele>604.2857142857143</ele><time>2026-05-01T11:39:49Z</time></trkpt><trkpt lat="45.78565545594637" lon="11.45812851579404"><ele>607.4285714285714</ele><time>2026-05-01T11:39:54Z</time></trkpt><trkpt lat="45.78566588434444" lon="11.458218621851266"><ele>610.5714285714286</ele><time>2026-05-01T11:39:57Z</time></trkpt><trkpt lat="45.785669815778846" lon="11.458337784381747"><ele>613.7142857142857</ele><time>2026-05-01T11:39:59Z</time></trkpt><trkpt lat="45.7856609020351" lon="11.45844909995511"><ele>616.8571428571429</ele><time>2026-05-01T11:40:02Z</time></trkpt><trkpt lat="45.78561102146999" lon="11.458515282107285"><ele>620.0</ele><time>2026-05-01T11:40:04Z</time></trkpt><trkpt lat="45.78556590018533" lon="11.458590615866694"><ele>620.0</ele><time>2026-05-01T11:40:06Z</time></trkpt><trkpt lat="45.78549657251171" lon="11.458625433171637"><ele>620.0</ele><time>2026-05-01T11:40:08Z</time></trkpt><trkpt lat="45.78543247767408" lon="11.458640899853581"><ele>620.0</ele><time>2026-05-01T11:40:10Z</time></trkpt><trkpt lat="45.78534714381649" lon="11.458660149928596"><ele>620.0</ele><time>2026-05-01T11:40:13Z</time></trkpt><trkpt lat="45.785291882926465" lon="11.458734738225726"><ele>620.0</ele><time>2026-05-01T11:40:15Z</time></trkpt><trkpt lat="45.78529961863758" lon="11.458867139803749"><ele>620.0</ele><time>2026-05-01T11:40:18Z</time></trkpt><trkpt lat="45.78533832692157" lon="11.458946041277077"><ele>621.6666666666666</ele><time>2026-05-01T11:40:21Z</time></trkpt><trkpt lat="45.78540765603462" lon="11.45900822165694"><ele>623.3333333333333</ele><time>2026-05-01T11:40:30Z</time></trkpt><trkpt lat="45.785470877207565" lon="11.459064581088226"><ele>625.0</ele><time>2026-05-01T11:40:32Z</time></trkpt><trkpt lat="45.785567310957006" lon="11.459089927087303"><ele>626.6666666666666</ele><time>2026-05-01T11:40:34Z</time></trkpt><trkpt lat="45.78563070249572" lon="11.459102309421349"><ele>628.3333333333334</ele><time>2026-05-01T11:40:35Z</time></trkpt><trkpt lat="45.78575087151505" lon="11.459096868759046"><ele>630.0</ele><time>2026-05-01T11:40:37Z</time></trkpt><trkpt lat="45.78586703600784" lon="11.459068550329784"><ele>630.0</ele><time>2026-05-01T11:40:39Z</time></trkpt><trkpt lat="45.78595720925436" lon="11.459037552405318"><ele>630.0</ele><time>2026-05-01T11:40:41Z</time></trkpt><trkpt lat="45.78603093913213" lon="11.459060959647696"><ele>630.0</ele><time>2026-05-01T11:40:43Z</time></trkpt><trkpt lat="45.786117920044056" lon="11.459124118487567"><ele>630.0</ele><time>2026-05-01T11:40:45Z</time></trkpt><trkpt lat="45.786199707425226" lon="11.459179947600914"><ele>630.0</ele><time>2026-05-01T11:40:47Z</time></trkpt><trkpt lat="45.786279616288525" lon="11.459263226850915"><ele>634.0</ele><time>2026-05-01T11:40:49Z</time></trkpt><trkpt lat="45.786324750240084" lon="11.459374004048765"><ele>638.0</ele><time>2026-05-01T11:40:52Z</time></trkpt><trkpt lat="45.786285940172675" lon="11.459492299639582"><ele>642.0</ele><time>2026-05-01T11:41:22.999Z</time></trkpt><trkpt lat="45.78622036453847" lon="11.45959834503675"><ele>646.0</ele><time>2026-05-01T11:41:24.999Z</time></trkpt><trkpt lat="45.786177578038" lon="11.459676634427005"><ele>650.0</ele><time>2026-05-01T11:41:25.999Z</time></trkpt><trkpt lat="45.7861486579733" lon="11.45976061681309"><ele>654.0</ele><time>2026-05-01T11:41:26.999Z</time></trkpt><trkpt lat="45.786120062064455" lon="11.459847130745828"><ele>657.8000000000001</ele><time>2026-05-01T11:41:27.999Z</time></trkpt><trkpt lat="45.786056107487546" lon="11.459977519923276"><ele>661.6</ele><time>2026-05-01T11:41:29.999Z</time></trkpt><trkpt lat="45.78605393922252" lon="11.460109798127979"><ele>665.4</ele><time>2026-05-01T11:41:32Z</time></trkpt><trkpt lat="45.78606463730876" lon="11.460247997147286"><ele>669.2</ele><time>2026-05-01T11:41:34Z</time></trkpt><trkpt lat="45.78611510976456" lon="11.460399613435074"><ele>673.0</ele><time>2026-05-01T11:41:36Z</time></trkpt><trkpt lat="45.786207562512736" lon="11.460517058425825"><ele>675.3333333333334</ele><time>2026-05-01T11:41:38Z</time></trkpt><trkpt lat="45.78625337131731" lon="11.460583847333774"><ele>677.6666666666667</ele><time>2026-05-01T11:41:39Z</time></trkpt><trkpt lat="45.78632652091158" lon="11.460706815290253"><ele>680.0</ele><time>2026-05-01T11:41:41Z</time></trkpt><trkpt lat="45.78633944093406" lon="11.460831051141534"><ele>682.3333333333334</ele><time>2026-05-01T11:41:43Z</time></trkpt><trkpt lat="45.78630059933414" lon="11.46092359162082"><ele>684.6666666666666</ele><time>2026-05-01T11:41:45Z</time></trkpt><trkpt lat="45.78622983402616" lon="11.460984117480319"><ele>687.0</ele><time>2026-05-01T11:41:47Z</time></trkpt><trkpt lat="45.78621740878953" lon="11.46108317337075"><ele>687.0</ele><time>2026-05-01T11:41:52Z</time></trkpt><trkpt lat="45.786169775277585" lon="11.461152769103533"><ele>687.0</ele><time>2026-05-01T11:41:55Z</time></trkpt><trkpt lat="45.78610399067216" lon="11.461271215852555"><ele>687.0</ele><time>2026-05-01T11:41:57Z</time></trkpt><trkpt lat="45.786083243038" lon="11.461399456101011"><ele>687.0</ele><time>2026-05-01T11:41:59Z</time></trkpt><trkpt lat="45.78609517019787" lon="11.461530353233563"><ele>687.0</ele><time>2026-05-01T11:42:01Z</time></trkpt><trkpt lat="45.786064315126325" lon="11.461615054390698"><ele>687.0</ele><time>2026-05-01T11:42:03Z</time></trkpt><trkpt lat="45.78608977663495" lon="11.46174476826985"><ele>690.0</ele><time>2026-05-01T11:42:05Z</time></trkpt><trkpt lat="45.78613142962924" lon="11.461875441977018"><ele>693.0</ele><time>2026-05-01T11:42:07Z</time></trkpt><trkpt lat="45.78612027185836" lon="11.461984086278603"><ele>696.0</ele><time>2026-05-01T11:42:09Z</time></trkpt><trkpt lat="45.78610672164371" lon="11.462098683446552"><ele>699.0</ele><time>2026-05-01T11:42:11Z</time></trkpt><trkpt lat="45.78606840529789" lon="11.462180582087841"><ele>702.0</ele><time>2026-05-01T11:42:13Z</time></trkpt><trkpt lat="45.78602254335939" lon="11.4622592180602"><ele>705.0</ele><time>2026-05-01T11:42:15Z</time></trkpt><trkpt lat="45.78604088268875" lon="11.462410486932551"><ele>704.6666666666666</ele><time>2026-05-01T11:42:17Z</time></trkpt><trkpt lat="45.7860506696886" lon="11.462546327282027"><ele>704.3333333333334</ele><time>2026-05-01T11:42:19Z</time></trkpt><trkpt lat="45.78602507235487" lon="11.462678319264267"><ele>704.0</ele><time>2026-05-01T11:42:21Z</time></trkpt><trkpt lat="45.78596157320614" lon="11.462777763273104"><ele>703.6666666666667</ele><time>2026-05-01T11:42:23Z</time></trkpt><trkpt lat="45.785888443037635" lon="11.462841229112813"><ele>703.3333333333334</ele><time>2026-05-01T11:42:25Z</time></trkpt><trkpt lat="45.78585284131052" lon="11.462922199608034"><ele>703.0</ele><time>2026-05-01T11:42:27Z</time></trkpt><trkpt lat="45.78578677648886" lon="11.463006941547244"><ele>709.8</ele><time>2026-05-01T11:42:29Z</time></trkpt><trkpt lat="45.78570652529951" lon="11.463128688832448"><ele>716.5999999999999</ele><time>2026-05-01T11:42:32Z</time></trkpt><trkpt lat="45.78566391901603" lon="11.463244733022327"><ele>723.4000000000001</ele><time>2026-05-01T11:42:34Z</time></trkpt><trkpt lat="45.78566597077064" lon="11.463369759858285"><ele>730.2</ele><time>2026-05-01T11:42:36Z</time></trkpt><trkpt lat="45.785627381967274" lon="11.463509105555756"><ele>737.0</ele><time>2026-05-01T11:42:38Z</time></trkpt><trkpt lat="45.78562530419649" lon="11.463631048782654"><ele>737.0</ele><time>2026-05-01T11:42:41Z</time></trkpt><trkpt lat="45.785670658986746" lon="11.463750000565758"><ele>737.0</ele><time>2026-05-01T11:42:45Z</time></trkpt><trkpt lat="45.78564854486407" lon="11.463843874221423"><ele>737.0</ele><time>2026-05-01T11:42:48Z</time></trkpt><trkpt lat="45.78564954854382" lon="11.463960449568836"><ele>737.0</ele><time>2026-05-01T11:42:50Z</time></trkpt><trkpt lat="45.785663033195455" lon="11.464081658660392"><ele>737.0</ele><time>2026-05-01T11:42:52Z</time></trkpt><trkpt lat="45.78567966187373" lon="11.464246184850003"><ele>737.0</ele><time>2026-05-01T11:42:54Z</time></trkpt><trkpt lat="45.78568726269974" lon="11.464349536984587"><ele>741.0000000000001</ele><time>2026-05-01T11:42:55Z</time></trkpt><trkpt lat="45.78572608959079" lon="11.464469170106998"><ele>745.0</ele><time>2026-05-01T11:42:57Z</time></trkpt><trkpt lat="45.78576583350052" lon="11.464547461216025"><ele>749.0</ele><time>2026-05-01T11:42:59Z</time></trkpt><trkpt lat="45.785726309145055" lon="11.464627830716841"><ele>753.0</ele><time>2026-05-01T11:43:29.999Z</time></trkpt><trkpt lat="45.78573131070437" lon="11.464726147278029"><ele>757.0</ele><time>2026-05-01T11:45:15Z</time></trkpt><trkpt lat="45.78574851094257" lon="11.464820919613489"><ele>761.0000000000001</ele><time>2026-05-01T11:45:20.999Z</time></trkpt><trkpt lat="45.7857419769883" lon="11.464721504264753"><ele>765.0</ele><time>2026-05-01T11:45:35.999Z</time></trkpt><trkpt lat="45.785751734868875" lon="11.464858570097533"><ele>771.5</ele><time>2026-05-01T11:46:52.999Z</time></trkpt><trkpt lat="45.78569908113826" lon="11.464926564970561"><ele>778.0</ele><time>2026-05-01T11:47:12.999Z</time></trkpt><trkpt lat="45.78563812602664" lon="11.46500922398059"><ele>784.5</ele><time>2026-05-01T11:47:15.999Z</time></trkpt><trkpt lat="45.78557714897847" lon="11.465053550514694"><ele>791.0</ele><time>2026-05-01T11:47:21.999Z</time></trkpt><trkpt lat="45.78553241700383" lon="11.46512002392863"><ele>797.5</ele><time>2026-05-01T11:47:25.999Z</time></trkpt><trkpt lat="45.785459361235" lon="11.465143513108998"><ele>804.0</ele><time>2026-05-01T11:48:59.999Z</time></trkpt><trkpt lat="45.78539497955976" lon="11.46522817209505"><ele>804.0</ele><time>2026-05-01T11:51:35Z</time></trkpt><trkpt lat="45.78530945789222" lon="11.465250802708708"><ele>804.0</ele><time>2026-05-01T11:52:41Z</time></trkpt><trkpt lat="45.78524558254505" lon="11.465290375926378"><ele>804.0</ele><time>2026-05-01T12:07:15Z</time></trkpt><trkpt lat="45.78519320882542" lon="11.465366052174819"><ele>804.0</ele><time>2026-05-01T12:07:21Z</time></trkpt><trkpt lat="45.78513623532649" lon="11.465445700940695"><ele>804.0</ele><time>2026-05-01T12:07:26Z</time></trkpt><trkpt lat="45.785083128099735" lon="11.46553916868342"><ele>804.0</ele><time>2026-05-01T12:07:30Z</time></trkpt><trkpt lat="45.785015907449" lon="11.465557206458865"><ele>805.0</ele><time>2026-05-01T12:07:35Z</time></trkpt><trkpt lat="45.78494695186051" lon="11.46558146945504"><ele>806.0</ele><time>2026-05-01T12:07:41Z</time></trkpt><trkpt lat="45.7848878763147" lon="11.465620626403775"><ele>807.0</ele><time>2026-05-01T12:07:47Z</time></trkpt><trkpt lat="45.78482685081313" lon="11.465699369438639"><ele>808.0</ele><time>2026-05-01T12:07:52Z</time></trkpt><trkpt lat="45.78476506118068" lon="11.465737788745301"><ele>809.0</ele><time>2026-05-01T12:07:55Z</time></trkpt><trkpt lat="45.78471216939043" lon="11.465801995127668"><ele>810.0</ele><time>2026-05-01T12:07:58Z</time></trkpt><trkpt lat="45.78466782840256" lon="11.465903901679736"><ele>811.0</ele><time>2026-05-01T12:08:01Z</time></trkpt><trkpt lat="45.78466172894757" lon="11.46600083720194"><ele>811.0</ele><time>2026-05-01T12:08:21Z</time></trkpt><trkpt lat="45.784657024451505" lon="11.466090925370326"><ele>811.0</ele><time>2026-05-01T12:08:43Z</time></trkpt><trkpt lat="45.78469604652947" lon="11.46618635498161"><ele>811.0</ele><time>2026-05-01T12:08:48Z</time></trkpt><trkpt lat="45.784717483498056" lon="11.466275012390371"><ele>811.0</ele><time>2026-05-01T12:08:50Z</time></trkpt><trkpt lat="45.7846851245545" lon="11.466367199470156"><ele>811.0</ele><time>2026-05-01T12:08:56Z</time></trkpt><trkpt lat="45.784693633513655" lon="11.46646998658694"><ele>811.0</ele><time>2026-05-01T12:09:00Z</time></trkpt><trkpt lat="45.7847027151824" lon="11.46656495745577"><ele>811.0</ele><time>2026-05-01T12:09:03Z</time></trkpt><trkpt lat="45.78469387942042" lon="11.466656568460527"><ele>814.4999999999999</ele><time>2026-05-01T12:09:06Z</time></trkpt><trkpt lat="45.78463969272147" lon="11.466741589064805"><ele>818.0</ele><time>2026-05-01T12:09:10Z</time></trkpt><trkpt lat="45.78461328918696" lon="11.466828525024303"><ele>821.5</ele><time>2026-05-01T12:09:13Z</time></trkpt><trkpt lat="45.78457873948556" lon="11.466915100804004"><ele>825.0</ele><time>2026-05-01T12:09:16Z</time></trkpt><trkpt lat="45.78459349159021" lon="11.467012618273255"><ele>828.4999999999999</ele><time>2026-05-01T12:09:18Z</time></trkpt><trkpt lat="45.78460881160174" lon="11.46710447411029"><ele>832.0</ele><time>2026-05-01T12:09:21Z</time></trkpt><trkpt lat="45.784594296739996" lon="11.46726208133372"><ele>833.0</ele><time>2026-05-01T12:09:22Z</time></trkpt><trkpt lat="45.78459533223735" lon="11.467421008238535"><ele>834.0</ele><time>2026-05-01T12:09:25Z</time></trkpt><trkpt lat="45.78458328739272" lon="11.467519248495268"><ele>835.0</ele><time>2026-05-01T12:09:27Z</time></trkpt><trkpt lat="45.78456882169468" lon="11.467655040933238"><ele>836.0</ele><time>2026-05-01T12:09:29Z</time></trkpt><trkpt lat="45.78459418161785" lon="11.467738167474707"><ele>837.0</ele><time>2026-05-01T12:09:30Z</time></trkpt><trkpt lat="45.78468319738176" lon="11.467857587607673"><ele>837.0</ele><time>2026-05-01T12:09:32Z</time></trkpt><trkpt lat="45.784732750927475" lon="11.467928363739327"><ele>837.0</ele><time>2026-05-01T12:09:33Z</time></trkpt><trkpt lat="45.7847734655019" lon="11.468000308613338"><ele>837.0</ele><time>2026-05-01T12:09:34Z</time></trkpt><trkpt lat="45.784839358453475" lon="11.468144526182497"><ele>837.0</ele><time>2026-05-01T12:09:36Z</time></trkpt><trkpt lat="45.78488168245838" lon="11.468240259970733"><ele>837.0</ele><time>2026-05-01T12:09:38Z</time></trkpt><trkpt lat="45.78492078535362" lon="11.468341955356395"><ele>837.0</ele><time>2026-05-01T12:09:40Z</time></trkpt><trkpt lat="45.78495368346576" lon="11.468426168001166"><ele>835.3333333333334</ele><time>2026-05-01T12:09:43Z</time></trkpt><trkpt lat="45.78498300477192" lon="11.468511370231973"><ele>833.6666666666667</ele><time>2026-05-01T12:09:45Z</time></trkpt><trkpt lat="45.785009383119544" lon="11.468619025219223"><ele>832.0</ele><time>2026-05-01T12:09:51Z</time></trkpt><trkpt lat="45.78502389644645" lon="11.468744680314478"><ele>830.3333333333334</ele><time>2026-05-01T12:09:53Z</time></trkpt><trkpt lat="45.78505223493095" lon="11.46888499564856"><ele>828.6666666666667</ele><time>2026-05-01T12:09:55Z</time></trkpt><trkpt lat="45.785110861792326" lon="11.468946931377827"><ele>827.0</ele><time>2026-05-01T12:09:57Z</time></trkpt><trkpt lat="45.785171571325066" lon="11.468973773779556"><ele>831.8571428571429</ele><time>2026-05-01T12:09:59Z</time></trkpt><trkpt lat="45.785229755600795" lon="11.469016340767245"><ele>836.7142857142857</ele><time>2026-05-01T12:10:02Z</time></trkpt><trkpt lat="45.78527279624965" lon="11.468939176938575"><ele>841.5714285714286</ele><time>2026-05-01T12:10:22Z</time></trkpt><trkpt lat="45.78533552818366" lon="11.468967208904013"><ele>846.4285714285714</ele><time>2026-05-01T12:10:31Z</time></trkpt><trkpt lat="45.78541577890472" lon="11.468986767167623"><ele>851.2857142857142</ele><time>2026-05-01T12:10:34Z</time></trkpt><trkpt lat="45.785399322804174" lon="11.468894366267213"><ele>856.1428571428571</ele><time>2026-05-01T12:10:42Z</time></trkpt><trkpt lat="45.785465496325" lon="11.468880652854374"><ele>861.0</ele><time>2026-05-01T12:10:50Z</time></trkpt><trkpt lat="45.78542818607208" lon="11.468802584215346"><ele>865.1428571428571</ele><time>2026-05-01T12:10:56Z</time></trkpt><trkpt lat="45.78551019614485" lon="11.468772757079005"><ele>869.2857142857142</ele><time>2026-05-01T12:11:03Z</time></trkpt><trkpt lat="45.785475609726284" lon="11.468694568592644"><ele>873.4285714285714</ele><time>2026-05-01T12:11:10Z</time></trkpt><trkpt lat="45.7855522021763" lon="11.468694135170331"><ele>877.5714285714286</ele><time>2026-05-01T12:11:17Z</time></trkpt><trkpt lat="45.785617796055845" lon="11.468696834045765"><ele>881.7142857142857</ele><time>2026-05-01T12:11:20Z</time></trkpt><trkpt lat="45.78557011741625" lon="11.468602167491149"><ele>885.8571428571429</ele><time>2026-05-01T12:11:26Z</time></trkpt><trkpt lat="45.785643434804264" lon="11.46857034042582"><ele>890.0</ele><time>2026-05-01T12:11:32Z</time></trkpt><trkpt lat="45.78572726035823" lon="11.468591314157132"><ele>890.0</ele><time>2026-05-01T12:11:35Z</time></trkpt><trkpt lat="45.785691107497115" lon="11.468514760136381"><ele>890.0</ele><time>2026-05-01T12:11:48Z</time></trkpt><trkpt lat="45.78575849856201" lon="11.468506891550865"><ele>890.0</ele><time>2026-05-01T12:11:51Z</time></trkpt><trkpt lat="45.78582782729209" lon="11.468489357348707"><ele>890.0</ele><time>2026-05-01T12:11:55Z</time></trkpt><trkpt lat="45.78591652547133" lon="11.468512549520554"><ele>890.0</ele><time>2026-05-01T12:11:59Z</time></trkpt><trkpt lat="45.785978124848434" lon="11.468544988528972"><ele>890.0</ele><time>2026-05-01T12:12:02Z</time></trkpt><trkpt lat="45.786044797232705" lon="11.468632242599792"><ele>890.0</ele><time>2026-05-01T12:12:05Z</time></trkpt><trkpt lat="45.78611871199785" lon="11.46872876751277"><ele>898.3333333333334</ele><time>2026-05-01T12:12:08Z</time></trkpt><trkpt lat="45.78618132781041" lon="11.468688824455848"><ele>906.6666666666667</ele><time>2026-05-01T12:12:14Z</time></trkpt><trkpt lat="45.78618731952612" lon="11.468577316786474"><ele>915.0</ele><time>2026-05-01T12:12:23Z</time></trkpt><trkpt lat="45.78622778657058" lon="11.468691353134826"><ele>923.3333333333333</ele><time>2026-05-01T12:12:28Z</time></trkpt><trkpt lat="45.78625261010164" lon="11.468604835335249"><ele>931.6666666666666</ele><time>2026-05-01T12:12:32Z</time></trkpt><trkpt lat="45.78633124658787" lon="11.468613359844396"><ele>940.0</ele><time>2026-05-01T12:12:42Z</time></trkpt><trkpt lat="45.78631593518283" lon="11.468496920035179"><ele>940.0</ele><time>2026-05-01T12:12:46Z</time></trkpt><trkpt lat="45.78637307814773" lon="11.468566874370445"><ele>939.9999999999999</ele><time>2026-05-01T12:12:55Z</time></trkpt><trkpt lat="45.78643271306864" lon="11.46861126593938"><ele>940.0</ele><time>2026-05-01T12:12:57Z</time></trkpt><trkpt lat="45.78649233709515" lon="11.46864117121833"><ele>940.0</ele><time>2026-05-01T12:12:59Z</time></trkpt><trkpt lat="45.786535051115884" lon="11.468709811147844"><ele>939.9999999999999</ele><time>2026-05-01T12:13:02Z</time></trkpt><trkpt lat="45.786537250729126" lon="11.468606189845431"><ele>940.0</ele><time>2026-05-01T12:13:07Z</time></trkpt><trkpt lat="45.78656708011978" lon="11.468517168474975"><ele>940.0</ele><time>2026-05-01T12:13:14Z</time></trkpt><trkpt lat="45.7866256261685" lon="11.468579519531785"><ele>940.0</ele><time>2026-05-01T12:13:18Z</time></trkpt><trkpt lat="45.78660950521519" lon="11.46847913251147"><ele>939.9999999999999</ele><time>2026-05-01T12:13:22Z</time></trkpt><trkpt lat="45.786582370585926" lon="11.46837896351374"><ele>940.0</ele><time>2026-05-01T12:13:26Z</time></trkpt><trkpt lat="45.78655186889757" lon="11.468252348103436"><ele>940.0</ele><time>2026-05-01T12:13:30Z</time></trkpt><trkpt lat="45.7865159839691" lon="11.468171986753434"><ele>939.9999999999999</ele><time>2026-05-01T12:13:33Z</time></trkpt><trkpt lat="45.786532245362714" lon="11.46826589674022"><ele>940.0</ele><time>2026-05-01T12:13:41Z</time></trkpt><trkpt lat="45.78657432512867" lon="11.468354557738287"><ele>940.0</ele><time>2026-05-01T12:13:44Z</time></trkpt><trkpt lat="45.78663823856198" lon="11.46837351554276"><ele>940.0</ele><time>2026-05-01T12:13:49Z</time></trkpt><trkpt lat="45.78669658811509" lon="11.46840802374282"><ele>939.9999999999999</ele><time>2026-05-01T12:13:52Z</time></trkpt><trkpt lat="45.78675169190695" lon="11.468359391785446"><ele>940.0</ele><time>2026-05-01T12:13:59Z</time></trkpt><trkpt lat="45.786710525669896" lon="11.468283085228059"><ele>940.0</ele><time>2026-05-01T12:14:03Z</time></trkpt><trkpt lat="45.78665979006279" lon="11.468195496287908"><ele>939.9999999999999</ele><time>2026-05-01T12:14:07Z</time></trkpt><trkpt lat="45.78666006079739" lon="11.468081261750768"><ele>940.0</ele><time>2026-05-01T12:14:10Z</time></trkpt><trkpt lat="45.78660716188054" lon="11.467985604457102"><ele>940.0</ele><time>2026-05-01T12:14:13Z</time></trkpt><trkpt lat="45.786550713499" lon="11.467924695055418"><ele>943.1666666666666</ele><time>2026-05-01T12:14:15Z</time></trkpt><trkpt lat="45.78647550172218" lon="11.467897317364672"><ele>946.3333333333333</ele><time>2026-05-01T12:14:18Z</time></trkpt><trkpt lat="45.786405895180486" lon="11.467896955540347"><ele>949.5</ele><time>2026-05-01T12:14:20Z</time></trkpt><trkpt lat="45.786328494162376" lon="11.467856017358763"><ele>952.6666666666667</ele><time>2026-05-01T12:14:22Z</time></trkpt><trkpt lat="45.786264761006144" lon="11.467812914685043"><ele>955.8333333333334</ele><time>2026-05-01T12:14:24Z</time></trkpt><trkpt lat="45.786197797101785" lon="11.467784999571874"><ele>959.0</ele><time>2026-05-01T12:14:26Z</time></trkpt><trkpt lat="45.786125951811755" lon="11.467728955935664"><ele>959.0</ele><time>2026-05-01T12:14:29Z</time></trkpt><trkpt lat="45.78620121891651" lon="11.46771831330834"><ele>959.0</ele><time>2026-05-01T12:14:37Z</time></trkpt><trkpt lat="45.786180479341" lon="11.467619634345738"><ele>959.0</ele><time>2026-05-01T12:14:44Z</time></trkpt><trkpt lat="45.78625133400503" lon="11.467636757802387"><ele>959.0</ele><time>2026-05-01T12:14:50Z</time></trkpt><trkpt lat="45.78630896528721" lon="11.467682369026065"><ele>959.0</ele><time>2026-05-01T12:14:53Z</time></trkpt><trkpt lat="45.78636612166203" lon="11.467723033424733"><ele>959.0</ele><time>2026-05-01T12:14:56Z</time></trkpt><trkpt lat="45.78642722139555" lon="11.467674993449641"><ele>959.0</ele><time>2026-05-01T12:14:58Z</time></trkpt><trkpt lat="45.786489709507435" lon="11.467692516701058"><ele>959.0000000000001</ele><time>2026-05-01T12:15:00Z</time></trkpt><trkpt lat="45.786587445524496" lon="11.46768866491479"><ele>959.0</ele><time>2026-05-01T12:15:03Z</time></trkpt><trkpt lat="45.78667038651427" lon="11.46773326101314"><ele>959.0</ele><time>2026-05-01T12:15:05Z</time></trkpt><trkpt lat="45.78672846917839" lon="11.467798680858689"><ele>959.0</ele><time>2026-05-01T12:15:07Z</time></trkpt><trkpt lat="45.786789398107565" lon="11.467861768356556"><ele>959.0000000000001</ele><time>2026-05-01T12:15:09Z</time></trkpt><trkpt lat="45.78679024136579" lon="11.467714686917267"><ele>959.0</ele><time>2026-05-01T12:15:15Z</time></trkpt><trkpt lat="45.78687973579838" lon="11.467742962713386"><ele>963.8571428571429</ele><time>2026-05-01T12:15:25Z</time></trkpt><trkpt lat="45.7869578015986" lon="11.467732866821166"><ele>968.7142857142858</ele><time>2026-05-01T12:15:28Z</time></trkpt><trkpt lat="45.787017258956595" lon="11.467772534874685"><ele>973.5714285714286</ele><time>2026-05-01T12:15:30Z</time></trkpt><trkpt lat="45.78707733704973" lon="11.467830792736972"><ele>978.4285714285714</ele><time>2026-05-01T12:15:32Z</time></trkpt><trkpt lat="45.78713630152862" lon="11.46789518478949"><ele>983.2857142857143</ele><time>2026-05-01T12:15:35Z</time></trkpt><trkpt lat="45.787182919583515" lon="11.46795744265951"><ele>988.1428571428571</ele><time>2026-05-01T12:15:39Z</time></trkpt><trkpt lat="45.78726567751426" lon="11.468012334264484"><ele>993.0</ele><time>2026-05-01T12:15:40Z</time></trkpt><trkpt lat="45.78734057122818" lon="11.468117697235357"><ele>993.0</ele><time>2026-05-01T12:15:42Z</time></trkpt><trkpt lat="45.787402666528756" lon="11.468202274986663"><ele>993.0</ele><time>2026-05-01T12:15:45Z</time></trkpt><trkpt lat="45.78754707473639" lon="11.468185225816821"><ele>993.0</ele><time>2026-05-01T12:16:57Z</time></trkpt><trkpt lat="45.7876198385688" lon="11.468175366677741"><ele>993.0</ele><time>2026-05-01T12:19:00Z</time></trkpt><trkpt lat="45.78757202817778" lon="11.468258902906822"><ele>993.0</ele><time>2026-05-01T12:19:05Z</time></trkpt><trkpt lat="45.78758662038048" lon="11.468353911542007"><ele>993.0</ele><time>2026-05-01T12:19:08Z</time></trkpt><trkpt lat="45.78765127250787" lon="11.468383684869485"><ele>1001.2857142857142</ele><time>2026-05-01T12:19:10Z</time></trkpt><trkpt lat="45.78771046316784" lon="11.46843542794514"><ele>1009.5714285714287</ele><time>2026-05-01T12:19:23.999Z</time></trkpt><trkpt lat="45.787778163417975" lon="11.468455197544916"><ele>1017.8571428571429</ele><time>2026-05-01T12:19:33.999Z</time></trkpt><trkpt lat="45.78784667998927" lon="11.46840275004385"><ele>1026.142857142857</ele><time>2026-05-01T12:19:48.999Z</time></trkpt><trkpt lat="45.78788795648198" lon="11.468331849341432"><ele>1034.4285714285713</ele><time>2026-05-01T12:19:59Z</time></trkpt><trkpt lat="45.78787723470331" lon="11.468239614417838"><ele>1042.7142857142858</ele><time>2026-05-01T12:20:07Z</time></trkpt><trkpt lat="45.78793326085548" lon="11.46819676961536"><ele>1051.0</ele><time>2026-05-01T12:20:11Z</time></trkpt><trkpt lat="45.78801012811612" lon="11.46820166660878"><ele>1051.0</ele><time>2026-05-01T12:20:15Z</time></trkpt><trkpt lat="45.78808869220484" lon="11.468249303039206"><ele>1051.0</ele><time>2026-05-01T12:20:18Z</time></trkpt><trkpt lat="45.78805896594487" lon="11.468155302975019"><ele>1051.0</ele><time>2026-05-01T12:20:26Z</time></trkpt><trkpt lat="45.788018584148624" lon="11.468077569547134"><ele>1051.0</ele><time>2026-05-01T12:20:30Z</time></trkpt><trkpt lat="45.78809583416944" lon="11.468105057602829"><ele>1051.0</ele><time>2026-05-01T12:20:36Z</time></trkpt><trkpt lat="45.78814986942129" lon="11.468161161426792"><ele>1051.0</ele><time>2026-05-01T12:20:38Z</time></trkpt><trkpt lat="45.78813584931957" lon="11.468049996578129"><ele>1051.0</ele><time>2026-05-01T12:20:48Z</time></trkpt><trkpt lat="45.788109120217456" lon="11.467965215760909"><ele>1051.0</ele><time>2026-05-01T12:20:51Z</time></trkpt><trkpt lat="45.788187053754065" lon="11.467944533096697"><ele>1051.0</ele><time>2026-05-01T12:20:56Z</time></trkpt><trkpt lat="45.788271102141486" lon="11.467936987366498"><ele>1051.0</ele><time>2026-05-01T12:21:01Z</time></trkpt><trkpt lat="45.78834530721114" lon="11.467955125730889"><ele>1051.0</ele><time>2026-05-01T12:21:06Z</time></trkpt><trkpt lat="45.7884079779974" lon="11.467973515656983"><ele>1051.0</ele><time>2026-05-01T12:21:10Z</time></trkpt><trkpt lat="45.788463560774304" lon="11.46802132417581"><ele>1051.0</ele><time>2026-05-01T12:21:13Z</time></trkpt><trkpt lat="45.78853360360191" lon="11.468073481829862"><ele>1058.0</ele><time>2026-05-01T12:21:16Z</time></trkpt><trkpt lat="45.78859718882568" lon="11.468067838139877"><ele>1065.0</ele><time>2026-05-01T12:21:19Z</time></trkpt><trkpt lat="45.788590273163884" lon="11.467975445127626"><ele>1072.0</ele><time>2026-05-01T12:21:23.999Z</time></trkpt><trkpt lat="45.78865416836703" lon="11.46794690536895"><ele>1079.0</ele><time>2026-05-01T12:21:34.999Z</time></trkpt><trkpt lat="45.78871655219826" lon="11.46797471673697"><ele>1086.0</ele><time>2026-05-01T12:21:37.999Z</time></trkpt><trkpt lat="45.788769029675656" lon="11.468056658458156"><ele>1093.0</ele><time>2026-05-01T12:21:40.999Z</time></trkpt><trkpt lat="45.78884645178636" lon="11.468085497434169"><ele>1100.0</ele><time>2026-05-01T12:21:44.999Z</time></trkpt><trkpt lat="45.78886003624943" lon="11.467984328211609"><ele>1100.0</ele><time>2026-05-01T12:21:51Z</time></trkpt><trkpt lat="45.788926863530904" lon="11.468008974384517"><ele>1100.0</ele><time>2026-05-01T12:21:56Z</time></trkpt><trkpt lat="45.78898413555187" lon="11.468051854387117"><ele>1100.0</ele><time>2026-05-01T12:28:10.001Z</time></trkpt><trkpt lat="45.7890521842893" lon="11.468091745778695"><ele>1100.0</ele><time>2026-05-01T12:28:21Z</time></trkpt><trkpt lat="45.7891231893608" lon="11.468053493584664"><ele>1100.0</ele><time>2026-05-01T12:28:38Z</time></trkpt><trkpt lat="45.789186580932956" lon="11.468085962055849"><ele>1100.0</ele><time>2026-05-01T12:28:41Z</time></trkpt><trkpt lat="45.78926138889235" lon="11.468095761097052"><ele>1100.0</ele><time>2026-05-01T12:28:44Z</time></trkpt><trkpt lat="45.78932768129093" lon="11.46809794079615"><ele>1107.6666666666667</ele><time>2026-05-01T12:28:47Z</time></trkpt><trkpt lat="45.789392914670046" lon="11.468045653199699"><ele>1115.3333333333335</ele><time>2026-05-01T12:28:54.001Z</time></trkpt><trkpt lat="45.789444428978236" lon="11.467970048583629"><ele>1123.0</ele><time>2026-05-01T12:29:04.001Z</time></trkpt><trkpt lat="45.78954838484351" lon="11.467956291096131"><ele>1130.6666666666667</ele><time>2026-05-01T12:29:07.001Z</time></trkpt><trkpt lat="45.789645366011726" lon="11.467965498158645"><ele>1138.3333333333333</ele><time>2026-05-01T12:29:09.001Z</time></trkpt><trkpt lat="45.78971053852301" lon="11.468002603003361"><ele>1146.0</ele><time>2026-05-01T12:29:11.001Z</time></trkpt><trkpt lat="45.789769704069506" lon="11.467963518026512"><ele>1147.7142857142858</ele><time>2026-05-01T12:29:15.001Z</time></trkpt><trkpt lat="45.78983327948591" lon="11.467918879364989"><ele>1149.4285714285716</ele><time>2026-05-01T12:29:18.001Z</time></trkpt><trkpt lat="45.78992176483352" lon="11.46790548154197"><ele>1151.142857142857</ele><time>2026-05-01T12:29:21.001Z</time></trkpt><trkpt lat="45.78999130375549" lon="11.467903404527068"><ele>1152.857142857143</ele><time>2026-05-01T12:29:24.001Z</time></trkpt><trkpt lat="45.790056896968565" lon="11.46790167459185"><ele>1154.5714285714284</ele><time>2026-05-01T12:33:02Z</time></trkpt><trkpt lat="45.790139543896416" lon="11.467876889106135"><ele>1156.2857142857142</ele><time>2026-05-01T12:41:24.001Z</time></trkpt><trkpt lat="45.79020182041016" lon="11.467854423202187"><ele>1158.0</ele><time>2026-05-01T12:41:26.001Z</time></trkpt><trkpt lat="45.790284154225525" lon="11.467830417331855"><ele>1158.0</ele><time>2026-05-01T12:41:29.001Z</time></trkpt><trkpt lat="45.79034748053815" lon="11.467804667211684"><ele>1158.0</ele><time>2026-05-01T12:41:31.001Z</time></trkpt><trkpt lat="45.790443443087504" lon="11.467779177052558"><ele>1158.0</ele><time>2026-05-01T12:41:34.001Z</time></trkpt><trkpt lat="45.79051469585775" lon="11.467726519097477"><ele>1158.0</ele><time>2026-05-01T12:41:36.001Z</time></trkpt><trkpt lat="45.790600587784326" lon="11.467670150284357"><ele>1158.0</ele><time>2026-05-01T12:41:38.001Z</time></trkpt><trkpt lat="45.79068069769134" lon="11.467609732420575"><ele>1158.0</ele><time>2026-05-01T12:41:41.001Z</time></trkpt><trkpt lat="45.79074815371299" lon="11.467564843890944"><ele>1158.0</ele><time>2026-05-01T12:41:44.001Z</time></trkpt><trkpt lat="45.790811067964924" lon="11.467498090446249"><ele>1158.0</ele><time>2026-05-01T12:41:48.001Z</time></trkpt><trkpt lat="45.79086137117289" lon="11.467440973538888"><ele>1158.0</ele><time>2026-05-01T12:41:51.001Z</time></trkpt><trkpt lat="45.79092478313317" lon="11.467386345770365"><ele>1158.0</ele><time>2026-05-01T12:41:54.001Z</time></trkpt><trkpt lat="45.791007758991825" lon="11.46733570228041"><ele>1158.0</ele><time>2026-05-01T12:41:57.001Z</time></trkpt><trkpt lat="45.79105302688485" lon="11.467265576199468"><ele>1158.0</ele><time>2026-05-01T12:42:00.001Z</time></trkpt><trkpt lat="45.79113002927452" lon="11.467227602268606"><ele>1161.8333333333333</ele><time>2026-05-01T12:42:05.001Z</time></trkpt><trkpt lat="45.79120057978759" lon="11.467181491242584"><ele>1165.6666666666667</ele><time>2026-05-01T12:42:08.001Z</time></trkpt><trkpt lat="45.791271363699174" lon="11.46719383114785"><ele>1169.5</ele><time>2026-05-01T12:42:10.001Z</time></trkpt><trkpt lat="45.791352110733115" lon="11.467177293195322"><ele>1173.3333333333335</ele><time>2026-05-01T12:42:12.001Z</time></trkpt><trkpt lat="45.79142211493693" lon="11.467149947062454"><ele>1177.1666666666667</ele><time>2026-05-01T12:42:15.001Z</time></trkpt><trkpt lat="45.79150267615046" lon="11.467133559671515"><ele>1181.0</ele><time>2026-05-01T12:42:18.001Z</time></trkpt><trkpt lat="45.791598295088455" lon="11.467131749147514"><ele>1180.8333333333335</ele><time>2026-05-01T12:42:21.001Z</time></trkpt><trkpt lat="45.79166903426946" lon="11.467061217069373"><ele>1180.6666666666667</ele><time>2026-05-01T12:42:24.001Z</time></trkpt><trkpt lat="45.79174380861348" lon="11.467031709802027"><ele>1180.5</ele><time>2026-05-01T12:42:27.001Z</time></trkpt><trkpt lat="45.79182777810531" lon="11.466993862212801"><ele>1180.3333333333333</ele><time>2026-05-01T12:42:30.001Z</time></trkpt><trkpt lat="45.7919185761714" lon="11.467000169474092"><ele>1180.1666666666665</ele><time>2026-05-01T12:42:33.001Z</time></trkpt><trkpt lat="45.792018072523746" lon="11.467017712092302"><ele>1180.0</ele><time>2026-05-01T12:42:36.001Z</time></trkpt><trkpt lat="45.7920781684911" lon="11.467046588350888"><ele>1183.0</ele><time>2026-05-01T12:42:38.001Z</time></trkpt><trkpt lat="45.7921654007363" lon="11.467024791498082"><ele>1186.0</ele><time>2026-05-01T12:42:42.001Z</time></trkpt><trkpt lat="45.79225636316471" lon="11.467051490081365"><ele>1189.0</ele><time>2026-05-01T12:42:45.001Z</time></trkpt><trkpt lat="45.79232792923969" lon="11.4670517915664"><ele>1192.0</ele><time>2026-05-01T12:42:47.001Z</time></trkpt><trkpt lat="45.79239810745156" lon="11.467041457626108"><ele>1195.0</ele><time>2026-05-01T12:42:49.001Z</time></trkpt><trkpt lat="45.79247254275602" lon="11.467082276857406"><ele>1198.0</ele><time>2026-05-01T12:42:52.001Z</time></trkpt><trkpt lat="45.79254186595037" lon="11.467147204088148"><ele>1198.0</ele><time>2026-05-01T12:42:55.001Z</time></trkpt><trkpt lat="45.79260785306718" lon="11.467187517473706"><ele>1198.0</ele><time>2026-05-01T12:42:57.001Z</time></trkpt><trkpt lat="45.79270418419736" lon="11.467192272690001"><ele>1198.0</ele><time>2026-05-01T12:43:00.001Z</time></trkpt><trkpt lat="45.79277205803923" lon="11.4672003866942"><ele>1198.0</ele><time>2026-05-01T12:43:01.001Z</time></trkpt><trkpt lat="45.79283789248782" lon="11.467232377211777"><ele>1198.0</ele><time>2026-05-01T12:43:03.001Z</time></trkpt><trkpt lat="45.792903989050984" lon="11.46728905689623"><ele>1198.0</ele><time>2026-05-01T12:43:05.001Z</time></trkpt><trkpt lat="45.792971658396795" lon="11.46731349979257"><ele>1203.4</ele><time>2026-05-01T12:43:07.001Z</time></trkpt><trkpt lat="45.7930450907619" lon="11.467335633089101"><ele>1208.8</ele><time>2026-05-01T12:43:09.001Z</time></trkpt><trkpt lat="45.79315445723147" lon="11.467361708543956"><ele>1214.2</ele><time>2026-05-01T12:43:11.001Z</time></trkpt><trkpt lat="45.79325886108941" lon="11.46736266401522"><ele>1219.6</ele><time>2026-05-01T12:43:13.001Z</time></trkpt><trkpt lat="45.7933547402559" lon="11.467353062426037"><ele>1225.0</ele><time>2026-05-01T12:43:15.001Z</time></trkpt><trkpt lat="45.79345266939225" lon="11.46734356859835"><ele>1231.75</ele><time>2026-05-01T12:43:17.001Z</time></trkpt><trkpt lat="45.79353866275567" lon="11.467289359230817"><ele>1238.5</ele><time>2026-05-01T12:43:19.001Z</time></trkpt><trkpt lat="45.79360797852926" lon="11.467221788396861"><ele>1245.25</ele><time>2026-05-01T12:43:23.001Z</time></trkpt><trkpt lat="45.79378098439499" lon="11.467119024532268"><ele>1252.0</ele><time>2026-05-01T12:43:26.001Z</time></trkpt><trkpt lat="45.79387520482071" lon="11.46707628913103"><ele>1253.1666666666665</ele><time>2026-05-01T12:43:28.001Z</time></trkpt><trkpt lat="45.79396295260378" lon="11.467009256551828"><ele>1254.3333333333333</ele><time>2026-05-01T12:43:30.001Z</time></trkpt><trkpt lat="45.794054159673465" lon="11.466952958940325"><ele>1255.5</ele><time>2026-05-01T12:43:32.001Z</time></trkpt><trkpt lat="45.794139758692445" lon="11.466917969409225"><ele>1256.6666666666667</ele><time>2026-05-01T12:43:34.001Z</time></trkpt><trkpt lat="45.79421153432987" lon="11.466913629121725"><ele>1257.8333333333335</ele><time>2026-05-01T12:43:36.001Z</time></trkpt><trkpt lat="45.79427653049925" lon="11.466895908522725"><ele>1259.0</ele><time>2026-05-01T12:43:38.001Z</time></trkpt><trkpt lat="45.79436763321835" lon="11.466886665036142"><ele>1262.5714285714284</ele><time>2026-05-01T12:43:41.001Z</time></trkpt><trkpt lat="45.79442281824141" lon="11.466939684545853"><ele>1266.142857142857</ele><time>2026-05-01T12:43:43.001Z</time></trkpt><trkpt lat="45.79446335616081" lon="11.467017310792867"><ele>1269.7142857142858</ele><time>2026-05-01T12:43:45.001Z</time></trkpt><trkpt lat="45.79449505695701" lon="11.467096267810522"><ele>1273.2857142857142</ele><time>2026-05-01T12:43:47.001Z</time></trkpt><trkpt lat="45.79456735833011" lon="11.467108339502685"><ele>1276.857142857143</ele><time>2026-05-01T12:43:50.001Z</time></trkpt><trkpt lat="45.794646134817114" lon="11.467050341034295"><ele>1280.4285714285713</ele><time>2026-05-01T12:43:53.001Z</time></trkpt><trkpt lat="45.79470385873167" lon="11.466965967323869"><ele>1284.0</ele><time>2026-05-01T12:43:55.001Z</time></trkpt><trkpt lat="45.7947634955168" lon="11.46691405219386"><ele>1284.0</ele><time>2026-05-01T12:43:57.001Z</time></trkpt><trkpt lat="45.7948392596772" lon="11.466887025417622"><ele>1284.0</ele><time>2026-05-01T12:44:00.001Z</time></trkpt><trkpt lat="45.79490434147302" lon="11.466882919947713"><ele>1284.0</ele><time>2026-05-01T12:44:01.001Z</time></trkpt><trkpt lat="45.795013830683075" lon="11.466889762054391"><ele>1284.0</ele><time>2026-05-01T12:44:03.001Z</time></trkpt><trkpt lat="45.795131337279166" lon="11.466916913636018"><ele>1284.0</ele><time>2026-05-01T12:44:05.001Z</time></trkpt><trkpt lat="45.79524919910715" lon="11.466939365214243"><ele>1288.75</ele><time>2026-05-01T12:44:07.001Z</time></trkpt><trkpt lat="45.79536619781563" lon="11.466965488710033"><ele>1293.5</ele><time>2026-05-01T12:44:09.001Z</time></trkpt><trkpt lat="45.795487418668785" lon="11.466985176291917"><ele>1298.25</ele><time>2026-05-01T12:44:11.001Z</time></trkpt><trkpt lat="45.795610104148004" lon="11.467012344422526"><ele>1303.0</ele><time>2026-05-01T12:44:13.001Z</time></trkpt><trkpt lat="45.79572340369003" lon="11.467021174983282"><ele>1303.0</ele><time>2026-05-01T12:44:15.001Z</time></trkpt><trkpt lat="45.795825399525306" lon="11.467040446654558"><ele>1303.0</ele><time>2026-05-01T12:44:17.001Z</time></trkpt><trkpt lat="45.79592047060613" lon="11.467095148523368"><ele>1303.0</ele><time>2026-05-01T12:44:19.001Z</time></trkpt><trkpt lat="45.796005768237045" lon="11.467201331419885"><ele>1303.0</ele><time>2026-05-01T12:44:21.001Z</time></trkpt><trkpt lat="45.79603613154143" lon="11.467355400176446"><ele>1303.0</ele><time>2026-05-01T12:44:23.001Z</time></trkpt><trkpt lat="45.79604594033765" lon="11.46752291279847"><ele>1306.6666666666665</ele><time>2026-05-01T12:44:25.001Z</time></trkpt><trkpt lat="45.79606309011575" lon="11.467682262434257"><ele>1310.3333333333333</ele><time>2026-05-01T12:44:27.001Z</time></trkpt><trkpt lat="45.79606573050307" lon="11.46781344301985"><ele>1314.0</ele><time>2026-05-01T12:44:29.001Z</time></trkpt><trkpt lat="45.79606266055377" lon="11.4679135837606"><ele>1317.6666666666667</ele><time>2026-05-01T12:44:31.001Z</time></trkpt><trkpt lat="45.796113609340985" lon="11.467988196401635"><ele>1321.3333333333335</ele><time>2026-05-01T12:44:38.001Z</time></trkpt><trkpt lat="45.79621552308329" lon="11.467996126724165"><ele>1325.0</ele><time>2026-05-01T12:44:41.001Z</time></trkpt><trkpt lat="45.79629004677382" lon="11.468051087312793"><ele>1325.0</ele><time>2026-05-01T12:44:43.001Z</time></trkpt><trkpt lat="45.79636111033965" lon="11.468047821279546"><ele>1325.0</ele><time>2026-05-01T12:44:45.001Z</time></trkpt><trkpt lat="45.796432199892095" lon="11.467991214009631"><ele>1325.0</ele><time>2026-05-01T12:44:47.001Z</time></trkpt><trkpt lat="45.79649010978703" lon="11.467947009489071"><ele>1325.0</ele><time>2026-05-01T12:44:49.001Z</time></trkpt><trkpt lat="45.79652287062547" lon="11.467859828884748"><ele>1325.0</ele><time>2026-05-01T12:44:52.001Z</time></trkpt><trkpt lat="45.79657306592905" lon="11.467648744197243"><ele>1325.0</ele><time>2026-05-01T12:44:55.001Z</time></trkpt><trkpt lat="45.79663004182983" lon="11.46755362665584"><ele>1325.0</ele><time>2026-05-01T12:44:57.001Z</time></trkpt><trkpt lat="45.796677110175644" lon="11.467461044961391"><ele>1325.0</ele><time>2026-05-01T12:44:59.001Z</time></trkpt><trkpt lat="45.79671410671108" lon="11.467359839069996"><ele>1325.0</ele><time>2026-05-01T12:45:01.001Z</time></trkpt><trkpt lat="45.79675568959851" lon="11.467274802030955"><ele>1325.0</ele><time>2026-05-01T12:45:03.001Z</time></trkpt><trkpt lat="45.79682124065607" lon="11.467214997886044"><ele>1325.0</ele><time>2026-05-01T12:45:05.001Z</time></trkpt><trkpt lat="45.79688113570974" lon="11.467140275063262"><ele>1325.0</ele><time>2026-05-01T12:45:07.001Z</time></trkpt><trkpt lat="45.79693168013704" lon="11.467068366518733"><ele>1328.5</ele><time>2026-05-01T12:45:09.001Z</time></trkpt><trkpt lat="45.79698995555504" lon="11.466993692881282"><ele>1332.0</ele><time>2026-05-01T12:45:11.001Z</time></trkpt><trkpt lat="45.79706606807893" lon="11.466917765166171"><ele>1335.5</ele><time>2026-05-01T12:45:13.001Z</time></trkpt><trkpt lat="45.797145581645815" lon="11.46688085725655"><ele>1339.0</ele><time>2026-05-01T12:45:15.001Z</time></trkpt><trkpt lat="45.79722261453257" lon="11.46678800813081"><ele>1342.5</ele><time>2026-05-01T12:45:17.001Z</time></trkpt><trkpt lat="45.79727704934436" lon="11.466687599842892"><ele>1346.0</ele><time>2026-05-01T12:45:19.001Z</time></trkpt><trkpt lat="45.79735395301026" lon="11.46655429418638"><ele>1346.0</ele><time>2026-05-01T12:45:21.001Z</time></trkpt><trkpt lat="45.797412976648225" lon="11.46643608890202"><ele>1346.0</ele><time>2026-05-01T12:45:23.001Z</time></trkpt><trkpt lat="45.797462830415526" lon="11.46630472234711"><ele>1346.0</ele><time>2026-05-01T12:45:25.001Z</time></trkpt><trkpt lat="45.79752382369114" lon="11.466181379356408"><ele>1346.0</ele><time>2026-05-01T12:45:27.001Z</time></trkpt><trkpt lat="45.79758327652661" lon="11.466048508535717"><ele>1346.0</ele><time>2026-05-01T12:45:29.001Z</time></trkpt><trkpt lat="45.79764681195233" lon="11.465911618435376"><ele>1345.1999999999998</ele><time>2026-05-01T12:45:31.001Z</time></trkpt><trkpt lat="45.79765897662593" lon="11.465752217403917"><ele>1344.3999999999999</ele><time>2026-05-01T12:45:33.001Z</time></trkpt><trkpt lat="45.79760430666638" lon="11.465624889571652"><ele>1343.6</ele><time>2026-05-01T12:45:35.001Z</time></trkpt><trkpt lat="45.797512415140496" lon="11.46555231407199"><ele>1342.8</ele><time>2026-05-01T12:45:37.001Z</time></trkpt><trkpt lat="45.797423384051555" lon="11.465468875911908"><ele>1342.0</ele><time>2026-05-01T12:45:39.001Z</time></trkpt><trkpt lat="45.79733591177183" lon="11.465398852692035"><ele>1344.6666666666665</ele><time>2026-05-01T12:45:41.001Z</time></trkpt><trkpt lat="45.79726012829875" lon="11.465307885480327"><ele>1347.3333333333333</ele><time>2026-05-01T12:45:43.001Z</time></trkpt><trkpt lat="45.79717262245944" lon="11.465268626219098"><ele>1350.0</ele><time>2026-05-01T12:45:45.001Z</time></trkpt><trkpt lat="45.79710693862459" lon="11.465229510140928"><ele>1352.6666666666667</ele><time>2026-05-01T12:45:47.001Z</time></trkpt><trkpt lat="45.79716094491792" lon="11.465133195726494"><ele>1355.3333333333335</ele><time>2026-05-01T12:45:50.001Z</time></trkpt><trkpt lat="45.797253335399795" lon="11.46514934208813"><ele>1358.0</ele><time>2026-05-01T12:45:52.001Z</time></trkpt><trkpt lat="45.797337076593244" lon="11.465167041723713"><ele>1358.0</ele><time>2026-05-01T12:45:54.001Z</time></trkpt><trkpt lat="45.79742622620138" lon="11.465172257700205"><ele>1358.0</ele><time>2026-05-01T12:45:56.001Z</time></trkpt><trkpt lat="45.79750633994999" lon="11.4651806146933"><ele>1358.0</ele><time>2026-05-01T12:45:58.001Z</time></trkpt><trkpt lat="45.79758496747534" lon="11.465206019626624"><ele>1358.0</ele><time>2026-05-01T12:46:00.001Z</time></trkpt><trkpt lat="45.79766322024292" lon="11.465204728499439"><ele>1358.0</ele><time>2026-05-01T12:46:02.001Z</time></trkpt><trkpt lat="45.797750226201046" lon="11.465211599603414"><ele>1358.0</ele><time>2026-05-01T12:46:04.001Z</time></trkpt><trkpt lat="45.79782618307286" lon="11.465237569245048"><ele>1358.3333333333335</ele><time>2026-05-01T12:46:06.001Z</time></trkpt><trkpt lat="45.79789865389486" lon="11.465255351469231"><ele>1358.6666666666667</ele><time>2026-05-01T12:46:08.001Z</time></trkpt><trkpt lat="45.79799583322189" lon="11.465254860532022"><ele>1359.0</ele><time>2026-05-01T12:46:11.001Z</time></trkpt><trkpt lat="45.79807070621066" lon="11.465273948034698"><ele>1359.3333333333333</ele><time>2026-05-01T12:46:13.001Z</time></trkpt><trkpt lat="45.798143839228196" lon="11.465309994727631"><ele>1359.6666666666665</ele><time>2026-05-01T12:46:15.001Z</time></trkpt><trkpt lat="45.79822529060387" lon="11.46528759992866"><ele>1360.0</ele><time>2026-05-01T12:46:18.001Z</time></trkpt><trkpt lat="45.798265972482355" lon="11.46516957328266"><ele>1360.0</ele><time>2026-05-01T12:46:20.001Z</time></trkpt><trkpt lat="45.79833702830572" lon="11.465105999431117"><ele>1360.0</ele><time>2026-05-01T12:46:22.001Z</time></trkpt><trkpt lat="45.79843931046423" lon="11.465139483204274"><ele>1360.0</ele><time>2026-05-01T12:46:24.001Z</time></trkpt><trkpt lat="45.798514521634324" lon="11.465207111605423"><ele>1360.0</ele><time>2026-05-01T12:46:26.001Z</time></trkpt><trkpt lat="45.79857978533321" lon="11.465255002585387"><ele>1360.0</ele><time>2026-05-01T12:46:30.001Z</time></trkpt><trkpt lat="45.79864671967652" lon="11.465247592597215"><ele>1360.0</ele><time>2026-05-01T12:46:34.001Z</time></trkpt><trkpt lat="45.798719954307636" lon="11.465269162808234"><ele>1361.6</ele><time>2026-05-01T12:46:38.001Z</time></trkpt><trkpt lat="45.79880424650004" lon="11.465287355398136"><ele>1363.2</ele><time>2026-05-01T12:46:41.001Z</time></trkpt><trkpt lat="45.798921306533806" lon="11.465299391997918"><ele>1364.8000000000002</ele><time>2026-05-01T12:46:44.001Z</time></trkpt><trkpt lat="45.79901376602495" lon="11.465277196191941"><ele>1366.4</ele><time>2026-05-01T12:46:46.001Z</time></trkpt><trkpt lat="45.79914000637039" lon="11.465292755370147"><ele>1368.0</ele><time>2026-05-01T12:46:48.001Z</time></trkpt><trkpt lat="45.799222699106224" lon="11.465317515771318"><ele>1367.0</ele><time>2026-05-01T12:46:51.001Z</time></trkpt><trkpt lat="45.79937997885414" lon="11.465446866961587"><ele>1366.0</ele><time>2026-05-01T12:46:54.001Z</time></trkpt><trkpt lat="45.79941714664552" lon="11.465521785145473"><ele>1365.0</ele><time>2026-05-01T12:46:55.001Z</time></trkpt><trkpt lat="45.79946312516109" lon="11.465591283203254"><ele>1364.0</ele><time>2026-05-01T12:46:56.001Z</time></trkpt><trkpt lat="45.79955389393324" lon="11.465689133273006"><ele>1363.0</ele><time>2026-05-01T12:46:58.001Z</time></trkpt><trkpt lat="45.7995988151765" lon="11.465767137013211"><ele>1363.0</ele><time>2026-05-01T12:46:59.001Z</time></trkpt><trkpt lat="45.79964700811207" lon="11.465886459199861"><ele>1363.0</ele><time>2026-05-01T12:47:01.001Z</time></trkpt><trkpt lat="45.79968124385671" lon="11.465999298034628"><ele>1363.0</ele><time>2026-05-01T12:47:03.001Z</time></trkpt><trkpt lat="45.799726237800726" lon="11.466142131943856"><ele>1363.0</ele><time>2026-05-01T12:47:05.001Z</time></trkpt><trkpt lat="45.79972878884222" lon="11.466286217100835"><ele>1363.0</ele><time>2026-05-01T12:47:07.001Z</time></trkpt><trkpt lat="45.79972996835533" lon="11.466418644206318"><ele>1364.4</ele><time>2026-05-01T12:47:09.001Z</time></trkpt><trkpt lat="45.799710947210535" lon="11.466524740368191"><ele>1365.8000000000002</ele><time>2026-05-01T12:47:11.001Z</time></trkpt><trkpt lat="45.799644515751915" lon="11.466604345330616"><ele>1367.2</ele><time>2026-05-01T12:47:14.001Z</time></trkpt><trkpt lat="45.799558863069294" lon="11.466661387925095"><ele>1368.6</ele><time>2026-05-01T12:47:16.001Z</time></trkpt><trkpt lat="45.799509856184116" lon="11.466812310615719"><ele>1370.0</ele><time>2026-05-01T12:47:18.001Z</time></trkpt><trkpt lat="45.799468023339756" lon="11.466974394394065"><ele>1370.0</ele><time>2026-05-01T12:47:20.001Z</time></trkpt><trkpt lat="45.799473368135175" lon="11.467085907329903"><ele>1370.0</ele><time>2026-05-01T12:47:23.001Z</time></trkpt><trkpt lat="45.79951887316713" lon="11.46721022241856"><ele>1370.0</ele><time>2026-05-01T12:47:26.001Z</time></trkpt><trkpt lat="45.79958085497763" lon="11.46729222820851"><ele>1370.0</ele><time>2026-05-01T12:47:29.001Z</time></trkpt><trkpt lat="45.799619777977036" lon="11.46739020575187"><ele>1370.0</ele><time>2026-05-01T12:47:32.001Z</time></trkpt><trkpt lat="45.79967445623939" lon="11.467452155886246"><ele>1370.0</ele><time>2026-05-01T12:47:34.001Z</time></trkpt><trkpt lat="45.79974258109428" lon="11.467568567968874"><ele>1372.3333333333335</ele><time>2026-05-01T12:47:36.001Z</time></trkpt><trkpt lat="45.79979589833784" lon="11.467659490676015"><ele>1374.6666666666667</ele><time>2026-05-01T12:47:38.001Z</time></trkpt><trkpt lat="45.79986803104894" lon="11.467777605332662"><ele>1377.0</ele><time>2026-05-01T12:47:40.001Z</time></trkpt><trkpt lat="45.799904300410226" lon="11.467860723268476"><ele>1379.3333333333333</ele><time>2026-05-01T12:47:41.001Z</time></trkpt><trkpt lat="45.799936461064505" lon="11.467940184403353"><ele>1381.6666666666665</ele><time>2026-05-01T12:47:42.001Z</time></trkpt><trkpt lat="45.799993393611686" lon="11.468062411416817"><ele>1384.0</ele><time>2026-05-01T12:47:44.001Z</time></trkpt><trkpt lat="45.800030996680945" lon="11.468167097674105"><ele>1386.6666666666665</ele><time>2026-05-01T12:47:46.001Z</time></trkpt><trkpt lat="45.800070685772056" lon="11.468263118996413"><ele>1389.3333333333333</ele><time>2026-05-01T12:47:48.001Z</time></trkpt><trkpt lat="45.80010010769565" lon="11.468397515591848"><ele>1392.0</ele><time>2026-05-01T12:47:50.001Z</time></trkpt><trkpt lat="45.80011201877476" lon="11.468514823481431"><ele>1394.6666666666667</ele><time>2026-05-01T12:47:52.001Z</time></trkpt><trkpt lat="45.800105818770845" lon="11.468649270480164"><ele>1397.3333333333335</ele><time>2026-05-01T12:47:54.001Z</time></trkpt><trkpt lat="45.80009776684139" lon="11.468771239594846"><ele>1400.0</ele><time>2026-05-01T12:47:56.001Z</time></trkpt><trkpt lat="45.80008794834646" lon="11.468919322545513"><ele>1399.5</ele><time>2026-05-01T12:47:58.001Z</time></trkpt><trkpt lat="45.800083438068725" lon="11.469061815748193"><ele>1399.0</ele><time>2026-05-01T12:48:00.001Z</time></trkpt><trkpt lat="45.80008859340893" lon="11.46915998199833"><ele>1398.5</ele><time>2026-05-01T12:48:01.001Z</time></trkpt><trkpt lat="45.80006055878218" lon="11.469298902786575"><ele>1398.0</ele><time>2026-05-01T12:48:03.001Z</time></trkpt><trkpt lat="45.80003544070911" lon="11.469408793742746"><ele>1397.5</ele><time>2026-05-01T12:48:05.001Z</time></trkpt><trkpt lat="45.80005018364874" lon="11.469508021856898"><ele>1397.0</ele><time>2026-05-01T12:48:08.001Z</time></trkpt><trkpt lat="45.800181944598584" lon="11.469765890403169"><ele>1397.0</ele><time>2026-05-01T12:53:46Z</time></trkpt><trkpt lat="45.800234077059514" lon="11.469838054207901"><ele>1397.0</ele><time>2026-05-01T12:53:48Z</time></trkpt><trkpt lat="45.800321217972765" lon="11.469888116350225"><ele>1397.0</ele><time>2026-05-01T12:53:51Z</time></trkpt><trkpt lat="45.80056795725667" lon="11.46992259914558"><ele>1397.0</ele><time>2026-05-01T12:53:57Z</time></trkpt><trkpt lat="45.800670690955386" lon="11.469950925147481"><ele>1397.0</ele><time>2026-05-01T12:53:59Z</time></trkpt><trkpt lat="45.800767223973025" lon="11.469985687662188"><ele>1397.0</ele><time>2026-05-01T12:54:01Z</time></trkpt><trkpt lat="45.80084909765" lon="11.470015129568184"><ele>1397.0</ele><time>2026-05-01T12:54:03Z</time></trkpt><trkpt lat="45.80092715421473" lon="11.470029706309713"><ele>1397.0</ele><time>2026-05-01T12:54:05Z</time></trkpt><trkpt lat="45.801037139755145" lon="11.470079759677335"><ele>1397.0</ele><time>2026-05-01T12:54:07Z</time></trkpt><trkpt lat="45.80110530572772" lon="11.470097463823206"><ele>1397.0</ele><time>2026-05-01T12:54:08Z</time></trkpt><trkpt lat="45.80122114297174" lon="11.470152902716537"><ele>1395.0</ele><time>2026-05-01T12:54:10Z</time></trkpt><trkpt lat="45.80130682584252" lon="11.470184510449169"><ele>1393.0</ele><time>2026-05-01T12:54:12Z</time></trkpt><trkpt lat="45.80141582639206" lon="11.470203941028279"><ele>1391.0</ele><time>2026-05-01T12:54:14Z</time></trkpt><trkpt lat="45.80152326489074" lon="11.47030371621517"><ele>1389.0</ele><time>2026-05-01T12:54:16Z</time></trkpt><trkpt lat="45.801592544709656" lon="11.47035056484122"><ele>1387.0</ele><time>2026-05-01T12:54:17Z</time></trkpt><trkpt lat="45.80165463099432" lon="11.470400230141687"><ele>1387.1666666666665</ele><time>2026-05-01T12:54:18Z</time></trkpt><trkpt lat="45.801753929813664" lon="11.470460644380863"><ele>1387.3333333333333</ele><time>2026-05-01T12:54:20Z</time></trkpt><trkpt lat="45.80183573462992" lon="11.470542489005123"><ele>1387.5</ele><time>2026-05-01T12:54:22Z</time></trkpt><trkpt lat="45.801877290108294" lon="11.470623290878054"><ele>1387.6666666666667</ele><time>2026-05-01T12:54:25Z</time></trkpt><trkpt lat="45.801943554636985" lon="11.470709388466103"><ele>1387.8333333333335</ele><time>2026-05-01T12:54:28Z</time></trkpt><trkpt lat="45.80200990067208" lon="11.47073427610753"><ele>1388.0</ele><time>2026-05-01T12:54:30Z</time></trkpt><trkpt lat="45.80246852395995" lon="11.471057708003633"><ele>1388.0</ele><time>2026-05-01T12:54:32Z</time></trkpt><trkpt lat="45.80254968643942" lon="11.471076554682368"><ele>1388.0</ele><time>2026-05-01T12:54:33Z</time></trkpt><trkpt lat="45.80265967983386" lon="11.471075235310105"><ele>1388.0</ele><time>2026-05-01T12:54:35Z</time></trkpt><trkpt lat="45.80276421541364" lon="11.47103891536231"><ele>1388.0</ele><time>2026-05-01T12:54:37Z</time></trkpt><trkpt lat="45.802874285722794" lon="11.470958038968853"><ele>1388.0</ele><time>2026-05-01T12:54:39Z</time></trkpt><trkpt lat="45.80298728613764" lon="11.470893974589135"><ele>1385.6000000000001</ele><time>2026-05-01T12:54:41Z</time></trkpt><trkpt lat="45.80306172608087" lon="11.470849761924882"><ele>1383.2</ele><time>2026-05-01T12:54:43Z</time></trkpt><trkpt lat="45.80316071329368" lon="11.470816981626081"><ele>1380.8</ele><time>2026-05-01T12:54:45Z</time></trkpt><trkpt lat="45.80324766043311" lon="11.470791339221833"><ele>1378.4</ele><time>2026-05-01T12:54:47Z</time></trkpt><trkpt lat="45.80333956796304" lon="11.470796014453589"><ele>1376.0</ele><time>2026-05-01T12:54:49Z</time></trkpt><trkpt lat="45.80345822880019" lon="11.470819222360399"><ele>1373.8</ele><time>2026-05-01T12:54:51Z</time></trkpt><trkpt lat="45.80353914800241" lon="11.47082694988086"><ele>1371.6</ele><time>2026-05-01T12:54:52Z</time></trkpt><trkpt lat="45.80360314937051" lon="11.470877545943782"><ele>1369.4</ele><time>2026-05-01T12:54:53Z</time></trkpt><trkpt lat="45.80372204329075" lon="11.470886538008681"><ele>1367.2</ele><time>2026-05-01T12:54:55Z</time></trkpt><trkpt lat="45.80378953108159" lon="11.470883166276021"><ele>1365.0</ele><time>2026-05-01T12:54:56Z</time></trkpt><trkpt lat="45.803901151457744" lon="11.470900794562374"><ele>1365.0</ele><time>2026-05-01T12:54:58Z</time></trkpt><trkpt lat="45.80400196567018" lon="11.470951867478309"><ele>1365.0</ele><time>2026-05-01T12:55:00Z</time></trkpt><trkpt lat="45.80405629832268" lon="11.471013148887858"><ele>1365.0</ele><time>2026-05-01T12:55:03Z</time></trkpt><trkpt lat="45.80425447512779" lon="11.4710774489862"><ele>1365.0</ele><time>2026-05-01T12:55:05Z</time></trkpt><trkpt lat="45.804314911579496" lon="11.471111139458042"><ele>1365.0</ele><time>2026-05-01T12:55:06Z</time></trkpt><trkpt lat="45.80437901600225" lon="11.471137030699364"><ele>1364.75</ele><time>2026-05-01T12:55:07Z</time></trkpt><trkpt lat="45.8044734973291" lon="11.471241156283943"><ele>1364.5</ele><time>2026-05-01T12:55:09Z</time></trkpt><trkpt lat="45.80454955265003" lon="11.471347938046218"><ele>1364.25</ele><time>2026-05-01T12:55:12Z</time></trkpt><trkpt lat="45.804605727552435" lon="11.471428209087813"><ele>1364.0</ele><time>2026-05-01T12:55:15Z</time></trkpt><trkpt lat="45.804873651197475" lon="11.471752700464974"><ele>1364.0</ele><time>2026-05-01T12:55:19Z</time></trkpt><trkpt lat="45.804971815736984" lon="11.471837770544782"><ele>1364.0</ele><time>2026-05-01T12:55:21Z</time></trkpt><trkpt lat="45.80509034444872" lon="11.471878401262057"><ele>1364.0</ele><time>2026-05-01T12:55:23Z</time></trkpt><trkpt lat="45.80519602865709" lon="11.47190784271005"><ele>1364.0</ele><time>2026-05-01T12:55:25Z</time></trkpt><trkpt lat="45.80527428006864" lon="11.471962142655673"><ele>1364.0</ele><time>2026-05-01T12:55:27Z</time></trkpt><trkpt lat="45.8054015348398" lon="11.472039312200792"><ele>1364.3333333333335</ele><time>2026-05-01T12:55:29Z</time></trkpt><trkpt lat="45.805462457304095" lon="11.472073616161403"><ele>1364.6666666666667</ele><time>2026-05-01T12:55:30Z</time></trkpt><trkpt lat="45.805572766788984" lon="11.472123519088361"><ele>1365.0</ele><time>2026-05-01T12:55:32Z</time></trkpt><trkpt lat="45.80565094111056" lon="11.47213045863262"><ele>1365.3333333333333</ele><time>2026-05-01T12:55:33Z</time></trkpt><trkpt lat="45.80572541548628" lon="11.472131609148178"><ele>1365.6666666666665</ele><time>2026-05-01T12:55:34Z</time></trkpt><trkpt lat="45.80579597070141" lon="11.472135103240918"><ele>1366.0</ele><time>2026-05-01T12:55:35Z</time></trkpt><trkpt lat="45.805860778140044" lon="11.472136650991688"><ele>1366.0</ele><time>2026-05-01T12:55:36Z</time></trkpt><trkpt lat="45.80594329379522" lon="11.47212287712768"><ele>1366.0</ele><time>2026-05-01T12:55:37Z</time></trkpt><trkpt lat="45.80602232772419" lon="11.472170721029476"><ele>1366.0</ele><time>2026-05-01T12:55:40Z</time></trkpt><trkpt lat="45.80617020837013" lon="11.472356734305482"><ele>1366.0</ele><time>2026-05-01T12:55:44Z</time></trkpt><trkpt lat="45.806194642311134" lon="11.472459824341266"><ele>1366.0</ele><time>2026-05-01T12:55:46Z</time></trkpt><trkpt lat="45.80623191309949" lon="11.472618487336295"><ele>1363.3333333333333</ele><time>2026-05-01T12:55:48Z</time></trkpt><trkpt lat="45.80626771360904" lon="11.472714055213538"><ele>1360.6666666666665</ele><time>2026-05-01T12:55:50Z</time></trkpt><trkpt lat="45.8063122593685" lon="11.472820325165873"><ele>1358.0</ele><time>2026-05-01T12:56:02Z</time></trkpt><trkpt lat="45.80627979950477" lon="11.472923062927547"><ele>1355.3333333333333</ele><time>2026-05-01T12:56:09Z</time></trkpt><trkpt lat="45.806282761612444" lon="11.473040109821152"><ele>1352.6666666666667</ele><time>2026-05-01T12:56:11Z</time></trkpt><trkpt lat="45.806305240510255" lon="11.473133225206498"><ele>1350.0</ele><time>2026-05-01T12:56:13Z</time></trkpt><trkpt lat="45.8063380309306" lon="11.473245181225428"><ele>1350.0</ele><time>2026-05-01T12:56:15Z</time></trkpt><trkpt lat="45.80629701009752" lon="11.473358871503665"><ele>1350.0</ele><time>2026-05-01T12:56:18Z</time></trkpt><trkpt lat="45.80629107785627" lon="11.47347418428162"><ele>1350.0</ele><time>2026-05-01T12:56:21Z</time></trkpt><trkpt lat="45.806345662172696" lon="11.473606510739751"><ele>1350.0</ele><time>2026-05-01T12:56:23Z</time></trkpt><trkpt lat="45.80641193980628" lon="11.473719947844813"><ele>1350.0</ele><time>2026-05-01T12:56:25Z</time></trkpt><trkpt lat="45.80649724976639" lon="11.47380390414179"><ele>1350.3333333333333</ele><time>2026-05-01T12:56:27Z</time></trkpt><trkpt lat="45.80666078501058" lon="11.474132452936852"><ele>1350.6666666666665</ele><time>2026-05-01T12:56:29Z</time></trkpt><trkpt lat="45.80675499407991" lon="11.474135274030447"><ele>1351.0</ele><time>2026-05-01T12:56:31Z</time></trkpt><trkpt lat="45.80684378400889" lon="11.47404331930028"><ele>1351.8</ele><time>2026-05-01T12:56:33Z</time></trkpt><trkpt lat="45.80690220146731" lon="11.474001706858274"><ele>1352.6</ele><time>2026-05-01T12:56:34Z</time></trkpt><trkpt lat="45.80699200081766" lon="11.473906803871607"><ele>1353.4</ele><time>2026-05-01T12:56:36Z</time></trkpt><trkpt lat="45.80710498826809" lon="11.473835103989398"><ele>1354.2</ele><time>2026-05-01T12:56:38Z</time></trkpt><trkpt lat="45.807172718997535" lon="11.473758316937282"><ele>1355.0</ele><time>2026-05-01T12:56:40Z</time></trkpt><trkpt lat="45.807225795220816" lon="11.473691139452724"><ele>1352.5714285714287</ele><time>2026-05-01T12:56:43Z</time></trkpt><trkpt lat="45.80726701569951" lon="11.473612819020051"><ele>1350.142857142857</ele><time>2026-05-01T12:56:46Z</time></trkpt><trkpt lat="45.80733467712664" lon="11.473564745982161"><ele>1347.7142857142858</ele><time>2026-05-01T12:56:50Z</time></trkpt><trkpt lat="45.80738325008018" lon="11.473497064538002"><ele>1345.2857142857142</ele><time>2026-05-01T12:56:52Z</time></trkpt><trkpt lat="45.80745211385336" lon="11.473451897646166"><ele>1342.857142857143</ele><time>2026-05-01T12:56:55Z</time></trkpt><trkpt lat="45.80751901564815" lon="11.473422642076601"><ele>1340.4285714285716</ele><time>2026-05-01T12:57:00Z</time></trkpt><trkpt lat="45.80758365047063" lon="11.473387296349342"><ele>1338.0</ele><time>2026-05-01T12:57:02Z</time></trkpt><trkpt lat="45.80765321147125" lon="11.47330363441603"><ele>1339.0</ele><time>2026-05-01T12:57:05Z</time></trkpt><trkpt lat="45.80769806512115" lon="11.47323305720517"><ele>1340.0</ele><time>2026-05-01T12:57:07Z</time></trkpt><trkpt lat="45.807815313654416" lon="11.473117991709378"><ele>1341.0</ele><time>2026-05-01T12:57:25Z</time></trkpt><trkpt lat="45.807866406147305" lon="11.47298751781222"><ele>1342.0</ele><time>2026-05-01T12:57:28Z</time></trkpt><trkpt lat="45.80790674631341" lon="11.472838176214934"><ele>1343.0</ele><time>2026-05-01T12:57:30Z</time></trkpt><trkpt lat="45.80798462713222" lon="11.472708187967585"><ele>1339.5</ele><time>2026-05-01T12:57:32Z</time></trkpt><trkpt lat="45.80805266773947" lon="11.472608513380946"><ele>1336.0</ele><time>2026-05-01T12:57:34Z</time></trkpt><trkpt lat="45.808085406562455" lon="11.472529611403496"><ele>1332.5</ele><time>2026-05-01T12:57:35Z</time></trkpt><trkpt lat="45.80811360019252" lon="11.472437085024065"><ele>1329.0</ele><time>2026-05-01T12:57:36Z</time></trkpt><trkpt lat="45.80814140704098" lon="11.472282068664512"><ele>1325.5</ele><time>2026-05-01T12:57:38Z</time></trkpt><trkpt lat="45.80819354656974" lon="11.47219095535506"><ele>1322.0</ele><time>2026-05-01T12:57:40Z</time></trkpt><trkpt lat="45.80828609794267" lon="11.472077207011909"><ele>1321.5</ele><time>2026-05-01T12:57:42Z</time></trkpt><trkpt lat="45.80834398474419" lon="11.471985095885483"><ele>1321.0</ele><time>2026-05-01T12:57:44Z</time></trkpt><trkpt lat="45.80840450684248" lon="11.471893984777482"><ele>1320.5</ele><time>2026-05-01T12:57:46Z</time></trkpt><trkpt lat="45.80847389620653" lon="11.471811236374364"><ele>1320.0</ele><time>2026-05-01T12:57:49Z</time></trkpt><trkpt lat="45.808524195962654" lon="11.471729921937039"><ele>1319.5</ele><time>2026-05-01T12:57:51Z</time></trkpt><trkpt lat="45.808571409809154" lon="11.471664329408185"><ele>1319.0</ele><time>2026-05-01T12:57:53Z</time></trkpt><trkpt lat="45.808637143783386" lon="11.471564021825502"><ele>1319.0</ele><time>2026-05-01T12:57:56Z</time></trkpt><trkpt lat="45.80868623886115" lon="11.47150054356248"><ele>1319.0</ele><time>2026-05-01T12:58:00Z</time></trkpt><trkpt lat="45.80874716602883" lon="11.471432606419713"><ele>1319.0</ele><time>2026-05-01T12:58:03Z</time></trkpt><trkpt lat="45.80881549596812" lon="11.471367114875822"><ele>1319.0</ele><time>2026-05-01T12:58:06Z</time></trkpt><trkpt lat="45.8088842485615" lon="11.471301274615312"><ele>1319.0</ele><time>2026-05-01T12:58:10Z</time></trkpt><trkpt lat="45.80896694002391" lon="11.471260172486373"><ele>1319.0</ele><time>2026-05-01T12:58:15Z</time></trkpt><trkpt lat="45.80904184253772" lon="11.471216004884218"><ele>1317.8000000000002</ele><time>2026-05-01T12:58:18Z</time></trkpt><trkpt lat="45.809113951710536" lon="11.471144747072712"><ele>1316.6000000000001</ele><time>2026-05-01T12:58:21Z</time></trkpt><trkpt lat="45.809196780217924" lon="11.471082581607192"><ele>1315.4</ele><time>2026-05-01T12:58:24Z</time></trkpt><trkpt lat="45.80926681353109" lon="11.471011829307397"><ele>1314.2</ele><time>2026-05-01T12:58:26Z</time></trkpt><trkpt lat="45.80934026273338" lon="11.470947838374826"><ele>1313.0</ele><time>2026-05-01T12:58:28Z</time></trkpt><trkpt lat="45.80961427554466" lon="11.47055893895971"><ele>1307.2</ele><time>2026-05-01T12:58:31Z</time></trkpt><trkpt lat="45.80975790728701" lon="11.470325202909896"><ele>1301.4</ele><time>2026-05-01T12:58:33Z</time></trkpt><trkpt lat="45.809826957103795" lon="11.470247464804842"><ele>1295.6000000000001</ele><time>2026-05-01T12:58:35Z</time></trkpt><trkpt lat="45.80988462203507" lon="11.47019195072779"><ele>1289.8000000000002</ele><time>2026-05-01T12:58:37Z</time></trkpt><trkpt lat="45.80993394618485" lon="11.470111160903103"><ele>1284.0</ele><time>2026-05-01T12:59:03Z</time></trkpt><trkpt lat="45.81003232281941" lon="11.470019594932607"><ele>1284.0</ele><time>2026-05-01T12:59:06Z</time></trkpt><trkpt lat="45.81011000055798" lon="11.469932461884351"><ele>1284.0</ele><time>2026-05-01T12:59:08Z</time></trkpt><trkpt lat="45.81018643424124" lon="11.469863652599077"><ele>1284.0</ele><time>2026-05-01T12:59:11Z</time></trkpt><trkpt lat="45.81022858533381" lon="11.46979050807485"><ele>1284.0</ele><time>2026-05-01T12:59:14Z</time></trkpt><trkpt lat="45.810290898430104" lon="11.469771652177348"><ele>1284.0</ele><time>2026-05-01T12:59:16Z</time></trkpt><trkpt lat="45.810344994268945" lon="11.469724807773058"><ele>1284.0</ele><time>2026-05-01T12:59:19Z</time></trkpt><trkpt lat="45.81041459093167" lon="11.469676245904822"><ele>1282.2</ele><time>2026-05-01T12:59:35Z</time></trkpt><trkpt lat="45.810531400687715" lon="11.469570285581424"><ele>1280.4</ele><time>2026-05-01T12:59:37Z</time></trkpt><trkpt lat="45.81063675215329" lon="11.469484554632933"><ele>1278.6</ele><time>2026-05-01T12:59:38Z</time></trkpt><trkpt lat="45.81071281509868" lon="11.469439181257933"><ele>1276.8</ele><time>2026-05-01T12:59:40Z</time></trkpt><trkpt lat="45.810804133779726" lon="11.469370552954722"><ele>1275.0</ele><time>2026-05-01T12:59:42Z</time></trkpt><trkpt lat="45.81089091439508" lon="11.469314666138414"><ele>1275.0</ele><time>2026-05-01T12:59:44Z</time></trkpt><trkpt lat="45.81097292911739" lon="11.4692691919991"><ele>1275.0</ele><time>2026-05-01T12:59:46Z</time></trkpt><trkpt lat="45.81106370754694" lon="11.469226672355052"><ele>1275.0</ele><time>2026-05-01T12:59:48Z</time></trkpt><trkpt lat="45.8111354138276" lon="11.469188604227115"><ele>1275.0</ele><time>2026-05-01T12:59:50Z</time></trkpt><trkpt lat="45.81121824562531" lon="11.46917838405669"><ele>1275.0</ele><time>2026-05-01T12:59:57Z</time></trkpt><trkpt lat="45.811346573755735" lon="11.469150005128547"><ele>1275.3333333333333</ele><time>2026-05-01T13:00:04Z</time></trkpt><trkpt lat="45.811431772731645" lon="11.46913969606113"><ele>1275.6666666666667</ele><time>2026-05-01T13:00:06Z</time></trkpt><trkpt lat="45.811524465757856" lon="11.46913228000579"><ele>1276.0</ele><time>2026-05-01T13:00:10Z</time></trkpt><trkpt lat="45.81160766879713" lon="11.469114786856261"><ele>1276.3333333333335</ele><time>2026-05-01T13:00:12Z</time></trkpt><trkpt lat="45.81170225384509" lon="11.469112863816857"><ele>1276.6666666666667</ele><time>2026-05-01T13:00:14Z</time></trkpt><trkpt lat="45.81177614139311" lon="11.469113714402761"><ele>1277.0</ele><time>2026-05-01T13:00:16Z</time></trkpt><trkpt lat="45.81182973053697" lon="11.469022173921305"><ele>1277.0</ele><time>2026-05-01T13:00:18Z</time></trkpt><trkpt lat="45.81183917052809" lon="11.469116194545517"><ele>1277.0</ele><time>2026-05-01T13:00:19Z</time></trkpt><trkpt lat="45.81191881701305" lon="11.469126200360117"><ele>1277.0</ele><time>2026-05-01T13:00:22Z</time></trkpt><trkpt lat="45.81198940230029" lon="11.469145230502441"><ele>1277.0</ele><time>2026-05-01T13:00:24Z</time></trkpt><trkpt lat="45.81191454114956" lon="11.469138575352979"><ele>1277.0</ele><time>2026-05-01T13:00:26Z</time></trkpt><trkpt lat="45.81201584405679" lon="11.469152649774273"><ele>1277.0</ele><time>2026-05-01T13:00:48Z</time></trkpt><trkpt lat="45.81208332822013" lon="11.469164550243558"><ele>1277.0</ele><time>2026-05-01T13:00:51Z</time></trkpt><trkpt lat="45.812153277346695" lon="11.469178458274353"><ele>1277.0</ele><time>2026-05-01T13:00:54Z</time></trkpt><trkpt lat="45.81221757425907" lon="11.46917875217474"><ele>1277.0</ele><time>2026-05-01T13:00:58Z</time></trkpt><trkpt lat="45.81228511178113" lon="11.469193796548039"><ele>1277.0</ele><time>2026-05-01T13:01:05Z</time></trkpt><trkpt lat="45.81237775133207" lon="11.469214808216815"><ele>1277.0</ele><time>2026-05-01T13:01:07Z</time></trkpt><trkpt lat="45.81238672632083" lon="11.46909429377392"><ele>1277.0</ele><time>2026-05-01T13:01:11Z</time></trkpt><trkpt lat="45.81236879591878" lon="11.468985101096896"><ele>1277.0</ele><time>2026-05-01T13:01:13Z</time></trkpt><trkpt lat="45.8123889110112" lon="11.46885376897896"><ele>1277.0</ele><time>2026-05-01T13:01:15Z</time></trkpt><trkpt lat="45.812414960561725" lon="11.468743050233076"><ele>1277.0</ele><time>2026-05-01T13:01:16Z</time></trkpt><trkpt lat="45.81246636499021" lon="11.46868441370045"><ele>1277.0</ele><time>2026-05-01T13:01:18Z</time></trkpt><trkpt lat="45.8125071365312" lon="11.468562927349733"><ele>1277.0</ele><time>2026-05-01T13:01:21Z</time></trkpt><trkpt lat="45.81243815232121" lon="11.468464337759844"><ele>1277.0</ele><time>2026-05-01T13:01:24Z</time></trkpt><trkpt lat="45.812377551967366" lon="11.46840430220556"><ele>1275.8333333333335</ele><time>2026-05-01T13:01:26Z</time></trkpt><trkpt lat="45.81231369553396" lon="11.468312883615562"><ele>1274.6666666666667</ele><time>2026-05-01T13:01:28Z</time></trkpt><trkpt lat="45.81226502571151" lon="11.468205113154069"><ele>1273.5</ele><time>2026-05-01T13:01:30Z</time></trkpt><trkpt lat="45.812207054991624" lon="11.468115901888055"><ele>1272.3333333333333</ele><time>2026-05-01T13:01:32Z</time></trkpt><trkpt lat="45.81217318873424" lon="11.468021596764613"><ele>1271.1666666666665</ele><time>2026-05-01T13:01:35Z</time></trkpt><trkpt lat="45.812182215146294" lon="11.467908974874772"><ele>1270.0</ele><time>2026-05-01T13:01:52Z</time></trkpt><trkpt lat="45.81211956904038" lon="11.46777139781939"><ele>1269.0</ele><time>2026-05-01T13:01:54Z</time></trkpt><trkpt lat="45.81207382734148" lon="11.467626321552371"><ele>1268.0</ele><time>2026-05-01T13:01:56Z</time></trkpt><trkpt lat="45.81204252900017" lon="11.467510808303958"><ele>1267.0</ele><time>2026-05-01T13:01:58Z</time></trkpt><trkpt lat="45.81201542385162" lon="11.467407922338937"><ele>1266.0</ele><time>2026-05-01T13:02:00Z</time></trkpt><trkpt lat="45.81198480822905" lon="11.467319375989131"><ele>1265.0</ele><time>2026-05-01T13:02:02Z</time></trkpt><trkpt lat="45.81195040414706" lon="11.467233351600429"><ele>1264.0</ele><time>2026-05-01T13:02:03Z</time></trkpt><trkpt lat="45.81189667213847" lon="11.467170269128209"><ele>1262.5</ele><time>2026-05-01T13:02:05Z</time></trkpt><trkpt lat="45.81184946760131" lon="11.467067592262342"><ele>1261.0</ele><time>2026-05-01T13:02:07Z</time></trkpt><trkpt lat="45.81179386689262" lon="11.46698604821106"><ele>1259.5</ele><time>2026-05-01T13:02:09Z</time></trkpt><trkpt lat="45.81173570716389" lon="11.466925043305084"><ele>1258.0</ele><time>2026-05-01T13:02:11Z</time></trkpt><trkpt lat="45.811667281179595" lon="11.466870394092096"><ele>1256.5</ele><time>2026-05-01T13:02:13Z</time></trkpt><trkpt lat="45.81158191029129" lon="11.466876973095626"><ele>1255.0</ele><time>2026-05-01T13:02:15Z</time></trkpt><trkpt lat="45.8114907683767" lon="11.466916775542963"><ele>1254.6666666666665</ele><time>2026-05-01T13:02:17Z</time></trkpt><trkpt lat="45.81142926082146" lon="11.466938168436808"><ele>1254.3333333333333</ele><time>2026-05-01T13:02:18Z</time></trkpt><trkpt lat="45.81137190290873" lon="11.466890386630592"><ele>1254.0</ele><time>2026-05-01T13:02:20Z</time></trkpt><trkpt lat="45.811377748569384" lon="11.466745723692888"><ele>1253.6666666666667</ele><time>2026-05-01T13:02:23Z</time></trkpt><trkpt lat="45.811361527043424" lon="11.466604648902116"><ele>1253.3333333333335</ele><time>2026-05-01T13:02:25Z</time></trkpt><trkpt lat="45.81132676136177" lon="11.46648387395064"><ele>1253.0</ele><time>2026-05-01T13:02:27Z</time></trkpt><trkpt lat="45.81125858103786" lon="11.466389620012997"><ele>1253.0</ele><time>2026-05-01T13:02:29Z</time></trkpt><trkpt lat="45.811208550634646" lon="11.466321510113032"><ele>1253.0</ele><time>2026-05-01T13:02:31Z</time></trkpt><trkpt lat="45.81113332974123" lon="11.466185309495831"><ele>1253.0</ele><time>2026-05-01T13:02:33Z</time></trkpt><trkpt lat="45.81108631250575" lon="11.466097708926652"><ele>1253.0</ele><time>2026-05-01T13:02:34Z</time></trkpt><trkpt lat="45.81104402827683" lon="11.466012929143407"><ele>1253.0</ele><time>2026-05-01T13:02:35Z</time></trkpt><trkpt lat="45.81096385589987" lon="11.465901389867078"><ele>1252.25</ele><time>2026-05-01T13:02:37Z</time></trkpt><trkpt lat="45.810888474033305" lon="11.465810342090762"><ele>1251.5</ele><time>2026-05-01T13:02:39Z</time></trkpt><trkpt lat="45.810824991653845" lon="11.465676213018316"><ele>1250.75</ele><time>2026-05-01T13:02:41Z</time></trkpt><trkpt lat="45.81077726680431" lon="11.465517048337345"><ele>1250.0</ele><time>2026-05-01T13:02:43Z</time></trkpt><trkpt lat="45.81073798365661" lon="11.465356806938965"><ele>1251.6666666666667</ele><time>2026-05-01T13:02:45Z</time></trkpt><trkpt lat="45.810713778445965" lon="11.46527144915413"><ele>1253.3333333333335</ele><time>2026-05-01T13:02:46Z</time></trkpt><trkpt lat="45.810685360493764" lon="11.465187683362638"><ele>1255.0</ele><time>2026-05-01T13:02:47Z</time></trkpt><trkpt lat="45.810661784563365" lon="11.465101049404716"><ele>1256.6666666666667</ele><time>2026-05-01T13:02:48Z</time></trkpt><trkpt lat="45.81063823335324" lon="11.464996541868885"><ele>1258.3333333333333</ele><time>2026-05-01T13:02:49Z</time></trkpt><trkpt lat="45.81058916051961" lon="11.464842593475366"><ele>1260.0</ele><time>2026-05-01T13:02:51Z</time></trkpt><trkpt lat="45.8105527653121" lon="11.464751540442606"><ele>1260.0</ele><time>2026-05-01T13:02:52Z</time></trkpt><trkpt lat="45.81052686402821" lon="11.464652773561387"><ele>1260.0</ele><time>2026-05-01T13:02:53Z</time></trkpt><trkpt lat="45.81050282965936" lon="11.464551329573643"><ele>1260.0</ele><time>2026-05-01T13:02:54Z</time></trkpt><trkpt lat="45.81048185505568" lon="11.464444559335835"><ele>1260.0</ele><time>2026-05-01T13:02:55Z</time></trkpt><trkpt lat="45.81045426767407" lon="11.46434163636576"><ele>1260.0</ele><time>2026-05-01T13:02:56Z</time></trkpt><trkpt lat="45.81042859399642" lon="11.464244045529052"><ele>1260.0</ele><time>2026-05-01T13:02:57Z</time></trkpt><trkpt lat="45.8104002280062" lon="11.464151469246092"><ele>1260.0</ele><time>2026-05-01T13:02:58Z</time></trkpt><trkpt lat="45.810366244748835" lon="11.464056595770243"><ele>1259.6666666666667</ele><time>2026-05-01T13:02:59Z</time></trkpt><trkpt lat="45.81032659077925" lon="11.463963380605154"><ele>1259.3333333333333</ele><time>2026-05-01T13:03:00Z</time></trkpt><trkpt lat="45.81028587091292" lon="11.463870893689897"><ele>1259.0</ele><time>2026-05-01T13:03:01Z</time></trkpt><trkpt lat="45.81024654332781" lon="11.463782368343406"><ele>1258.6666666666665</ele><time>2026-05-01T13:03:02Z</time></trkpt><trkpt lat="45.81020586497278" lon="11.463690222120958"><ele>1258.3333333333333</ele><time>2026-05-01T13:03:03Z</time></trkpt><trkpt lat="45.810169735120596" lon="11.463593067902755"><ele>1258.0</ele><time>2026-05-01T13:03:04Z</time></trkpt><trkpt lat="45.81013630667211" lon="11.463494346679852"><ele>1258.0</ele><time>2026-05-01T13:03:05Z</time></trkpt><trkpt lat="45.810105512088015" lon="11.463388846751036"><ele>1258.0</ele><time>2026-05-01T13:03:06Z</time></trkpt><trkpt lat="45.81007419163751" lon="11.463280768464141"><ele>1258.0</ele><time>2026-05-01T13:03:07Z</time></trkpt><trkpt lat="45.81005004769132" lon="11.463168873109666"><ele>1258.0</ele><time>2026-05-01T13:03:08Z</time></trkpt><trkpt lat="45.81003026820197" lon="11.46305372497489"><ele>1258.0</ele><time>2026-05-01T13:03:09Z</time></trkpt><trkpt lat="45.810012464965354" lon="11.462940067908477"><ele>1258.0</ele><time>2026-05-01T13:03:10Z</time></trkpt><trkpt lat="45.80999561715162" lon="11.462831935321706"><ele>1259.5</ele><time>2026-05-01T13:03:11Z</time></trkpt><trkpt lat="45.80997537549953" lon="11.46272726716896"><ele>1261.0</ele><time>2026-05-01T13:03:12Z</time></trkpt><trkpt lat="45.80995220253686" lon="11.46262292704725"><ele>1262.5</ele><time>2026-05-01T13:03:13Z</time></trkpt><trkpt lat="45.80993087984303" lon="11.462515535385103"><ele>1264.0</ele><time>2026-05-01T13:03:14Z</time></trkpt><trkpt lat="45.80990997543642" lon="11.462410943749239"><ele>1265.5</ele><time>2026-05-01T13:03:15Z</time></trkpt><trkpt lat="45.80988439046273" lon="11.46230098874979"><ele>1267.0</ele><time>2026-05-01T13:03:16Z</time></trkpt><trkpt lat="45.809857588290534" lon="11.462190028473259"><ele>1268.5</ele><time>2026-05-01T13:03:17Z</time></trkpt><trkpt lat="45.80983268532022" lon="11.462081400919395"><ele>1270.0</ele><time>2026-05-01T13:03:18Z</time></trkpt><trkpt lat="45.80979325166279" lon="11.461976743856455"><ele>1271.5</ele><time>2026-05-01T13:03:19Z</time></trkpt><trkpt lat="45.8097535582925" lon="11.461882189501267"><ele>1273.0</ele><time>2026-05-01T13:03:20Z</time></trkpt><trkpt lat="45.80970756452856" lon="11.4617923222683"><ele>1274.5</ele><time>2026-05-01T13:03:21Z</time></trkpt><trkpt lat="45.80966004983444" lon="11.46170399113343"><ele>1276.0</ele><time>2026-05-01T13:03:22Z</time></trkpt><trkpt lat="45.80961043491999" lon="11.461624291778103"><ele>1276.0</ele><time>2026-05-01T13:03:23Z</time></trkpt><trkpt lat="45.80956479390352" lon="11.461535731411571"><ele>1276.0</ele><time>2026-05-01T13:03:24Z</time></trkpt><trkpt lat="45.80951749262817" lon="11.461451806839749"><ele>1276.0</ele><time>2026-05-01T13:03:25Z</time></trkpt><trkpt lat="45.80946876040834" lon="11.461374314285745"><ele>1276.0</ele><time>2026-05-01T13:03:26Z</time></trkpt><trkpt lat="45.809421495214394" lon="11.461300958092869"><ele>1276.0</ele><time>2026-05-01T13:03:27Z</time></trkpt><trkpt lat="45.80934936429986" lon="11.461172436019414"><ele>1276.0</ele><time>2026-05-01T13:03:29Z</time></trkpt><trkpt lat="45.809272681394226" lon="11.461023394073765"><ele>1273.8333333333333</ele><time>2026-05-01T13:03:31Z</time></trkpt><trkpt lat="45.80924496087855" lon="11.460919596623253"><ele>1271.6666666666665</ele><time>2026-05-01T13:03:32Z</time></trkpt><trkpt lat="45.80922871613165" lon="11.46080218958449"><ele>1269.5</ele><time>2026-05-01T13:03:33Z</time></trkpt><trkpt lat="45.80921457686961" lon="11.460675462467488"><ele>1267.3333333333333</ele><time>2026-05-01T13:03:34Z</time></trkpt><trkpt lat="45.80920523013766" lon="11.460542381287826"><ele>1265.1666666666667</ele><time>2026-05-01T13:03:35Z</time></trkpt><trkpt lat="45.80919730741396" lon="11.46040803361884"><ele>1263.0</ele><time>2026-05-01T13:03:36Z</time></trkpt><trkpt lat="45.80918548879759" lon="11.460273273272213"><ele>1263.0</ele><time>2026-05-01T13:03:37Z</time></trkpt><trkpt lat="45.80917058780041" lon="11.46014217223074"><ele>1263.0</ele><time>2026-05-01T13:03:38Z</time></trkpt><trkpt lat="45.809153743981064" lon="11.46001528872216"><ele>1263.0</ele><time>2026-05-01T13:03:39Z</time></trkpt><trkpt lat="45.80913255293898" lon="11.459896691814226"><ele>1263.0</ele><time>2026-05-01T13:03:40Z</time></trkpt><trkpt lat="45.80911224879189" lon="11.459781569638508"><ele>1263.0</ele><time>2026-05-01T13:03:41Z</time></trkpt><trkpt lat="45.80908732613948" lon="11.45967199109402"><ele>1263.0</ele><time>2026-05-01T13:03:42Z</time></trkpt><trkpt lat="45.80906650617478" lon="11.459556026703565"><ele>1264.0</ele><time>2026-05-01T13:03:43Z</time></trkpt><trkpt lat="45.80904624434507" lon="11.459444231096022"><ele>1265.0</ele><time>2026-05-01T13:03:44Z</time></trkpt><trkpt lat="45.80903301160005" lon="11.459328329627263"><ele>1266.0</ele><time>2026-05-01T13:03:45Z</time></trkpt><trkpt lat="45.809013706554936" lon="11.45921011757683"><ele>1267.0</ele><time>2026-05-01T13:03:46Z</time></trkpt><trkpt lat="45.808998810517565" lon="11.45908836397417"><ele>1268.0</ele><time>2026-05-01T13:03:47Z</time></trkpt><trkpt lat="45.80898864812167" lon="11.458965552622713"><ele>1269.0</ele><time>2026-05-01T13:03:48Z</time></trkpt><trkpt lat="45.808984031167284" lon="11.458844305137037"><ele>1269.6666666666667</ele><time>2026-05-01T13:03:49Z</time></trkpt><trkpt lat="45.808980936528336" lon="11.458723318287914"><ele>1270.3333333333333</ele><time>2026-05-01T13:03:50Z</time></trkpt><trkpt lat="45.80897399069422" lon="11.458604786912252"><ele>1271.0</ele><time>2026-05-01T13:03:51Z</time></trkpt><trkpt lat="45.808967048151224" lon="11.45849684933904"><ele>1271.6666666666665</ele><time>2026-05-01T13:03:52Z</time></trkpt><trkpt lat="45.80895939014222" lon="11.458398420568935"><ele>1272.3333333333333</ele><time>2026-05-01T13:03:53Z</time></trkpt><trkpt lat="45.8089657795969" lon="11.458291688229037"><ele>1273.0</ele><time>2026-05-01T13:03:54Z</time></trkpt><trkpt lat="45.80896688254939" lon="11.458192435686005"><ele>1273.0</ele><time>2026-05-01T13:03:55Z</time></trkpt><trkpt lat="45.80895802241651" lon="11.45807445660683"><ele>1273.0</ele><time>2026-05-01T13:03:56Z</time></trkpt><trkpt lat="45.808940627199355" lon="11.457942861624975"><ele>1273.0</ele><time>2026-05-01T13:03:57Z</time></trkpt><trkpt lat="45.808926818669235" lon="11.457815620148134"><ele>1273.0</ele><time>2026-05-01T13:03:58Z</time></trkpt><trkpt lat="45.80891460957495" lon="11.457691590296868"><ele>1273.0</ele><time>2026-05-01T13:03:59Z</time></trkpt><trkpt lat="45.808900751567236" lon="11.457561611818294"><ele>1273.0</ele><time>2026-05-01T13:04:00Z</time></trkpt><trkpt lat="45.80888960687033" lon="11.45743065410396"><ele>1273.3333333333333</ele><time>2026-05-01T13:04:01Z</time></trkpt><trkpt lat="45.80888558922341" lon="11.457305491881549"><ele>1273.6666666666665</ele><time>2026-05-01T13:04:02Z</time></trkpt><trkpt lat="45.80888279893781" lon="11.45718376338248"><ele>1274.0</ele><time>2026-05-01T13:04:03Z</time></trkpt><trkpt lat="45.8088772525116" lon="11.4570661859338"><ele>1274.3333333333333</ele><time>2026-05-01T13:04:04Z</time></trkpt><trkpt lat="45.80886915498651" lon="11.45695202441948"><ele>1274.6666666666667</ele><time>2026-05-01T13:04:05Z</time></trkpt><trkpt lat="45.808864232989166" lon="11.456836622054674"><ele>1275.0</ele><time>2026-05-01T13:04:06Z</time></trkpt><trkpt lat="45.808857119859965" lon="11.456722345453029"><ele>1275.5714285714287</ele><time>2026-05-01T13:04:07Z</time></trkpt><trkpt lat="45.8088436122828" lon="11.45660821673372"><ele>1276.142857142857</ele><time>2026-05-01T13:04:08Z</time></trkpt><trkpt lat="45.80883762074932" lon="11.456495576262526"><ele>1276.7142857142858</ele><time>2026-05-01T13:04:09Z</time></trkpt><trkpt lat="45.80884007042627" lon="11.456393324557483"><ele>1277.2857142857142</ele><time>2026-05-01T13:04:10Z</time></trkpt><trkpt lat="45.808840539056206" lon="11.456298638781327"><ele>1277.857142857143</ele><time>2026-05-01T13:04:11Z</time></trkpt><trkpt lat="45.808838028231165" lon="11.456203183450551"><ele>1278.4285714285713</ele><time>2026-05-01T13:04:12Z</time></trkpt><trkpt lat="45.80883555004666" lon="11.456106415396972"><ele>1279.0</ele><time>2026-05-01T13:04:13Z</time></trkpt><trkpt lat="45.80882876613745" lon="11.456001414029776"><ele>1279.5</ele><time>2026-05-01T13:04:14Z</time></trkpt><trkpt lat="45.808822627991816" lon="11.45589328427713"><ele>1280.0</ele><time>2026-05-01T13:04:15Z</time></trkpt><trkpt lat="45.80881099935029" lon="11.455783069799784"><ele>1280.5</ele><time>2026-05-01T13:04:16Z</time></trkpt><trkpt lat="45.80879611124194" lon="11.45567697589756"><ele>1281.0</ele><time>2026-05-01T13:04:17Z</time></trkpt><trkpt lat="45.80877703992802" lon="11.455577869434578"><ele>1281.5</ele><time>2026-05-01T13:04:18Z</time></trkpt><trkpt lat="45.80875528683583" lon="11.455486303605404"><ele>1282.0</ele><time>2026-05-01T13:04:19Z</time></trkpt><trkpt lat="45.80871294670666" lon="11.455326501409344"><ele>1282.6666666666665</ele><time>2026-05-01T13:04:21Z</time></trkpt><trkpt lat="45.80867509449889" lon="11.455177110836015"><ele>1283.3333333333333</ele><time>2026-05-01T13:04:23Z</time></trkpt><trkpt lat="45.80862802061071" lon="11.455009666189252"><ele>1284.0</ele><time>2026-05-01T13:04:25Z</time></trkpt><trkpt lat="45.80859843516893" lon="11.454923968457905"><ele>1284.6666666666667</ele><time>2026-05-01T13:04:26Z</time></trkpt><trkpt lat="45.80856484119053" lon="11.454836957803597"><ele>1285.3333333333335</ele><time>2026-05-01T13:04:27Z</time></trkpt><trkpt lat="45.80852610975289" lon="11.454755539162605"><ele>1286.0</ele><time>2026-05-01T13:04:28Z</time></trkpt><trkpt lat="45.80848160256154" lon="11.454688348261229"><ele>1283.3333333333335</ele><time>2026-05-01T13:04:29Z</time></trkpt><trkpt lat="45.80844395904496" lon="11.454606966227404"><ele>1280.6666666666667</ele><time>2026-05-01T13:04:30Z</time></trkpt><trkpt lat="45.80840441800026" lon="11.454504441883646"><ele>1278.0</ele><time>2026-05-01T13:04:31Z</time></trkpt><trkpt lat="45.808377350712924" lon="11.454407887643919"><ele>1275.3333333333333</ele><time>2026-05-01T13:04:32Z</time></trkpt><trkpt lat="45.80835335129616" lon="11.454305853444929"><ele>1272.6666666666665</ele><time>2026-05-01T13:04:33Z</time></trkpt><trkpt lat="45.80832860132105" lon="11.454205456325345"><ele>1270.0</ele><time>2026-05-01T13:04:34Z</time></trkpt><trkpt lat="45.80827764252928" lon="11.454072162064753"><ele>1270.0</ele><time>2026-05-01T13:04:35Z</time></trkpt><trkpt lat="45.80826245613922" lon="11.453975625604844"><ele>1270.0</ele><time>2026-05-01T13:04:36Z</time></trkpt><trkpt lat="45.808268131529516" lon="11.453862013214309"><ele>1270.0</ele><time>2026-05-01T13:04:37Z</time></trkpt><trkpt lat="45.808293095693244" lon="11.453772617016979"><ele>1270.0</ele><time>2026-05-01T13:04:38Z</time></trkpt><trkpt lat="45.80835025965434" lon="11.45360461828444"><ele>1270.0</ele><time>2026-05-01T13:04:40Z</time></trkpt><trkpt lat="45.80834275434151" lon="11.453493450887613"><ele>1270.0</ele><time>2026-05-01T13:04:41Z</time></trkpt><trkpt lat="45.80829023542859" lon="11.453410502403406"><ele>1272.6666666666665</ele><time>2026-05-01T13:04:42Z</time></trkpt><trkpt lat="45.808225016952164" lon="11.453371052570864"><ele>1275.3333333333333</ele><time>2026-05-01T13:04:43Z</time></trkpt><trkpt lat="45.80814388343098" lon="11.453330167900445"><ele>1278.0</ele><time>2026-05-01T13:04:44Z</time></trkpt><trkpt lat="45.80807703254014" lon="11.453270419665657"><ele>1280.6666666666667</ele><time>2026-05-01T13:04:45Z</time></trkpt><trkpt lat="45.80800579663568" lon="11.453221938526227"><ele>1283.3333333333335</ele><time>2026-05-01T13:04:46Z</time></trkpt><trkpt lat="45.80791529842389" lon="11.453175170186768"><ele>1286.0</ele><time>2026-05-01T13:04:47Z</time></trkpt><trkpt lat="45.80781148034679" lon="11.45313844372133"><ele>1286.0</ele><time>2026-05-01T13:04:48Z</time></trkpt><trkpt lat="45.80768062134972" lon="11.453091556748621"><ele>1286.0</ele><time>2026-05-01T13:04:49Z</time></trkpt><trkpt lat="45.80755633370892" lon="11.453065112754565"><ele>1286.0</ele><time>2026-05-01T13:04:50Z</time></trkpt><trkpt lat="45.807453800999575" lon="11.453066809699216"><ele>1286.0</ele><time>2026-05-01T13:04:51Z</time></trkpt><trkpt lat="45.80737100092938" lon="11.453081972314855"><ele>1286.0</ele><time>2026-05-01T13:04:52Z</time></trkpt><trkpt lat="45.80744062341673" lon="11.453037226587996"><ele>1286.0</ele><time>2026-05-01T13:04:57Z</time></trkpt><trkpt lat="45.807543045129734" lon="11.453038481698588"><ele>1286.0</ele><time>2026-05-01T13:04:59Z</time></trkpt><trkpt lat="45.807627655601195" lon="11.453023970375822"><ele>1286.0</ele><time>2026-05-01T13:05:01Z</time></trkpt><trkpt lat="45.807691504486215" lon="11.45299952145417"><ele>1286.0</ele><time>2026-05-01T13:05:02Z</time></trkpt><trkpt lat="45.80776565370974" lon="11.452973871884797"><ele>1286.0</ele><time>2026-05-01T13:05:03Z</time></trkpt><trkpt lat="45.807853358109234" lon="11.452959575692436"><ele>1286.0</ele><time>2026-05-01T13:05:04Z</time></trkpt><trkpt lat="45.807933230345625" lon="11.452935417778427"><ele>1289.7142857142856</ele><time>2026-05-01T13:05:05Z</time></trkpt><trkpt lat="45.80800843040165" lon="11.45292935446739"><ele>1293.4285714285716</ele><time>2026-05-01T13:05:06Z</time></trkpt><trkpt lat="45.80808184663987" lon="11.452932937396662"><ele>1297.142857142857</ele><time>2026-05-01T13:05:07Z</time></trkpt><trkpt lat="45.808152846802926" lon="11.452909879539245"><ele>1300.8571428571427</ele><time>2026-05-01T13:05:08Z</time></trkpt><trkpt lat="45.808224348187686" lon="11.452892888319214"><ele>1304.5714285714284</ele><time>2026-05-01T13:05:09Z</time></trkpt><trkpt lat="45.80829496058996" lon="11.452873638973676"><ele>1308.2857142857142</ele><time>2026-05-01T13:05:10Z</time></trkpt><trkpt lat="45.8083624411546" lon="11.452852699463778"><ele>1312.0</ele><time>2026-05-01T13:05:11Z</time></trkpt><trkpt lat="45.80844106169797" lon="11.452834647935672"><ele>1312.1999999999998</ele><time>2026-05-01T13:05:12Z</time></trkpt><trkpt lat="45.80855004280499" lon="11.452802306750918"><ele>1312.4</ele><time>2026-05-01T13:05:13Z</time></trkpt><trkpt lat="45.808671923162116" lon="11.452782804392124"><ele>1312.6</ele><time>2026-05-01T13:05:14Z</time></trkpt><trkpt lat="45.808773553154666" lon="11.45276843751138"><ele>1312.8000000000002</ele><time>2026-05-01T13:05:15Z</time></trkpt><trkpt lat="45.80888127402935" lon="11.452800306034462"><ele>1313.0</ele><time>2026-05-01T13:05:16Z</time></trkpt><trkpt lat="45.80897420287402" lon="11.452797327382177"><ele>1313.0</ele><time>2026-05-01T13:05:17Z</time></trkpt><trkpt lat="45.80907472334861" lon="11.452805407891502"><ele>1313.0</ele><time>2026-05-01T13:05:18Z</time></trkpt><trkpt lat="45.80915895953062" lon="11.452843440109827"><ele>1313.0</ele><time>2026-05-01T13:05:19Z</time></trkpt><trkpt lat="45.809230704843145" lon="11.452902523036359"><ele>1313.0</ele><time>2026-05-01T13:05:20Z</time></trkpt><trkpt lat="45.809299258937635" lon="11.452966889247454"><ele>1313.0</ele><time>2026-05-01T13:05:21Z</time></trkpt><trkpt lat="45.80935491357647" lon="11.453041037425846"><ele>1313.0</ele><time>2026-05-01T13:05:22Z</time></trkpt><trkpt lat="45.809424882707255" lon="11.45309804928843"><ele>1312.5</ele><time>2026-05-01T13:05:23Z</time></trkpt><trkpt lat="45.809515754334065" lon="11.453130131061315"><ele>1312.0</ele><time>2026-05-01T13:05:24Z</time></trkpt><trkpt lat="45.809600637723015" lon="11.453145432502989"><ele>1311.5</ele><time>2026-05-01T13:05:25Z</time></trkpt><trkpt lat="45.80966686440115" lon="11.453164003276957"><ele>1311.0</ele><time>2026-05-01T13:05:26Z</time></trkpt><trkpt lat="45.80972653271634" lon="11.453201436621784"><ele>1310.5</ele><time>2026-05-01T13:05:29Z</time></trkpt><trkpt lat="45.80977395471689" lon="11.45311104288707"><ele>1310.0</ele><time>2026-05-01T13:05:31Z</time></trkpt><trkpt lat="45.809784697795386" lon="11.452972740692585"><ele>1309.1666666666667</ele><time>2026-05-01T13:05:33Z</time></trkpt><trkpt lat="45.80980079869064" lon="11.45281382366939"><ele>1308.3333333333335</ele><time>2026-05-01T13:05:35Z</time></trkpt><trkpt lat="45.80979983145604" lon="11.452721970157574"><ele>1307.5</ele><time>2026-05-01T13:05:36Z</time></trkpt><trkpt lat="45.80977577247541" lon="11.452628795239738"><ele>1306.6666666666667</ele><time>2026-05-01T13:05:37Z</time></trkpt><trkpt lat="45.80974685449817" lon="11.452527521757368"><ele>1305.8333333333333</ele><time>2026-05-01T13:05:38Z</time></trkpt><trkpt lat="45.8097108575878" lon="11.452420171652465"><ele>1305.0</ele><time>2026-05-01T13:05:39Z</time></trkpt><trkpt lat="45.80968764907921" lon="11.452321211202497"><ele>1305.0</ele><time>2026-05-01T13:05:40Z</time></trkpt><trkpt lat="45.809666756394506" lon="11.452205361898116"><ele>1305.0</ele><time>2026-05-01T13:05:41Z</time></trkpt><trkpt lat="45.809647694897066" lon="11.452097917236774"><ele>1305.0</ele><time>2026-05-01T13:05:42Z</time></trkpt><trkpt lat="45.809643858930706" lon="11.451995214451795"><ele>1305.0</ele><time>2026-05-01T13:05:43Z</time></trkpt><trkpt lat="45.80965831930345" lon="11.451890904068776"><ele>1305.0</ele><time>2026-05-01T13:05:44Z</time></trkpt><trkpt lat="45.80969798742311" lon="11.45173128434398"><ele>1305.0</ele><time>2026-05-01T13:05:46Z</time></trkpt><trkpt lat="45.809732249146855" lon="11.451647167420388"><ele>1306.5</ele><time>2026-05-01T13:05:47Z</time></trkpt><trkpt lat="45.809767968378985" lon="11.451560661830651"><ele>1308.0</ele><time>2026-05-01T13:05:48Z</time></trkpt><trkpt lat="45.809811538631365" lon="11.451483240117456"><ele>1309.5</ele><time>2026-05-01T13:05:49Z</time></trkpt><trkpt lat="45.80986219336027" lon="11.451398635757283"><ele>1311.0</ele><time>2026-05-01T13:05:50Z</time></trkpt><trkpt lat="45.809913139237246" lon="11.45131471452451"><ele>1312.5</ele><time>2026-05-01T13:05:51Z</time></trkpt><trkpt lat="45.80996176966516" lon="11.451139390420394"><ele>1314.0</ele><time>2026-05-01T13:05:53Z</time></trkpt><trkpt lat="45.80995110555568" lon="11.450961186885124"><ele>1316.3333333333333</ele><time>2026-05-01T13:05:55Z</time></trkpt><trkpt lat="45.80993245354013" lon="11.450785391704352"><ele>1318.6666666666667</ele><time>2026-05-01T13:05:57Z</time></trkpt><trkpt lat="45.8099224466425" lon="11.450679350434065"><ele>1321.0</ele><time>2026-05-01T13:05:58Z</time></trkpt><trkpt lat="45.809909578835565" lon="11.450573040455616"><ele>1323.3333333333335</ele><time>2026-05-01T13:05:59Z</time></trkpt><trkpt lat="45.80989548495173" lon="11.450462500631177"><ele>1325.6666666666667</ele><time>2026-05-01T13:06:00Z</time></trkpt><trkpt lat="45.80988874354151" lon="11.450369342346258"><ele>1328.0</ele><time>2026-05-01T13:06:01Z</time></trkpt><trkpt lat="45.809904798761394" lon="11.45024735018317"><ele>1328.8333333333335</ele><time>2026-05-01T13:06:02Z</time></trkpt><trkpt lat="45.809909323409755" lon="11.450156224788175"><ele>1329.6666666666667</ele><time>2026-05-01T13:06:03Z</time></trkpt><trkpt lat="45.809909835001505" lon="11.450047026717552"><ele>1330.5</ele><time>2026-05-01T13:06:04Z</time></trkpt><trkpt lat="45.80989988999107" lon="11.449947072226777"><ele>1331.3333333333333</ele><time>2026-05-01T13:06:05Z</time></trkpt><trkpt lat="45.809877927520496" lon="11.449832651935578"><ele>1332.1666666666665</ele><time>2026-05-01T13:06:06Z</time></trkpt><trkpt lat="45.80982442213515" lon="11.44974927788444"><ele>1333.0</ele><time>2026-05-01T13:06:07Z</time></trkpt><trkpt lat="45.80978065707043" lon="11.449652025126873"><ele>1331.4</ele><time>2026-05-01T13:06:08Z</time></trkpt><trkpt lat="45.80973966766474" lon="11.449558384339438"><ele>1329.8000000000002</ele><time>2026-05-01T13:06:09Z</time></trkpt><trkpt lat="45.80969412450117" lon="11.449458028487621"><ele>1328.2</ele><time>2026-05-01T13:06:10Z</time></trkpt><trkpt lat="45.80957930524025" lon="11.44929511006265"><ele>1326.6</ele><time>2026-05-01T13:06:12Z</time></trkpt><trkpt lat="45.80954675811101" lon="11.449213380177897"><ele>1325.0</ele><time>2026-05-01T13:06:13Z</time></trkpt><trkpt lat="45.809508582166494" lon="11.449133594067915"><ele>1325.0</ele><time>2026-05-01T13:06:14Z</time></trkpt><trkpt lat="45.80944914124384" lon="11.449030467531173"><ele>1325.0</ele><time>2026-05-01T13:06:15Z</time></trkpt><trkpt lat="45.80939160235308" lon="11.448954540881005"><ele>1325.0</ele><time>2026-05-01T13:06:16Z</time></trkpt><trkpt lat="45.809330221540726" lon="11.448874904009404"><ele>1325.0</ele><time>2026-05-01T13:06:17Z</time></trkpt><trkpt lat="45.80927041268943" lon="11.44879996682962"><ele>1325.0</ele><time>2026-05-01T13:06:18Z</time></trkpt><trkpt lat="45.80920403934553" lon="11.448744261329457"><ele>1325.0</ele><time>2026-05-01T13:06:19Z</time></trkpt><trkpt lat="45.809148997401394" lon="11.448663501741699"><ele>1326.5</ele><time>2026-05-01T13:06:20Z</time></trkpt><trkpt lat="45.80908830736905" lon="11.448561634871059"><ele>1328.0</ele><time>2026-05-01T13:06:21Z</time></trkpt><trkpt lat="45.80903901620282" lon="11.4484705851744"><ele>1329.5</ele><time>2026-05-01T13:06:22Z</time></trkpt><trkpt lat="45.80898561003908" lon="11.448398539889018"><ele>1331.0</ele><time>2026-05-01T13:06:23Z</time></trkpt><trkpt lat="45.80886556851381" lon="11.448111074702105"><ele>1331.0</ele><time>2026-05-01T13:06:24Z</time></trkpt><trkpt lat="45.80881305775279" lon="11.448018517799264"><ele>1331.0</ele><time>2026-05-01T13:06:25Z</time></trkpt><trkpt lat="45.80875166274281" lon="11.447937990124585"><ele>1331.0</ele><time>2026-05-01T13:06:26Z</time></trkpt><trkpt lat="45.808674239086905" lon="11.447888046991398"><ele>1331.0</ele><time>2026-05-01T13:06:27Z</time></trkpt><trkpt lat="45.80859620091063" lon="11.447854903086613"><ele>1331.0</ele><time>2026-05-01T13:06:28Z</time></trkpt><trkpt lat="45.80852251032821" lon="11.447811497577481"><ele>1331.0</ele><time>2026-05-01T13:06:29Z</time></trkpt><trkpt lat="45.808454931719574" lon="11.44774622335895"><ele>1330.6666666666667</ele><time>2026-05-01T13:06:30Z</time></trkpt><trkpt lat="45.80841574485981" lon="11.447673357224035"><ele>1330.3333333333335</ele><time>2026-05-01T13:06:31Z</time></trkpt><trkpt lat="45.80835262081677" lon="11.447596232461848"><ele>1330.0</ele><time>2026-05-01T13:06:32Z</time></trkpt><trkpt lat="45.808287972627745" lon="11.447521485346883"><ele>1329.6666666666667</ele><time>2026-05-01T13:06:33Z</time></trkpt><trkpt lat="45.80821937623357" lon="11.447458368249663"><ele>1329.3333333333333</ele><time>2026-05-01T13:06:34Z</time></trkpt><trkpt lat="45.80815145772019" lon="11.447393168498198"><ele>1329.0</ele><time>2026-05-01T13:06:35Z</time></trkpt><trkpt lat="45.80811128754635" lon="11.44729240495888"><ele>1329.0</ele><time>2026-05-01T13:06:36Z</time></trkpt><trkpt lat="45.80808046158052" lon="11.447184515053372"><ele>1329.0</ele><time>2026-05-01T13:06:37Z</time></trkpt><trkpt lat="45.80803632330488" lon="11.447091879798919"><ele>1329.0</ele><time>2026-05-01T13:06:38Z</time></trkpt><trkpt lat="45.807990206101714" lon="11.446997034249089"><ele>1329.0</ele><time>2026-05-01T13:06:39Z</time></trkpt><trkpt lat="45.80794712891609" lon="11.446899082472394"><ele>1329.0</ele><time>2026-05-01T13:06:40Z</time></trkpt><trkpt lat="45.80791068614002" lon="11.446783049511781"><ele>1329.0</ele><time>2026-05-01T13:06:41Z</time></trkpt><trkpt lat="45.80787739818569" lon="11.446670403810243"><ele>1327.8333333333333</ele><time>2026-05-01T13:06:42Z</time></trkpt><trkpt lat="45.80783826167079" lon="11.446561328144996"><ele>1326.6666666666667</ele><time>2026-05-01T13:06:43Z</time></trkpt><trkpt lat="45.80780068445727" lon="11.446453025871689"><ele>1325.5</ele><time>2026-05-01T13:06:44Z</time></trkpt><trkpt lat="45.80776446342868" lon="11.446332781658084"><ele>1324.3333333333335</ele><time>2026-05-01T13:06:45Z</time></trkpt><trkpt lat="45.807770034502106" lon="11.446203560234018"><ele>1323.1666666666667</ele><time>2026-05-01T13:06:46Z</time></trkpt><trkpt lat="45.80779176255741" lon="11.446086622484856"><ele>1322.0</ele><time>2026-05-01T13:06:47Z</time></trkpt><trkpt lat="45.80783266287893" lon="11.445973014781345"><ele>1321.8333333333335</ele><time>2026-05-01T13:06:48Z</time></trkpt><trkpt lat="45.807876548923566" lon="11.445870288369973"><ele>1321.6666666666667</ele><time>2026-05-01T13:06:49Z</time></trkpt><trkpt lat="45.80791618600164" lon="11.445767175487484"><ele>1321.5</ele><time>2026-05-01T13:06:50Z</time></trkpt><trkpt lat="45.80795191865301" lon="11.445660731201915"><ele>1321.3333333333333</ele><time>2026-05-01T13:06:51Z</time></trkpt><trkpt lat="45.80798933256585" lon="11.445552788344957"><ele>1321.1666666666665</ele><time>2026-05-01T13:06:52Z</time></trkpt><trkpt lat="45.80802823593528" lon="11.445446832001497"><ele>1321.0</ele><time>2026-05-01T13:06:53Z</time></trkpt><trkpt lat="45.80807424379299" lon="11.445346233023614"><ele>1322.8333333333333</ele><time>2026-05-01T13:06:54Z</time></trkpt><trkpt lat="45.80812733691192" lon="11.445255509439303"><ele>1324.6666666666665</ele><time>2026-05-01T13:06:55Z</time></trkpt><trkpt lat="45.808185893469016" lon="11.44516603542481"><ele>1326.5</ele><time>2026-05-01T13:06:56Z</time></trkpt><trkpt lat="45.80824273363883" lon="11.445082232643632"><ele>1328.3333333333333</ele><time>2026-05-01T13:06:57Z</time></trkpt><trkpt lat="45.80830390612359" lon="11.444996491579909"><ele>1330.1666666666667</ele><time>2026-05-01T13:06:58Z</time></trkpt><trkpt lat="45.80836592970104" lon="11.444912664964118"><ele>1332.0</ele><time>2026-05-01T13:06:59Z</time></trkpt><trkpt lat="45.80842522876965" lon="11.44481809220682"><ele>1332.0</ele><time>2026-05-01T13:07:00Z</time></trkpt><trkpt lat="45.808474545089396" lon="11.444708291140186"><ele>1332.0</ele><time>2026-05-01T13:07:01Z</time></trkpt><trkpt lat="45.808520894562044" lon="11.444593868616503"><ele>1332.0</ele><time>2026-05-01T13:07:02Z</time></trkpt><trkpt lat="45.80857137555546" lon="11.444477764079773"><ele>1332.0</ele><time>2026-05-01T13:07:03Z</time></trkpt><trkpt lat="45.80862381799731" lon="11.444366608065565"><ele>1332.0</ele><time>2026-05-01T13:07:04Z</time></trkpt><trkpt lat="45.80868304780781" lon="11.444261151323325"><ele>1330.3999999999999</ele><time>2026-05-01T13:07:05Z</time></trkpt><trkpt lat="45.8087579312416" lon="11.444174714750956"><ele>1328.8</ele><time>2026-05-01T13:07:06Z</time></trkpt><trkpt lat="45.80883959479009" lon="11.44409498399982"><ele>1327.2</ele><time>2026-05-01T13:07:07Z</time></trkpt><trkpt lat="45.80892029240103" lon="11.444015785424526"><ele>1325.6</ele><time>2026-05-01T13:07:08Z</time></trkpt><trkpt lat="45.809008474679814" lon="11.443947801298007"><ele>1324.0</ele><time>2026-05-01T13:07:09Z</time></trkpt><trkpt lat="45.80910200760656" lon="11.443899396960946"><ele>1324.0</ele><time>2026-05-01T13:07:10Z</time></trkpt><trkpt lat="45.80919987023039" lon="11.44386668847923"><ele>1324.0</ele><time>2026-05-01T13:07:11Z</time></trkpt><trkpt lat="45.8092967800859" lon="11.4438467177121"><ele>1324.0</ele><time>2026-05-01T13:07:12Z</time></trkpt><trkpt lat="45.80939143234169" lon="11.44382257967091"><ele>1324.0</ele><time>2026-05-01T13:07:13Z</time></trkpt><trkpt lat="45.80948448726394" lon="11.443794093463852"><ele>1324.0</ele><time>2026-05-01T13:07:14Z</time></trkpt><trkpt lat="45.80957572374195" lon="11.44376441646637"><ele>1324.3333333333333</ele><time>2026-05-01T13:07:15Z</time></trkpt><trkpt lat="45.809657575309" lon="11.44371905088255"><ele>1324.6666666666665</ele><time>2026-05-01T13:07:16Z</time></trkpt><trkpt lat="45.80973470607648" lon="11.44364766858796"><ele>1325.0</ele><time>2026-05-01T13:07:17Z</time></trkpt><trkpt lat="45.80981239218198" lon="11.443577866146773"><ele>1325.3333333333333</ele><time>2026-05-01T13:07:18Z</time></trkpt><trkpt lat="45.809888132269855" lon="11.443521234339748"><ele>1325.6666666666667</ele><time>2026-05-01T13:07:19Z</time></trkpt><trkpt lat="45.809966309838934" lon="11.443460553459765"><ele>1326.0</ele><time>2026-05-01T13:07:20Z</time></trkpt><trkpt lat="45.81004742045496" lon="11.443399242416875"><ele>1326.0</ele><time>2026-05-01T13:07:21Z</time></trkpt><trkpt lat="45.810127973154174" lon="11.443340985598208"><ele>1326.0</ele><time>2026-05-01T13:07:22Z</time></trkpt><trkpt lat="45.810207587105204" lon="11.44328470575482"><ele>1326.0</ele><time>2026-05-01T13:07:23Z</time></trkpt><trkpt lat="45.81028400620816" lon="11.443215241827918"><ele>1326.0</ele><time>2026-05-01T13:07:24Z</time></trkpt><trkpt lat="45.81035445275805" lon="11.443143235351734"><ele>1326.0</ele><time>2026-05-01T13:07:25Z</time></trkpt><trkpt lat="45.81042399403972" lon="11.443069150944005"><ele>1326.0</ele><time>2026-05-01T13:07:26Z</time></trkpt><trkpt lat="45.810494004817215" lon="11.442997512748532"><ele>1324.3333333333333</ele><time>2026-05-01T13:07:27Z</time></trkpt><trkpt lat="45.81056344877613" lon="11.442936092441501"><ele>1322.6666666666667</ele><time>2026-05-01T13:07:28Z</time></trkpt><trkpt lat="45.81063309753886" lon="11.44287836505542"><ele>1321.0</ele><time>2026-05-01T13:07:29Z</time></trkpt><trkpt lat="45.810706350587196" lon="11.442835089948055"><ele>1319.3333333333335</ele><time>2026-05-01T13:07:30Z</time></trkpt><trkpt lat="45.81078262924417" lon="11.442803631789655"><ele>1317.6666666666667</ele><time>2026-05-01T13:07:31Z</time></trkpt><trkpt lat="45.81085672330889" lon="11.442782599239466"><ele>1316.0</ele><time>2026-05-01T13:07:32Z</time></trkpt><trkpt lat="45.81092030012691" lon="11.442774525143415"><ele>1316.0</ele><time>2026-05-01T13:07:33Z</time></trkpt><trkpt lat="45.811021174892964" lon="11.442702844510126"><ele>1316.0</ele><time>2026-05-01T13:07:35Z</time></trkpt><trkpt lat="45.8110524353068" lon="11.44259884921896"><ele>1316.0</ele><time>2026-05-01T13:07:37Z</time></trkpt><trkpt lat="45.811070239025675" lon="11.44246099250575"><ele>1316.0</ele><time>2026-05-01T13:07:39Z</time></trkpt><trkpt lat="45.81101670183796" lon="11.442404666711905"><ele>1316.0</ele><time>2026-05-01T13:07:40Z</time></trkpt><trkpt lat="45.810955864791794" lon="11.442327440792445"><ele>1316.0</ele><time>2026-05-01T13:07:41Z</time></trkpt><trkpt lat="45.81088560307853" lon="11.442254691448074"><ele>1316.0</ele><time>2026-05-01T13:07:42Z</time></trkpt><trkpt lat="45.81084537766068" lon="11.442154179837845"><ele>1316.0</ele><time>2026-05-01T13:07:43Z</time></trkpt><trkpt lat="45.81080803455867" lon="11.44204012763278"><ele>1316.0</ele><time>2026-05-01T13:07:44Z</time></trkpt><trkpt lat="45.810761868503306" lon="11.441911812202466"><ele>1316.0</ele><time>2026-05-01T13:07:45Z</time></trkpt><trkpt lat="45.81071420631244" lon="11.441795851231054"><ele>1316.0</ele><time>2026-05-01T13:07:46Z</time></trkpt><trkpt lat="45.81065145196568" lon="11.441676835650469"><ele>1314.1999999999998</ele><time>2026-05-01T13:07:47Z</time></trkpt><trkpt lat="45.81058603060684" lon="11.441572745562214"><ele>1312.3999999999999</ele><time>2026-05-01T13:07:48Z</time></trkpt><trkpt lat="45.8105098124878" lon="11.441494373979449"><ele>1310.6</ele><time>2026-05-01T13:07:49Z</time></trkpt><trkpt lat="45.810427477979" lon="11.44140784013376"><ele>1308.8</ele><time>2026-05-01T13:07:50Z</time></trkpt><trkpt lat="45.81035751272723" lon="11.44130864702977"><ele>1307.0</ele><time>2026-05-01T13:07:51Z</time></trkpt><trkpt lat="45.81030282995198" lon="11.441210744745005"><ele>1306.6666666666667</ele><time>2026-05-01T13:07:52Z</time></trkpt><trkpt lat="45.810230865834356" lon="11.441113965541463"><ele>1306.3333333333335</ele><time>2026-05-01T13:07:53Z</time></trkpt><trkpt lat="45.81016220901138" lon="11.441033318411655"><ele>1306.0</ele><time>2026-05-01T13:07:54Z</time></trkpt><trkpt lat="45.81009735276288" lon="11.44096226682139"><ele>1305.6666666666667</ele><time>2026-05-01T13:07:55Z</time></trkpt><trkpt lat="45.81002728164914" lon="11.440910166279169"><ele>1305.3333333333333</ele><time>2026-05-01T13:07:56Z</time></trkpt><trkpt lat="45.80995007881778" lon="11.440890387542531"><ele>1305.0</ele><time>2026-05-01T13:07:57Z</time></trkpt><trkpt lat="45.80987149452826" lon="11.440913985568164"><ele>1305.0</ele><time>2026-05-01T13:07:58Z</time></trkpt><trkpt lat="45.80979235181438" lon="11.440948676269647"><ele>1305.0</ele><time>2026-05-01T13:07:59Z</time></trkpt><trkpt lat="45.80971339936994" lon="11.440979501259152"><ele>1305.0</ele><time>2026-05-01T13:08:00Z</time></trkpt><trkpt lat="45.80966751119593" lon="11.441050746429253"><ele>1305.0</ele><time>2026-05-01T13:08:01Z</time></trkpt><trkpt lat="45.80958810880231" lon="11.44105769600079"><ele>1305.0</ele><time>2026-05-01T13:08:02Z</time></trkpt><trkpt lat="45.80950811134095" lon="11.441065060505247"><ele>1305.0</ele><time>2026-05-01T13:08:03Z</time></trkpt><trkpt lat="45.80940604163545" lon="11.441084591678633"><ele>1304.8</ele><time>2026-05-01T13:08:04Z</time></trkpt><trkpt lat="45.809315084153035" lon="11.441103717830128"><ele>1304.6</ele><time>2026-05-01T13:08:05Z</time></trkpt><trkpt lat="45.80921739507859" lon="11.44110470002728"><ele>1304.4</ele><time>2026-05-01T13:08:06Z</time></trkpt><trkpt lat="45.809127416346705" lon="11.441097887967604"><ele>1304.2</ele><time>2026-05-01T13:08:07Z</time></trkpt><trkpt lat="45.80903046395842" lon="11.441113220415323"><ele>1304.0</ele><time>2026-05-01T13:08:08Z</time></trkpt><trkpt lat="45.80893082374136" lon="11.441128813158938"><ele>1304.0</ele><time>2026-05-01T13:08:09Z</time></trkpt><trkpt lat="45.808837587440465" lon="11.44112657179663"><ele>1304.0</ele><time>2026-05-01T13:08:10Z</time></trkpt><trkpt lat="45.80874471986573" lon="11.441103426173344"><ele>1304.0</ele><time>2026-05-01T13:08:11Z</time></trkpt><trkpt lat="45.808656344604024" lon="11.441062510562999"><ele>1304.0</ele><time>2026-05-01T13:08:12Z</time></trkpt><trkpt lat="45.8085847102307" lon="11.440970344958384"><ele>1304.0</ele><time>2026-05-01T13:08:13Z</time></trkpt><trkpt lat="45.80852471289292" lon="11.440875201637583"><ele>1305.5</ele><time>2026-05-01T13:08:14Z</time></trkpt><trkpt lat="45.808464073678444" lon="11.440796808559627"><ele>1307.0</ele><time>2026-05-01T13:08:15Z</time></trkpt><trkpt lat="45.808397284189546" lon="11.440731673556822"><ele>1308.5</ele><time>2026-05-01T13:08:16Z</time></trkpt><trkpt lat="45.8083425266984" lon="11.440678637594118"><ele>1310.0</ele><time>2026-05-01T13:08:17Z</time></trkpt><trkpt lat="45.80824688103609" lon="11.440555327004018"><ele>1311.5</ele><time>2026-05-01T13:08:19Z</time></trkpt><trkpt lat="45.808199468239955" lon="11.440481350270705"><ele>1313.0</ele><time>2026-05-01T13:08:20Z</time></trkpt><trkpt lat="45.808100724890096" lon="11.44038212104472"><ele>1309.0</ele><time>2026-05-01T13:08:21Z</time></trkpt><trkpt lat="45.808017113532095" lon="11.440303970990108"><ele>1305.0</ele><time>2026-05-01T13:08:22Z</time></trkpt><trkpt lat="45.807959712990254" lon="11.440195347578479"><ele>1301.0</ele><time>2026-05-01T13:08:23Z</time></trkpt><trkpt lat="45.80789877559319" lon="11.44008169995676"><ele>1297.0</ele><time>2026-05-01T13:08:24Z</time></trkpt><trkpt lat="45.8078334611803" lon="11.439989480666075"><ele>1293.0</ele><time>2026-05-01T13:08:25Z</time></trkpt><trkpt lat="45.80772737117784" lon="11.43985179668124"><ele>1295.2</ele><time>2026-05-01T13:08:26Z</time></trkpt><trkpt lat="45.8076563328342" lon="11.43974685810123"><ele>1297.4</ele><time>2026-05-01T13:08:27Z</time></trkpt><trkpt lat="45.80758142654957" lon="11.439636178475416"><ele>1299.6000000000001</ele><time>2026-05-01T13:08:28Z</time></trkpt><trkpt lat="45.807518365570026" lon="11.439513381528363"><ele>1301.8000000000002</ele><time>2026-05-01T13:08:29Z</time></trkpt><trkpt lat="45.80746175420148" lon="11.439391989953473"><ele>1304.0</ele><time>2026-05-01T13:08:30Z</time></trkpt><trkpt lat="45.80741855633381" lon="11.439278264562516"><ele>1304.0</ele><time>2026-05-01T13:08:31Z</time></trkpt><trkpt lat="45.80737170997621" lon="11.439165000838726"><ele>1304.0</ele><time>2026-05-01T13:08:32Z</time></trkpt><trkpt lat="45.80733333637825" lon="11.439046362214379"><ele>1304.0</ele><time>2026-05-01T13:08:33Z</time></trkpt><trkpt lat="45.80730388170784" lon="11.438941553491809"><ele>1304.0</ele><time>2026-05-01T13:08:34Z</time></trkpt><trkpt lat="45.807260616188536" lon="11.438818970847702"><ele>1304.0</ele><time>2026-05-01T13:08:35Z</time></trkpt><trkpt lat="45.80720467825266" lon="11.438715749032307"><ele>1304.0</ele><time>2026-05-01T13:08:36Z</time></trkpt><trkpt lat="45.80715082430381" lon="11.438623770890077"><ele>1302.5</ele><time>2026-05-01T13:08:37Z</time></trkpt><trkpt lat="45.80710192620124" lon="11.438513862815363"><ele>1301.0</ele><time>2026-05-01T13:08:38Z</time></trkpt><trkpt lat="45.80707382266736" lon="11.438422447569314"><ele>1299.5</ele><time>2026-05-01T13:08:39Z</time></trkpt><trkpt lat="45.807048598887306" lon="11.438302733093284"><ele>1298.0</ele><time>2026-05-01T13:08:40Z</time></trkpt><trkpt lat="45.807028020272455" lon="11.438204649636404"><ele>1296.5</ele><time>2026-05-01T13:08:41Z</time></trkpt><trkpt lat="45.806962904506044" lon="11.438085196968236"><ele>1295.0</ele><time>2026-05-01T13:08:43Z</time></trkpt><trkpt lat="45.806847146148044" lon="11.438010037043416"><ele>1293.5</ele><time>2026-05-01T13:08:45Z</time></trkpt><trkpt lat="45.806788267410184" lon="11.43796521962798"><ele>1292.0</ele><time>2026-05-01T13:08:46Z</time></trkpt><trkpt lat="45.806714080118276" lon="11.437903510923979"><ele>1290.5</ele><time>2026-05-01T13:08:47Z</time></trkpt><trkpt lat="45.80665436292657" lon="11.437833137267084"><ele>1289.0</ele><time>2026-05-01T13:08:48Z</time></trkpt><trkpt lat="45.80654238659493" lon="11.43774311199904"><ele>1287.5</ele><time>2026-05-01T13:08:50Z</time></trkpt><trkpt lat="45.80646968301899" lon="11.437739423023071"><ele>1286.0</ele><time>2026-05-01T13:08:51Z</time></trkpt><trkpt lat="45.80640122957712" lon="11.437741443047297"><ele>1286.0</ele><time>2026-05-01T13:08:52Z</time></trkpt><trkpt lat="45.80633803000557" lon="11.43772085716842"><ele>1286.0</ele><time>2026-05-01T13:08:53Z</time></trkpt><trkpt lat="45.80626485048213" lon="11.437722063984944"><ele>1286.0</ele><time>2026-05-01T13:08:54Z</time></trkpt><trkpt lat="45.80619399031166" lon="11.437730751127278"><ele>1286.0</ele><time>2026-05-01T13:08:55Z</time></trkpt><trkpt lat="45.8061252545484" lon="11.437735988215625"><ele>1286.0</ele><time>2026-05-01T13:08:56Z</time></trkpt><trkpt lat="45.806058521768506" lon="11.437759062953925"><ele>1286.0</ele><time>2026-05-01T13:08:57Z</time></trkpt><trkpt lat="45.80599922567713" lon="11.437804118471213"><ele>1286.0</ele><time>2026-05-01T13:08:58Z</time></trkpt><trkpt lat="45.80595085024973" lon="11.437864796380076"><ele>1286.3333333333335</ele><time>2026-05-01T13:08:59Z</time></trkpt><trkpt lat="45.805914268627724" lon="11.437939821827062"><ele>1286.6666666666667</ele><time>2026-05-01T13:09:00Z</time></trkpt><trkpt lat="45.805883526823706" lon="11.438020862175128"><ele>1287.0</ele><time>2026-05-01T13:09:01Z</time></trkpt><trkpt lat="45.80582443325431" lon="11.43814997727158"><ele>1287.3333333333333</ele><time>2026-05-01T13:09:03Z</time></trkpt><trkpt lat="45.80573999116919" lon="11.438304364971025"><ele>1287.6666666666665</ele><time>2026-05-01T13:09:05Z</time></trkpt><trkpt lat="45.80568452724533" lon="11.438380407286003"><ele>1288.0</ele><time>2026-05-01T13:09:06Z</time></trkpt><trkpt lat="45.80563573384014" lon="11.43844473548415"><ele>1288.0</ele><time>2026-05-01T13:09:07Z</time></trkpt><trkpt lat="45.805587913260446" lon="11.43851769529486"><ele>1288.0</ele><time>2026-05-01T13:09:08Z</time></trkpt><trkpt lat="45.80549806265152" lon="11.43861046054172"><ele>1288.0</ele><time>2026-05-01T13:09:10Z</time></trkpt><trkpt lat="45.8054427672038" lon="11.438695798226439"><ele>1288.0</ele><time>2026-05-01T13:10:55Z</time></trkpt><trkpt lat="45.805373635156585" lon="11.438781292603485"><ele>1288.0</ele><time>2026-05-01T13:10:57Z</time></trkpt><trkpt lat="45.80532389183746" lon="11.438859996746638"><ele>1288.0</ele><time>2026-05-01T13:10:58Z</time></trkpt><trkpt lat="45.80522891995315" lon="11.438922031775201"><ele>1286.6000000000001</ele><time>2026-05-01T13:11:00Z</time></trkpt><trkpt lat="45.805135769606274" lon="11.438955113963752"><ele>1285.2</ele><time>2026-05-01T13:11:02Z</time></trkpt><trkpt lat="45.805096696283506" lon="11.439060218721545"><ele>1283.8</ele><time>2026-05-01T13:11:03Z</time></trkpt><trkpt lat="45.80505547344859" lon="11.439138449372129"><ele>1282.4</ele><time>2026-05-01T13:11:04Z</time></trkpt><trkpt lat="45.80495611119759" lon="11.439253831210564"><ele>1281.0</ele><time>2026-05-01T13:11:06Z</time></trkpt><trkpt lat="45.80487777980115" lon="11.439312706580564"><ele>1281.0</ele><time>2026-05-01T13:11:08Z</time></trkpt><trkpt lat="45.804788432507706" lon="11.439378426144918"><ele>1281.0</ele><time>2026-05-01T13:11:10Z</time></trkpt><trkpt lat="45.80475665995482" lon="11.439265175986373"><ele>1281.0</ele><time>2026-05-01T13:11:12Z</time></trkpt><trkpt lat="45.80480328051164" lon="11.439132379313707"><ele>1281.0</ele><time>2026-05-01T13:11:14Z</time></trkpt><trkpt lat="45.80485884217178" lon="11.438976033319879"><ele>1281.0</ele><time>2026-05-01T13:11:16Z</time></trkpt><trkpt lat="45.804920764123544" lon="11.438826967231158"><ele>1278.2</ele><time>2026-05-01T13:11:18Z</time></trkpt><trkpt lat="45.804939795926686" lon="11.438740746031334"><ele>1275.3999999999999</ele><time>2026-05-01T13:11:19Z</time></trkpt><trkpt lat="45.80497683955414" lon="11.438567336297233"><ele>1272.6</ele><time>2026-05-01T13:11:21Z</time></trkpt><trkpt lat="45.80498982599653" lon="11.438470471446383"><ele>1269.8</ele><time>2026-05-01T13:11:22Z</time></trkpt><trkpt lat="45.804992423440254" lon="11.43829025831141"><ele>1267.0</ele><time>2026-05-01T13:11:24Z</time></trkpt><trkpt lat="45.804991046876495" lon="11.4381896150265"><ele>1267.0</ele><time>2026-05-01T13:11:25Z</time></trkpt><trkpt lat="45.80499237946037" lon="11.438090148806378"><ele>1267.0</ele><time>2026-05-01T13:11:26Z</time></trkpt><trkpt lat="45.8050177884116" lon="11.438006301575863"><ele>1267.0</ele><time>2026-05-01T13:11:27Z</time></trkpt><trkpt lat="45.80507257791052" lon="11.437935876018603"><ele>1267.0</ele><time>2026-05-01T13:11:28Z</time></trkpt><trkpt lat="45.80514716225678" lon="11.43787278519698"><ele>1267.0</ele><time>2026-05-01T13:11:29Z</time></trkpt><trkpt lat="45.80520579223142" lon="11.43781930700229"><ele>1267.0</ele><time>2026-05-01T13:11:30Z</time></trkpt><trkpt lat="45.8052571062714" lon="11.43776399625764"><ele>1267.0</ele><time>2026-05-01T13:11:31Z</time></trkpt><trkpt lat="45.805303463918314" lon="11.437692065366878"><ele>1267.8333333333333</ele><time>2026-05-01T13:11:32Z</time></trkpt><trkpt lat="45.80534034326871" lon="11.437611936909716"><ele>1268.6666666666665</ele><time>2026-05-01T13:11:33Z</time></trkpt><trkpt lat="45.80538707888135" lon="11.437511580117073"><ele>1269.5</ele><time>2026-05-01T13:11:34Z</time></trkpt><trkpt lat="45.80543720741497" lon="11.43741576501529"><ele>1270.3333333333333</ele><time>2026-05-01T13:11:35Z</time></trkpt><trkpt lat="45.80550453203717" lon="11.437322162042737"><ele>1271.1666666666667</ele><time>2026-05-01T13:11:36Z</time></trkpt><trkpt lat="45.805567531701435" lon="11.437218750081115"><ele>1272.0</ele><time>2026-05-01T13:11:37Z</time></trkpt><trkpt lat="45.8056099468548" lon="11.437106208279973"><ele>1269.3333333333333</ele><time>2026-05-01T13:11:38Z</time></trkpt><trkpt lat="45.80563674166308" lon="11.436989807292768"><ele>1266.6666666666667</ele><time>2026-05-01T13:11:39Z</time></trkpt><trkpt lat="45.805659783229295" lon="11.436868933444204"><ele>1264.0</ele><time>2026-05-01T13:11:40Z</time></trkpt><trkpt lat="45.805690749614605" lon="11.43675828592528"><ele>1261.3333333333335</ele><time>2026-05-01T13:11:41Z</time></trkpt><trkpt lat="45.80574505432072" lon="11.436662774279268"><ele>1258.6666666666667</ele><time>2026-05-01T13:11:42Z</time></trkpt><trkpt lat="45.80581599353289" lon="11.43658515605426"><ele>1256.0</ele><time>2026-05-01T13:11:43Z</time></trkpt><trkpt lat="45.80588749687586" lon="11.43650360072436"><ele>1256.0</ele><time>2026-05-01T13:11:44Z</time></trkpt><trkpt lat="45.805955028488434" lon="11.436420761206232"><ele>1256.0</ele><time>2026-05-01T13:11:45Z</time></trkpt><trkpt lat="45.80602416711738" lon="11.436338030095516"><ele>1256.0</ele><time>2026-05-01T13:11:46Z</time></trkpt><trkpt lat="45.8060911708401" lon="11.436250566812303"><ele>1256.0</ele><time>2026-05-01T13:11:47.001Z</time></trkpt><trkpt lat="45.80615676922918" lon="11.436156838305104"><ele>1256.0</ele><time>2026-05-01T13:11:48.001Z</time></trkpt><trkpt lat="45.80622720158862" lon="11.436058413330104"><ele>1256.6666666666667</ele><time>2026-05-01T13:11:49.001Z</time></trkpt><trkpt lat="45.80629248739086" lon="11.435961877842118"><ele>1257.3333333333335</ele><time>2026-05-01T13:11:50.001Z</time></trkpt><trkpt lat="45.80635570146636" lon="11.435868571821961"><ele>1258.0</ele><time>2026-05-01T13:11:51.001Z</time></trkpt><trkpt lat="45.806416649636354" lon="11.435783943006962"><ele>1258.6666666666667</ele><time>2026-05-01T13:11:52Z</time></trkpt><trkpt lat="45.806475851455076" lon="11.43570032170311"><ele>1259.3333333333333</ele><time>2026-05-01T13:11:53Z</time></trkpt><trkpt lat="45.806531168724696" lon="11.435617935725013"><ele>1260.0</ele><time>2026-05-01T13:11:54Z</time></trkpt><trkpt lat="45.806577520094386" lon="11.435524197539989"><ele>1258.2</ele><time>2026-05-01T13:11:55Z</time></trkpt><trkpt lat="45.806615947376734" lon="11.435417813744"><ele>1256.4</ele><time>2026-05-01T13:11:56Z</time></trkpt><trkpt lat="45.806665661963926" lon="11.435309611547611"><ele>1254.6</ele><time>2026-05-01T13:11:57Z</time></trkpt><trkpt lat="45.80672527904828" lon="11.43520628090582"><ele>1252.8</ele><time>2026-05-01T13:11:58Z</time></trkpt><trkpt lat="45.806784585480266" lon="11.435095375085101"><ele>1251.0</ele><time>2026-05-01T13:11:59Z</time></trkpt><trkpt lat="45.80683988268519" lon="11.434980348893884"><ele>1251.0</ele><time>2026-05-01T13:12:00Z</time></trkpt><trkpt lat="45.80689054416765" lon="11.43486597903694"><ele>1251.0</ele><time>2026-05-01T13:12:01Z</time></trkpt><trkpt lat="45.806947752688245" lon="11.434751456550433"><ele>1251.0</ele><time>2026-05-01T13:12:02Z</time></trkpt><trkpt lat="45.80700904320751" lon="11.434655004743481"><ele>1251.0</ele><time>2026-05-01T13:12:03Z</time></trkpt><trkpt lat="45.807074400169846" lon="11.434579805784091"><ele>1251.0</ele><time>2026-05-01T13:12:04Z</time></trkpt><trkpt lat="45.80716145862565" lon="11.434539658713893"><ele>1248.3999999999999</ele><time>2026-05-01T13:12:05Z</time></trkpt><trkpt lat="45.80725157838492" lon="11.434528763758905"><ele>1245.8</ele><time>2026-05-01T13:12:06Z</time></trkpt><trkpt lat="45.807341755726654" lon="11.434509391729792"><ele>1243.1999999999998</ele><time>2026-05-01T13:12:07Z</time></trkpt><trkpt lat="45.80743852012693" lon="11.43450379978576"><ele>1240.6</ele><time>2026-05-01T13:12:08Z</time></trkpt><trkpt lat="45.807531900316135" lon="11.43447540075452"><ele>1238.0</ele><time>2026-05-01T13:12:09Z</time></trkpt><trkpt lat="45.80761497495391" lon="11.434420124864543"><ele>1238.1666666666667</ele><time>2026-05-01T13:12:10Z</time></trkpt><trkpt lat="45.80767762058562" lon="11.434327655701436"><ele>1238.3333333333335</ele><time>2026-05-01T13:12:11Z</time></trkpt><trkpt lat="45.80770678145414" lon="11.43421388050483"><ele>1238.5</ele><time>2026-05-01T13:12:12Z</time></trkpt><trkpt lat="45.80771430083685" lon="11.434093454890537"><ele>1238.6666666666667</ele><time>2026-05-01T13:12:13Z</time></trkpt><trkpt lat="45.807715629776645" lon="11.43398715009041"><ele>1238.8333333333333</ele><time>2026-05-01T13:12:14Z</time></trkpt><trkpt lat="45.807724390422315" lon="11.433893665880918"><ele>1239.0</ele><time>2026-05-01T13:12:15Z</time></trkpt><trkpt lat="45.807811267652696" lon="11.433760767158264"><ele>1236.5</ele><time>2026-05-01T13:12:17Z</time></trkpt><trkpt lat="45.80787733154876" lon="11.433727987429487"><ele>1234.0</ele><time>2026-05-01T13:12:18Z</time></trkpt><trkpt lat="45.80795110280336" lon="11.4337334262889"><ele>1231.5</ele><time>2026-05-01T13:12:19Z</time></trkpt><trkpt lat="45.80802858327321" lon="11.433758387526407"><ele>1229.0</ele><time>2026-05-01T13:12:20Z</time></trkpt><trkpt lat="45.808109207745694" lon="11.433761457723534"><ele>1226.5</ele><time>2026-05-01T13:12:21Z</time></trkpt><trkpt lat="45.80818837506663" lon="11.43373334109801"><ele>1224.0</ele><time>2026-05-01T13:12:22Z</time></trkpt><trkpt lat="45.8082581166845" lon="11.43367620026626"><ele>1224.0</ele><time>2026-05-01T13:12:23Z</time></trkpt><trkpt lat="45.8083232724173" lon="11.433609622132355"><ele>1224.0</ele><time>2026-05-01T13:12:24Z</time></trkpt><trkpt lat="45.80838840113373" lon="11.433534798292776"><ele>1224.0</ele><time>2026-05-01T13:12:25Z</time></trkpt><trkpt lat="45.80845588200993" lon="11.433451906563084"><ele>1224.0</ele><time>2026-05-01T13:12:26Z</time></trkpt><trkpt lat="45.808528037926564" lon="11.433379897837485"><ele>1224.0</ele><time>2026-05-01T13:12:27Z</time></trkpt><trkpt lat="45.80861078032161" lon="11.43333148249443"><ele>1224.0</ele><time>2026-05-01T13:12:28Z</time></trkpt><trkpt lat="45.808698784545136" lon="11.43329994824005"><ele>1222.6666666666667</ele><time>2026-05-01T13:12:29Z</time></trkpt><trkpt lat="45.80878634012867" lon="11.433271498630637"><ele>1221.3333333333333</ele><time>2026-05-01T13:12:30Z</time></trkpt><trkpt lat="45.808873108909935" lon="11.433258266425618"><ele>1220.0</ele><time>2026-05-01T13:12:31Z</time></trkpt><trkpt lat="45.808958195604404" lon="11.433279375920657"><ele>1218.6666666666665</ele><time>2026-05-01T13:12:32Z</time></trkpt><trkpt lat="45.80903515393179" lon="11.433332406602357"><ele>1217.3333333333333</ele><time>2026-05-01T13:12:33Z</time></trkpt><trkpt lat="45.809099560285695" lon="11.43341566238216"><ele>1216.0</ele><time>2026-05-01T13:12:34Z</time></trkpt><trkpt lat="45.80915207462641" lon="11.433509922317628"><ele>1216.0</ele><time>2026-05-01T13:12:35Z</time></trkpt><trkpt lat="45.8092058451268" lon="11.433597866794816"><ele>1216.0</ele><time>2026-05-01T13:12:36Z</time></trkpt><trkpt lat="45.80926175829601" lon="11.43367951344675"><ele>1216.0</ele><time>2026-05-01T13:12:37Z</time></trkpt><trkpt lat="45.80932064308298" lon="11.433757021967844"><ele>1216.0</ele><time>2026-05-01T13:12:38Z</time></trkpt><trkpt lat="45.80936163176679" lon="11.433828918783092"><ele>1216.0</ele><time>2026-05-01T13:12:39Z</time></trkpt><trkpt lat="45.809317818006065" lon="11.433989747149477"><ele>1216.0</ele><time>2026-05-01T13:12:41Z</time></trkpt><trkpt lat="45.80925987367861" lon="11.434070532469054"><ele>1215.8</ele><time>2026-05-01T13:12:42Z</time></trkpt><trkpt lat="45.809212838298315" lon="11.434174048068341"><ele>1215.6</ele><time>2026-05-01T13:12:43Z</time></trkpt><trkpt lat="45.809174740140776" lon="11.434286351868211"><ele>1215.4</ele><time>2026-05-01T13:12:44Z</time></trkpt><trkpt lat="45.80913541459002" lon="11.434406673871417"><ele>1215.2</ele><time>2026-05-01T13:12:45Z</time></trkpt><trkpt lat="45.80908891030283" lon="11.434523063983978"><ele>1215.0</ele><time>2026-05-01T13:12:46Z</time></trkpt><trkpt lat="45.8090232277323" lon="11.434721946641853"><ele>1215.0</ele><time>2026-05-01T13:12:48Z</time></trkpt><trkpt lat="45.80898908771611" lon="11.43485486465213"><ele>1215.0</ele><time>2026-05-01T13:12:49Z</time></trkpt><trkpt lat="45.808961676409055" lon="11.434974047798764"><ele>1215.0</ele><time>2026-05-01T13:12:50Z</time></trkpt><trkpt lat="45.80895047662408" lon="11.435111681249749"><ele>1215.0</ele><time>2026-05-01T13:12:51Z</time></trkpt><trkpt lat="45.80894379136852" lon="11.435243929996448"><ele>1215.0</ele><time>2026-05-01T13:12:52Z</time></trkpt><trkpt lat="45.808951572977186" lon="11.435369366673303"><ele>1214.5</ele><time>2026-05-01T13:12:53Z</time></trkpt><trkpt lat="45.8089544605346" lon="11.435485979577853"><ele>1214.0</ele><time>2026-05-01T13:12:54Z</time></trkpt><trkpt lat="45.808987119601625" lon="11.435596167330445"><ele>1213.5</ele><time>2026-05-01T13:12:55Z</time></trkpt><trkpt lat="45.80902184123067" lon="11.435672128412365"><ele>1213.0</ele><time>2026-05-01T13:12:56Z</time></trkpt><trkpt lat="45.80907654339129" lon="11.435782148144257"><ele>1212.5</ele><time>2026-05-01T13:12:57Z</time></trkpt><trkpt lat="45.80912553822611" lon="11.435874843555144"><ele>1212.0</ele><time>2026-05-01T13:12:58Z</time></trkpt><trkpt lat="45.809169893107054" lon="11.435961376666125"><ele>1212.0</ele><time>2026-05-01T13:12:59Z</time></trkpt><trkpt lat="45.809223520235186" lon="11.436042741564176"><ele>1212.0</ele><time>2026-05-01T13:13:00Z</time></trkpt><trkpt lat="45.809263359763726" lon="11.436140570820063"><ele>1212.0</ele><time>2026-05-01T13:13:01Z</time></trkpt><trkpt lat="45.80931896499874" lon="11.436259865684244"><ele>1212.0</ele><time>2026-05-01T13:13:02Z</time></trkpt><trkpt lat="45.80937306593722" lon="11.436408472684091"><ele>1212.0</ele><time>2026-05-01T13:13:03Z</time></trkpt><trkpt lat="45.80942428407304" lon="11.436522762689798"><ele>1208.2</ele><time>2026-05-01T13:13:04Z</time></trkpt><trkpt lat="45.80948793059648" lon="11.43663182955249"><ele>1204.4</ele><time>2026-05-01T13:13:05Z</time></trkpt><trkpt lat="45.80956304865356" lon="11.436735720616841"><ele>1200.6</ele><time>2026-05-01T13:13:06Z</time></trkpt><trkpt lat="45.80963846382738" lon="11.4368046478796"><ele>1196.8</ele><time>2026-05-01T13:13:07Z</time></trkpt><trkpt lat="45.809723508896965" lon="11.436848472568792"><ele>1193.0</ele><time>2026-05-01T13:13:08Z</time></trkpt><trkpt lat="45.80985061225675" lon="11.436908132357425"><ele>1193.0</ele><time>2026-05-01T13:13:09Z</time></trkpt><trkpt lat="45.809935303708905" lon="11.43693662835739"><ele>1193.0</ele><time>2026-05-01T13:13:10Z</time></trkpt><trkpt lat="45.81002168525407" lon="11.436936517434377"><ele>1193.0</ele><time>2026-05-01T13:13:11Z</time></trkpt><trkpt lat="45.810116433342365" lon="11.436935207738205"><ele>1193.0</ele><time>2026-05-01T13:13:12Z</time></trkpt><trkpt lat="45.81021329335513" lon="11.436909225944268"><ele>1193.0</ele><time>2026-05-01T13:13:13Z</time></trkpt><trkpt lat="45.810302942989956" lon="11.43687450312035"><ele>1193.2</ele><time>2026-05-01T13:13:14Z</time></trkpt><trkpt lat="45.81039166766497" lon="11.436824540548676"><ele>1193.4</ele><time>2026-05-01T13:13:15Z</time></trkpt><trkpt lat="45.81047415628097" lon="11.436763691108712"><ele>1193.6000000000001</ele><time>2026-05-01T13:13:16Z</time></trkpt><trkpt lat="45.81055241335715" lon="11.436685526513452"><ele>1193.8</ele><time>2026-05-01T13:13:17Z</time></trkpt><trkpt lat="45.810624900326424" lon="11.436596108184984"><ele>1194.0</ele><time>2026-05-01T13:13:18Z</time></trkpt><trkpt lat="45.81069106545904" lon="11.436500558350666"><ele>1194.0</ele><time>2026-05-01T13:13:19Z</time></trkpt><trkpt lat="45.81074984538986" lon="11.436398334158282"><ele>1194.0</ele><time>2026-05-01T13:13:20Z</time></trkpt><trkpt lat="45.8108019877497" lon="11.43630665765728"><ele>1194.0</ele><time>2026-05-01T13:13:21Z</time></trkpt><trkpt lat="45.810879655532" lon="11.436274298881175"><ele>1194.0</ele><time>2026-05-01T13:13:22Z</time></trkpt><trkpt lat="45.81095944585552" lon="11.436265226027237"><ele>1194.0</ele><time>2026-05-01T13:13:23Z</time></trkpt><trkpt lat="45.811046234911394" lon="11.436256029232222"><ele>1194.0</ele><time>2026-05-01T13:13:24Z</time></trkpt><trkpt lat="45.81114167095008" lon="11.43626444988798"><ele>1193.0</ele><time>2026-05-01T13:13:25Z</time></trkpt><trkpt lat="45.81123445499355" lon="11.436288499459161"><ele>1192.0</ele><time>2026-05-01T13:13:26Z</time></trkpt><trkpt lat="45.8113268397908" lon="11.436320787303009"><ele>1191.0</ele><time>2026-05-01T13:13:27Z</time></trkpt><trkpt lat="45.81142917753955" lon="11.436338151050071"><ele>1190.0</ele><time>2026-05-01T13:13:28Z</time></trkpt><trkpt lat="45.811523005167366" lon="11.43634887836472"><ele>1189.0</ele><time>2026-05-01T13:13:29Z</time></trkpt><trkpt lat="45.8116224670227" lon="11.436335575486927"><ele>1189.0</ele><time>2026-05-01T13:13:30Z</time></trkpt><trkpt lat="45.81172510550557" lon="11.436318833381415"><ele>1189.0</ele><time>2026-05-01T13:13:31Z</time></trkpt><trkpt lat="45.811835920271605" lon="11.436308791275081"><ele>1189.0</ele><time>2026-05-01T13:13:32Z</time></trkpt><trkpt lat="45.81193573409186" lon="11.43629144152569"><ele>1189.0</ele><time>2026-05-01T13:13:33Z</time></trkpt><trkpt lat="45.81203361142772" lon="11.436248243129546"><ele>1189.0</ele><time>2026-05-01T13:13:34Z</time></trkpt><trkpt lat="45.81211393564175" lon="11.436175439734303"><ele>1185.2</ele><time>2026-05-01T13:13:35Z</time></trkpt><trkpt lat="45.81217805791074" lon="11.436079914480255"><ele>1181.4</ele><time>2026-05-01T13:13:36Z</time></trkpt><trkpt lat="45.8122169809715" lon="11.435953326418783"><ele>1177.6</ele><time>2026-05-01T13:13:37Z</time></trkpt><trkpt lat="45.81223720123305" lon="11.43582556095938"><ele>1173.8</ele><time>2026-05-01T13:13:38Z</time></trkpt><trkpt lat="45.81225915911571" lon="11.435716651247082"><ele>1170.0</ele><time>2026-05-01T13:13:39Z</time></trkpt><trkpt lat="45.812325921020296" lon="11.435586783335166"><ele>1170.0</ele><time>2026-05-01T13:13:41Z</time></trkpt><trkpt lat="45.81239162532851" lon="11.435565994940486"><ele>1170.0</ele><time>2026-05-01T13:13:42Z</time></trkpt><trkpt lat="45.81252111392086" lon="11.435599730210198"><ele>1170.0</ele><time>2026-05-01T13:13:44Z</time></trkpt><trkpt lat="45.81258819556787" lon="11.435612568443615"><ele>1170.0</ele><time>2026-05-01T13:13:45Z</time></trkpt><trkpt lat="45.81268957259048" lon="11.435610261449698"><ele>1170.0</ele><time>2026-05-01T13:13:47Z</time></trkpt><trkpt lat="45.81271314312991" lon="11.435517227401567"><ele>1170.0</ele><time>2026-05-01T13:13:50Z</time></trkpt><trkpt lat="45.812658322414556" lon="11.435397838240965"><ele>1164.75</ele><time>2026-05-01T13:13:52Z</time></trkpt><trkpt lat="45.81254623834238" lon="11.435275758869127"><ele>1159.5</ele><time>2026-05-01T13:13:54.001Z</time></trkpt><trkpt lat="45.81241510849225" lon="11.435184391611493"><ele>1154.25</ele><time>2026-05-01T13:13:55.001Z</time></trkpt><trkpt lat="45.81231442779422" lon="11.4351569886568"><ele>1149.0</ele><time>2026-05-01T13:13:56.001Z</time></trkpt><trkpt lat="45.81220400085146" lon="11.435156178115385"><ele>1149.0</ele><time>2026-05-01T13:13:57.001Z</time></trkpt><trkpt lat="45.812099097680296" lon="11.4351627254626"><ele>1149.0</ele><time>2026-05-01T13:13:58.001Z</time></trkpt><trkpt lat="45.81200090555677" lon="11.43515637696393"><ele>1149.0</ele><time>2026-05-01T13:13:59.001Z</time></trkpt><trkpt lat="45.81193070653551" lon="11.435115765356532"><ele>1149.0</ele><time>2026-05-01T13:14:00.001Z</time></trkpt><trkpt lat="45.8118794046272" lon="11.435032274595864"><ele>1149.0</ele><time>2026-05-01T13:14:01.001Z</time></trkpt><trkpt lat="45.811892185150434" lon="11.43491232287836"><ele>1149.0</ele><time>2026-05-01T13:14:02.001Z</time></trkpt><trkpt lat="45.81191741949392" lon="11.434823343055086"><ele>1149.0</ele><time>2026-05-01T13:14:03.001Z</time></trkpt><trkpt lat="45.81192114465702" lon="11.434732688951755"><ele>1149.0</ele><time>2026-05-01T13:14:04.001Z</time></trkpt><trkpt lat="45.8119031646079" lon="11.434630314239232"><ele>1149.0</ele><time>2026-05-01T13:14:05.001Z</time></trkpt><trkpt lat="45.81186812912617" lon="11.434524307298881"><ele>1149.0</ele><time>2026-05-01T13:14:06.001Z</time></trkpt><trkpt lat="45.8118378157533" lon="11.434408600399912"><ele>1149.0</ele><time>2026-05-01T13:14:07.001Z</time></trkpt><trkpt lat="45.81180456006731" lon="11.434284348348156"><ele>1149.0</ele><time>2026-05-01T13:14:08Z</time></trkpt><trkpt lat="45.811776459999635" lon="11.43416021416208"><ele>1152.5</ele><time>2026-05-01T13:14:09Z</time></trkpt><trkpt lat="45.81174755663918" lon="11.434030856678538"><ele>1156.0</ele><time>2026-05-01T13:14:10Z</time></trkpt><trkpt lat="45.81179704186141" lon="11.43382267025655"><ele>1159.5</ele><time>2026-05-01T13:14:12Z</time></trkpt><trkpt lat="45.81182373636556" lon="11.433686558700694"><ele>1163.0</ele><time>2026-05-01T13:14:13Z</time></trkpt><trkpt lat="45.811850406453026" lon="11.433534489206542"><ele>1157.2</ele><time>2026-05-01T13:14:14Z</time></trkpt><trkpt lat="45.81186493391706" lon="11.433395581437322"><ele>1151.4</ele><time>2026-05-01T13:14:15Z</time></trkpt><trkpt lat="45.811881844478265" lon="11.43326730699142"><ele>1145.6000000000001</ele><time>2026-05-01T13:14:16Z</time></trkpt><trkpt lat="45.8118799948387" lon="11.43312405861798"><ele>1139.8</ele><time>2026-05-01T13:14:17Z</time></trkpt><trkpt lat="45.81184139580987" lon="11.433002083100991"><ele>1134.0</ele><time>2026-05-01T13:14:18Z</time></trkpt><trkpt lat="45.811779132603995" lon="11.432888457811163"><ele>1134.0</ele><time>2026-05-01T13:14:19Z</time></trkpt><trkpt lat="45.81170580318027" lon="11.432801449755388"><ele>1134.0</ele><time>2026-05-01T13:14:20Z</time></trkpt><trkpt lat="45.81162147929795" lon="11.432726335108224"><ele>1134.0</ele><time>2026-05-01T13:14:21Z</time></trkpt><trkpt lat="45.81157518801963" lon="11.432614373354678"><ele>1134.0</ele><time>2026-05-01T13:14:22Z</time></trkpt><trkpt lat="45.81142271026986" lon="11.432613515138517"><ele>1134.0</ele><time>2026-05-01T13:14:23Z</time></trkpt><trkpt lat="45.811346015558016" lon="11.432548401222919"><ele>1134.0</ele><time>2026-05-01T13:14:24Z</time></trkpt><trkpt lat="45.81126365609385" lon="11.432485784390709"><ele>1134.0</ele><time>2026-05-01T13:14:25Z</time></trkpt><trkpt lat="45.81118784913219" lon="11.43242053165169"><ele>1134.0</ele><time>2026-05-01T13:14:26Z</time></trkpt><trkpt lat="45.81111225658138" lon="11.432361418272123"><ele>1134.0</ele><time>2026-05-01T13:14:27Z</time></trkpt><trkpt lat="45.81103630760796" lon="11.43229967243959"><ele>1134.0</ele><time>2026-05-01T13:14:28Z</time></trkpt><trkpt lat="45.81096277862054" lon="11.4322232955502"><ele>1134.0</ele><time>2026-05-01T13:14:29Z</time></trkpt><trkpt lat="45.81086290381759" lon="11.432132291033499"><ele>1131.8</ele><time>2026-05-01T13:14:30Z</time></trkpt><trkpt lat="45.8107689843151" lon="11.432036295437552"><ele>1129.6000000000001</ele><time>2026-05-01T13:14:31Z</time></trkpt><trkpt lat="45.810694731655076" lon="11.431953781534276"><ele>1127.4</ele><time>2026-05-01T13:14:32Z</time></trkpt><trkpt lat="45.8106183278529" lon="11.431877901729075"><ele>1125.2</ele><time>2026-05-01T13:14:33Z</time></trkpt><trkpt lat="45.81052651142759" lon="11.431794410039345"><ele>1123.0</ele><time>2026-05-01T13:14:34Z</time></trkpt><trkpt lat="45.81043450664457" lon="11.431735720784365"><ele>1123.0</ele><time>2026-05-01T13:14:35Z</time></trkpt><trkpt lat="45.81034724220791" lon="11.431722087511773"><ele>1123.0</ele><time>2026-05-01T13:14:36Z</time></trkpt><trkpt lat="45.810256435353686" lon="11.43172125567591"><ele>1123.0</ele><time>2026-05-01T13:14:37Z</time></trkpt><trkpt lat="45.81018409342849" lon="11.43169378661957"><ele>1123.0</ele><time>2026-05-01T13:14:38Z</time></trkpt><trkpt lat="45.810116322448614" lon="11.431621584905857"><ele>1123.0</ele><time>2026-05-01T13:14:39Z</time></trkpt><trkpt lat="45.81003339395044" lon="11.431524528272332"><ele>1123.0</ele><time>2026-05-01T13:14:40Z</time></trkpt><trkpt lat="45.80996409665062" lon="11.431438113643866"><ele>1119.4</ele><time>2026-05-01T13:14:41Z</time></trkpt><trkpt lat="45.8098589016293" lon="11.43139534431498"><ele>1115.8</ele><time>2026-05-01T13:14:42Z</time></trkpt><trkpt lat="45.80978691419693" lon="11.431312442309387"><ele>1112.2</ele><time>2026-05-01T13:14:43Z</time></trkpt><trkpt lat="45.80970746409224" lon="11.43125787673227"><ele>1108.6</ele><time>2026-05-01T13:14:44Z</time></trkpt><trkpt lat="45.809615910332404" lon="11.431189229577862"><ele>1105.0</ele><time>2026-05-01T13:14:45Z</time></trkpt><trkpt lat="45.80953771541101" lon="11.431089861872717"><ele>1105.0</ele><time>2026-05-01T13:14:46Z</time></trkpt><trkpt lat="45.80945973082698" lon="11.430999787317873"><ele>1105.0</ele><time>2026-05-01T13:14:47Z</time></trkpt><trkpt lat="45.80939462008375" lon="11.430916420543474"><ele>1105.0</ele><time>2026-05-01T13:14:48Z</time></trkpt><trkpt lat="45.80934003978233" lon="11.430853850948408"><ele>1105.0</ele><time>2026-05-01T13:14:49Z</time></trkpt><trkpt lat="45.80943105604757" lon="11.430850274411894"><ele>1105.0</ele><time>2026-05-01T13:15:34Z</time></trkpt><trkpt lat="45.809518071255404" lon="11.430934549656758"><ele>1105.0</ele><time>2026-05-01T13:15:35Z</time></trkpt><trkpt lat="45.80964830416029" lon="11.431067669310165"><ele>1105.0</ele><time>2026-05-01T13:15:36Z</time></trkpt><trkpt lat="45.80976492192706" lon="11.431197629361897"><ele>1105.0</ele><time>2026-05-01T13:15:37Z</time></trkpt><trkpt lat="45.809903565037814" lon="11.43103535694722"><ele>1105.0</ele><time>2026-05-01T13:15:38Z</time></trkpt><trkpt lat="45.81000745828444" lon="11.43101106717645"><ele>1105.0</ele><time>2026-05-01T13:15:39Z</time></trkpt><trkpt lat="45.81007957588285" lon="11.431073767142808"><ele>1105.0</ele><time>2026-05-01T13:15:40Z</time></trkpt><trkpt lat="45.81015205106836" lon="11.431162209745409"><ele>1105.0</ele><time>2026-05-01T13:15:41Z</time></trkpt><trkpt lat="45.8102193966383" lon="11.431228199204435"><ele>1105.0</ele><time>2026-05-01T13:15:42Z</time></trkpt><trkpt lat="45.81029679622957" lon="11.431237400980493"><ele>1105.0</ele><time>2026-05-01T13:15:43Z</time></trkpt><trkpt lat="45.810379589535245" lon="11.431241258660357"><ele>1102.1666666666665</ele><time>2026-05-01T13:15:45Z</time></trkpt><trkpt lat="45.81046401461427" lon="11.431237517804291"><ele>1099.3333333333333</ele><time>2026-05-01T13:15:48Z</time></trkpt><trkpt lat="45.81053234632832" lon="11.431223950482543"><ele>1096.5</ele><time>2026-05-01T13:16:12.001Z</time></trkpt><trkpt lat="45.81054013893589" lon="11.431118407936866"><ele>1093.6666666666667</ele><time>2026-05-01T13:16:20Z</time></trkpt><trkpt lat="45.810593601814595" lon="11.431070122575237"><ele>1090.8333333333335</ele><time>2026-05-01T13:16:29Z</time></trkpt><trkpt lat="45.8106914115076" lon="11.431063055506735"><ele>1088.0</ele><time>2026-05-01T13:16:36Z</time></trkpt><trkpt lat="45.810784731419226" lon="11.431065492764294"><ele>1088.0</ele><time>2026-05-01T13:16:38Z</time></trkpt><trkpt lat="45.81086496531508" lon="11.431105050256683"><ele>1088.0</ele><time>2026-05-01T13:16:40Z</time></trkpt><trkpt lat="45.81093201990923" lon="11.431114453122683"><ele>1088.0</ele><time>2026-05-01T13:16:41Z</time></trkpt><trkpt lat="45.81100243960165" lon="11.43113670324434"><ele>1088.0</ele><time>2026-05-01T13:16:42Z</time></trkpt><trkpt lat="45.81106488385759" lon="11.431152470035492"><ele>1088.0</ele><time>2026-05-01T13:16:43Z</time></trkpt><trkpt lat="45.811192721554264" lon="11.431176088943376"><ele>1088.0</ele><time>2026-05-01T13:16:45Z</time></trkpt><trkpt lat="45.811258752102425" lon="11.431195312347683"><ele>1084.8333333333335</ele><time>2026-05-01T13:16:46Z</time></trkpt><trkpt lat="45.81132973357767" lon="11.431209152870553"><ele>1081.6666666666667</ele><time>2026-05-01T13:16:47Z</time></trkpt><trkpt lat="45.81144282140867" lon="11.43118239603712"><ele>1078.5</ele><time>2026-05-01T13:16:49Z</time></trkpt><trkpt lat="45.811515541432115" lon="11.431205626072739"><ele>1075.3333333333333</ele><time>2026-05-01T13:16:50Z</time></trkpt><trkpt lat="45.811594737219735" lon="11.431226882811812"><ele>1072.1666666666665</ele><time>2026-05-01T13:16:51Z</time></trkpt><trkpt lat="45.81167222921841" lon="11.431247009896964"><ele>1069.0</ele><time>2026-05-01T13:16:52Z</time></trkpt><trkpt lat="45.811747473972005" lon="11.431253888741077"><ele>1069.0</ele><time>2026-05-01T13:16:53Z</time></trkpt><trkpt lat="45.81182312394202" lon="11.431268745229517"><ele>1069.0</ele><time>2026-05-01T13:16:54Z</time></trkpt><trkpt lat="45.811917336115144" lon="11.431296841293845"><ele>1069.0</ele><time>2026-05-01T13:16:56Z</time></trkpt><trkpt lat="45.81200027381141" lon="11.431305150343816"><ele>1069.0</ele><time>2026-05-01T13:16:58Z</time></trkpt><trkpt lat="45.81208567293331" lon="11.431307442608961"><ele>1069.0</ele><time>2026-05-01T13:17:00Z</time></trkpt><trkpt lat="45.812165002809415" lon="11.431342048163936"><ele>1069.0</ele><time>2026-05-01T13:17:02Z</time></trkpt><trkpt lat="45.81222939104023" lon="11.43133179492927"><ele>1066.3333333333333</ele><time>2026-05-01T13:17:04Z</time></trkpt><trkpt lat="45.81229663418164" lon="11.431304385101674"><ele>1063.6666666666665</ele><time>2026-05-01T13:17:06Z</time></trkpt><trkpt lat="45.81237193587171" lon="11.431274107910083"><ele>1061.0</ele><time>2026-05-01T13:17:09Z</time></trkpt><trkpt lat="45.812444118600745" lon="11.431285688440907"><ele>1058.3333333333333</ele><time>2026-05-01T13:17:12Z</time></trkpt><trkpt lat="45.812511303042086" lon="11.431289570572158"><ele>1055.6666666666667</ele><time>2026-05-01T13:17:14Z</time></trkpt><trkpt lat="45.812589296566046" lon="11.431275388038456"><ele>1053.0</ele><time>2026-05-01T13:17:16Z</time></trkpt><trkpt lat="45.81267723669831" lon="11.43132015766425"><ele>1053.0</ele><time>2026-05-01T13:17:19Z</time></trkpt><trkpt lat="45.81275225710889" lon="11.431316059726758"><ele>1053.0</ele><time>2026-05-01T13:17:23Z</time></trkpt><trkpt lat="45.81281610288844" lon="11.431301481690763"><ele>1053.0</ele><time>2026-05-01T13:17:26Z</time></trkpt><trkpt lat="45.81290489408347" lon="11.431328474321202"><ele>1053.0</ele><time>2026-05-01T13:17:28Z</time></trkpt><trkpt lat="45.8129788199174" lon="11.43138327216962"><ele>1053.0</ele><time>2026-05-01T13:17:30Z</time></trkpt><trkpt lat="45.813050771532694" lon="11.4314208511664"><ele>1053.0</ele><time>2026-05-01T13:17:32Z</time></trkpt><trkpt lat="45.81311935053487" lon="11.43146179228624"><ele>1053.0</ele><time>2026-05-01T13:17:34Z</time></trkpt><trkpt lat="45.813251056655716" lon="11.431388562559604"><ele>1053.0</ele><time>2026-05-01T13:17:35Z</time></trkpt><trkpt lat="45.81337085206161" lon="11.431503829696524"><ele>1053.0</ele><time>2026-05-01T13:17:38Z</time></trkpt><trkpt lat="45.81345087517928" lon="11.431576251999696"><ele>1053.0</ele><time>2026-05-01T13:17:40Z</time></trkpt><trkpt lat="45.81351149575798" lon="11.431618604264544"><ele>1053.0</ele><time>2026-05-01T13:17:42Z</time></trkpt><trkpt lat="45.81358570780619" lon="11.431679761068459"><ele>1046.6666666666667</ele><time>2026-05-01T13:17:44Z</time></trkpt><trkpt lat="45.813648751629096" lon="11.431737965619527"><ele>1040.3333333333333</ele><time>2026-05-01T13:17:46Z</time></trkpt><trkpt lat="45.813729976825975" lon="11.431769322968247"><ele>1034.0</ele><time>2026-05-01T13:17:49Z</time></trkpt><trkpt lat="45.81380552937894" lon="11.431829687250163"><ele>1027.6666666666665</ele><time>2026-05-01T13:17:51Z</time></trkpt><trkpt lat="45.8138976242325" lon="11.431868108402366"><ele>1021.3333333333333</ele><time>2026-05-01T13:17:53Z</time></trkpt><trkpt lat="45.81396947008197" lon="11.431924570998769"><ele>1015.0</ele><time>2026-05-01T13:17:56Z</time></trkpt><trkpt lat="45.813902629203575" lon="11.431813156886687"><ele>1014.9999999999999</ele><time>2026-05-01T13:17:57Z</time></trkpt><trkpt lat="45.81395895364017" lon="11.431913943549517"><ele>1015.0</ele><time>2026-05-01T13:18:00Z</time></trkpt><trkpt lat="45.81402361042458" lon="11.43197835060652"><ele>1015.0</ele><time>2026-05-01T13:18:03Z</time></trkpt><trkpt lat="45.81410142260968" lon="11.432000279592549"><ele>1015.0</ele><time>2026-05-01T13:18:06.001Z</time></trkpt><trkpt lat="45.81416827125263" lon="11.432040126577014"><ele>1014.9999999999999</ele><time>2026-05-01T13:18:10.001Z</time></trkpt><trkpt lat="45.81423421061114" lon="11.432128116558452"><ele>1015.0</ele><time>2026-05-01T13:18:36Z</time></trkpt><trkpt lat="45.8142957398513" lon="11.432223446375579"><ele>1012.4999999999999</ele><time>2026-05-01T13:19:24Z</time></trkpt><trkpt lat="45.81434803373895" lon="11.432158757981831"><ele>1010.0</ele><time>2026-05-01T13:19:27Z</time></trkpt><trkpt lat="45.81439648842017" lon="11.432099726064699"><ele>1007.5</ele><time>2026-05-01T13:19:30Z</time></trkpt><trkpt lat="45.81445408346529" lon="11.432047897457666"><ele>1005.0</ele><time>2026-05-01T13:19:33Z</time></trkpt><trkpt lat="45.81451967724595" lon="11.432031023826182"><ele>1002.4999999999999</ele><time>2026-05-01T13:19:35Z</time></trkpt><trkpt lat="45.81459542283038" lon="11.432004627957294"><ele>1000.0</ele><time>2026-05-01T13:19:38Z</time></trkpt><trkpt lat="45.814700228006146" lon="11.431976614991525"><ele>997.4999999999999</ele><time>2026-05-01T13:19:41Z</time></trkpt><trkpt lat="45.81478175618626" lon="11.431963597030894"><ele>995.0</ele><time>2026-05-01T13:19:43Z</time></trkpt><trkpt lat="45.81486251561135" lon="11.431945516802438"><ele>992.5</ele><time>2026-05-01T13:19:46Z</time></trkpt><trkpt lat="45.8149328841836" lon="11.431935154508134"><ele>990.0</ele><time>2026-05-01T13:19:49Z</time></trkpt><trkpt lat="45.81502527279421" lon="11.431928559713187"><ele>987.4999999999999</ele><time>2026-05-01T13:19:52Z</time></trkpt><trkpt lat="45.81509949305426" lon="11.431920459984104"><ele>985.0</ele><time>2026-05-01T13:19:56Z</time></trkpt><trkpt lat="45.81515901768044" lon="11.431838675726498"><ele>984.9999999999999</ele><time>2026-05-01T13:20:00Z</time></trkpt><trkpt lat="45.81522514998683" lon="11.431771582364815"><ele>985.0</ele><time>2026-05-01T13:20:04Z</time></trkpt><trkpt lat="45.81518483255769" lon="11.43166278135749"><ele>985.0</ele><time>2026-05-01T13:20:09Z</time></trkpt><trkpt lat="45.81517758746706" lon="11.431534869623059"><ele>985.0</ele><time>2026-05-01T13:20:13Z</time></trkpt><trkpt lat="45.815152850148365" lon="11.431417946029503"><ele>984.9999999999999</ele><time>2026-05-01T13:20:17Z</time></trkpt><trkpt lat="45.815115320186734" lon="11.43131117087682"><ele>985.0</ele><time>2026-05-01T13:20:18Z</time></trkpt><trkpt lat="45.81509802035057" lon="11.43121468454346"><ele>982.0</ele><time>2026-05-01T13:20:19Z</time></trkpt><trkpt lat="45.8150827044016" lon="11.431106238759996"><ele>979.0</ele><time>2026-05-01T13:20:20Z</time></trkpt><trkpt lat="45.815055826151735" lon="11.430938738380489"><ele>976.0</ele><time>2026-05-01T13:20:22Z</time></trkpt><trkpt lat="45.81501488800911" lon="11.430781472436795"><ele>973.0</ele><time>2026-05-01T13:20:24Z</time></trkpt><trkpt lat="45.814960049931074" lon="11.430640314738325"><ele>970.0</ele><time>2026-05-01T13:20:26Z</time></trkpt><trkpt lat="45.81490157780228" lon="11.430510161271947"><ele>967.6</ele><time>2026-05-01T13:20:28Z</time></trkpt><trkpt lat="45.81483761670668" lon="11.430382054004548"><ele>965.2</ele><time>2026-05-01T13:20:30Z</time></trkpt><trkpt lat="45.81477948257072" lon="11.430290008013232"><ele>962.8</ele><time>2026-05-01T13:20:32Z</time></trkpt><trkpt lat="45.81470894149712" lon="11.4301330843654"><ele>960.4</ele><time>2026-05-01T13:21:02Z</time></trkpt><trkpt lat="45.81465417290038" lon="11.430060408615597"><ele>958.0</ele><time>2026-05-01T13:21:05Z</time></trkpt><trkpt lat="45.81459262559966" lon="11.43002509247441"><ele>957.9999999999999</ele><time>2026-05-01T13:21:11Z</time></trkpt><trkpt lat="45.81454188149607" lon="11.429964620593038"><ele>958.0</ele><time>2026-05-01T13:21:26Z</time></trkpt><trkpt lat="45.814485177422306" lon="11.430037628565035"><ele>958.0</ele><time>2026-05-01T13:21:30Z</time></trkpt><trkpt lat="45.8144077127321" lon="11.430160857359791"><ele>958.0</ele><time>2026-05-01T13:21:32Z</time></trkpt><trkpt lat="45.81435502375259" lon="11.430245494210048"><ele>957.9999999999999</ele><time>2026-05-01T13:21:33Z</time></trkpt><trkpt lat="45.81429821588377" lon="11.430187379322803"><ele>958.0</ele><time>2026-05-01T13:21:34Z</time></trkpt><trkpt lat="45.814254310701905" lon="11.430282910767303"><ele>960.6666666666666</ele><time>2026-05-01T13:21:36Z</time></trkpt><trkpt lat="45.81419952032626" lon="11.430377514262835"><ele>963.3333333333333</ele><time>2026-05-01T13:21:38Z</time></trkpt><trkpt lat="45.81415844454984" lon="11.43044884117345"><ele>966.0</ele><time>2026-05-01T13:21:39Z</time></trkpt><trkpt lat="45.81407137255215" lon="11.430529727193791"><ele>968.6666666666667</ele><time>2026-05-01T13:21:41Z</time></trkpt><trkpt lat="45.81399534807606" lon="11.43054186528428"><ele>971.3333333333334</ele><time>2026-05-01T13:21:42Z</time></trkpt><trkpt lat="45.8139333843702" lon="11.430574662027116"><ele>974.0</ele><time>2026-05-01T13:21:44Z</time></trkpt><trkpt lat="45.813792363709815" lon="11.430694957870456"><ele>977.5000000000001</ele><time>2026-05-01T13:21:46Z</time></trkpt><trkpt lat="45.81370962875551" lon="11.430743290254412"><ele>981.0</ele><time>2026-05-01T13:21:48Z</time></trkpt><trkpt lat="45.81363461590636" lon="11.43080403029579"><ele>984.5</ele><time>2026-05-01T13:21:51Z</time></trkpt><trkpt lat="45.81360034155737" lon="11.430882172483143"><ele>988.0</ele><time>2026-05-01T13:21:55Z</time></trkpt><trkpt lat="45.813708618608565" lon="11.430759927763955"><ele>991.5000000000001</ele><time>2026-05-01T13:21:56Z</time></trkpt><trkpt lat="45.81366663692497" lon="11.43083599532684"><ele>995.0</ele><time>2026-05-01T13:22:01Z</time></trkpt><trkpt lat="45.81369775355173" lon="11.430948193898033"><ele>995.0000000000001</ele><time>2026-05-01T13:22:24Z</time></trkpt><trkpt lat="45.81377903818617" lon="11.430957045750946"><ele>995.0</ele><time>2026-05-01T13:22:29Z</time></trkpt><trkpt lat="45.81383372048634" lon="11.43089015240831"><ele>995.0</ele><time>2026-05-01T13:22:32Z</time></trkpt><trkpt lat="45.81391257504256" lon="11.43088835722203"><ele>995.0</ele><time>2026-05-01T13:22:36Z</time></trkpt><trkpt lat="45.813982055501654" lon="11.430832725436124"><ele>995.0000000000001</ele><time>2026-05-01T13:22:39Z</time></trkpt><trkpt lat="45.81404492107791" lon="11.430795784390934"><ele>995.0</ele><time>2026-05-01T13:22:41Z</time></trkpt><trkpt lat="45.81410344829011" lon="11.430740792797446"><ele>995.0000000000001</ele><time>2026-05-01T13:22:43Z</time></trkpt><trkpt lat="45.814151312896385" lon="11.430649644318056"><ele>995.0</ele><time>2026-05-01T13:22:46Z</time></trkpt><trkpt lat="45.81421055294938" lon="11.430541756686491"><ele>995.0</ele><time>2026-05-01T13:22:49Z</time></trkpt><trkpt lat="45.814271218129605" lon="11.430464288900499"><ele>995.0</ele><time>2026-05-01T13:22:51Z</time></trkpt><trkpt lat="45.81432959845415" lon="11.430407650929931"><ele>995.0000000000001</ele><time>2026-05-01T13:22:53Z</time></trkpt><trkpt lat="45.81439740230976" lon="11.430340612022583"><ele>995.0</ele><time>2026-05-01T13:22:55Z</time></trkpt><trkpt lat="45.814435786150234" lon="11.430267103615005"><ele>995.0</ele><time>2026-05-01T13:22:57Z</time></trkpt><trkpt lat="45.81434962783072" lon="11.430251413775046"><ele>995.0</ele><time>2026-05-01T13:24:24Z</time></trkpt><trkpt lat="45.814258690564934" lon="11.430287499305559"><ele>995.0</ele><time>2026-05-01T13:24:26Z</time></trkpt><trkpt lat="45.81414790304372" lon="11.43040508401517"><ele>995.0</ele><time>2026-05-01T13:24:29Z</time></trkpt><trkpt lat="45.81407555493843" lon="11.430511189672337"><ele>995.0</ele><time>2026-05-01T13:24:31Z</time></trkpt><trkpt lat="45.8139550995957" lon="11.430633003824276"><ele>995.0000000000001</ele><time>2026-05-01T13:24:34Z</time></trkpt><trkpt lat="45.8138667071524" lon="11.430660262471227"><ele>995.0</ele><time>2026-05-01T13:24:36Z</time></trkpt><trkpt lat="45.81381292676494" lon="11.43075304442799"><ele>995.0</ele><time>2026-05-01T13:24:39Z</time></trkpt><trkpt lat="45.81375932001542" lon="11.430823727742476"><ele>995.0</ele><time>2026-05-01T13:24:42Z</time></trkpt><trkpt lat="45.81376882600885" lon="11.430920319509134"><ele>995.0000000000001</ele><time>2026-05-01T13:24:46Z</time></trkpt><trkpt lat="45.8138216832324" lon="11.43098752848383"><ele>995.0</ele><time>2026-05-01T13:24:49Z</time></trkpt><trkpt lat="45.813903064217875" lon="11.431006996733432"><ele>995.0000000000001</ele><time>2026-05-01T13:24:53Z</time></trkpt><trkpt lat="45.81396440587888" lon="11.430981305858376"><ele>995.0</ele><time>2026-05-01T13:24:56Z</time></trkpt><trkpt lat="45.81394708199313" lon="11.430885435836352"><ele>995.0</ele><time>2026-05-01T13:24:57Z</time></trkpt><trkpt lat="45.81400719154574" lon="11.430844880789417"><ele>995.0</ele><time>2026-05-01T13:25:01Z</time></trkpt><trkpt lat="45.81406534477498" lon="11.430791441672262"><ele>995.0000000000001</ele><time>2026-05-01T13:25:04Z</time></trkpt><trkpt lat="45.81413629294817" lon="11.430713752694663"><ele>995.0</ele><time>2026-05-01T13:25:07Z</time></trkpt><trkpt lat="45.81421275160035" lon="11.430589687440452"><ele>995.0000000000001</ele><time>2026-05-01T13:25:10Z</time></trkpt><trkpt lat="45.81427716667446" lon="11.430506798238115"><ele>995.0</ele><time>2026-05-01T13:25:14Z</time></trkpt><trkpt lat="45.81434027136151" lon="11.43044817249547"><ele>995.0</ele><time>2026-05-01T13:25:17Z</time></trkpt><trkpt lat="45.81441882596753" lon="11.430334775295625"><ele>995.0</ele><time>2026-05-01T13:25:20Z</time></trkpt><trkpt lat="45.81447344438743" lon="11.430287592451648"><ele>995.0000000000001</ele><time>2026-05-01T13:26:37Z</time></trkpt><trkpt lat="45.814494943287265" lon="11.43017921702296"><ele>995.0</ele><time>2026-05-01T13:31:53Z</time></trkpt><trkpt lat="45.814529457233895" lon="11.430078460886957"><ele>992.0</ele><time>2026-05-01T13:31:56Z</time></trkpt><trkpt lat="45.81453732169416" lon="11.429980510468136"><ele>989.0</ele><time>2026-05-01T13:32:00Z</time></trkpt><trkpt lat="45.81449094516208" lon="11.429898081601706"><ele>986.0</ele><time>2026-05-01T13:32:02Z</time></trkpt><trkpt lat="45.814434290114896" lon="11.429836027884383"><ele>983.0</ele><time>2026-05-01T13:32:03Z</time></trkpt><trkpt lat="45.814364348448215" lon="11.429750089654439"><ele>980.0</ele><time>2026-05-01T13:32:04Z</time></trkpt><trkpt lat="45.81430806132644" lon="11.429678992315914"><ele>977.0</ele><time>2026-05-01T13:32:05Z</time></trkpt><trkpt lat="45.814258270973006" lon="11.42962036833762"><ele>974.0</ele><time>2026-05-01T13:32:06Z</time></trkpt><trkpt lat="45.814209456366314" lon="11.429561010568571"><ele>970.0000000000001</ele><time>2026-05-01T13:32:07Z</time></trkpt><trkpt lat="45.81411454748503" lon="11.429438355584104"><ele>966.0</ele><time>2026-05-01T13:32:09Z</time></trkpt><trkpt lat="45.81406885109527" lon="11.429373302499874"><ele>962.0</ele><time>2026-05-01T13:32:10Z</time></trkpt><trkpt lat="45.81401527924792" lon="11.429307514707965"><ele>958.0</ele><time>2026-05-01T13:32:11Z</time></trkpt><trkpt lat="45.81395852315705" lon="11.429251140534594"><ele>954.0000000000001</ele><time>2026-05-01T13:32:12Z</time></trkpt><trkpt lat="45.813909293134216" lon="11.429185701899616"><ele>950.0</ele><time>2026-05-01T13:32:13Z</time></trkpt><trkpt lat="45.813862670441566" lon="11.429117369036069"><ele>950.0000000000001</ele><time>2026-05-01T13:32:14Z</time></trkpt><trkpt lat="45.813799660977075" lon="11.429053988376847"><ele>950.0</ele><time>2026-05-01T13:32:15Z</time></trkpt><trkpt lat="45.81373420875513" lon="11.42899173944248"><ele>950.0</ele><time>2026-05-01T13:32:16Z</time></trkpt><trkpt lat="45.813672760968075" lon="11.428925476366384"><ele>950.0</ele><time>2026-05-01T13:32:17Z</time></trkpt><trkpt lat="45.8136237288431" lon="11.42886358409639"><ele>950.0000000000001</ele><time>2026-05-01T13:32:18Z</time></trkpt><trkpt lat="45.81357587750459" lon="11.42880346027021"><ele>950.0</ele><time>2026-05-01T13:32:19Z</time></trkpt><trkpt lat="45.81350947540572" lon="11.428716087017676"><ele>948.4</ele><time>2026-05-01T13:32:21Z</time></trkpt><trkpt lat="45.81347084491951" lon="11.42862815336093"><ele>946.8</ele><time>2026-05-01T13:32:25Z</time></trkpt><trkpt lat="45.813381652210836" lon="11.428538220288749"><ele>945.2</ele><time>2026-05-01T13:32:27Z</time></trkpt><trkpt lat="45.813308172094025" lon="11.428442730359519"><ele>943.6</ele><time>2026-05-01T13:32:29Z</time></trkpt><trkpt lat="45.81325032458056" lon="11.42836178798485"><ele>942.0</ele><time>2026-05-01T13:32:31Z</time></trkpt><trkpt lat="45.81317249176169" lon="11.428270945647531"><ele>942.0</ele><time>2026-05-01T13:32:33Z</time></trkpt><trkpt lat="45.8130930864865" lon="11.428144018637123"><ele>942.0</ele><time>2026-05-01T13:32:35Z</time></trkpt><trkpt lat="45.813009303380966" lon="11.428022375153864"><ele>942.0</ele><time>2026-05-01T13:32:37Z</time></trkpt><trkpt lat="45.81293081437974" lon="11.427902391449548"><ele>942.0</ele><time>2026-05-01T13:32:39Z</time></trkpt><trkpt lat="45.812886670297566" lon="11.427821872470096"><ele>942.0</ele><time>2026-05-01T13:32:41Z</time></trkpt><trkpt lat="45.81282782028226" lon="11.427776802649438"><ele>942.3333333333334</ele><time>2026-05-01T13:32:47Z</time></trkpt><trkpt lat="45.81276626733629" lon="11.427690410616677"><ele>942.6666666666667</ele><time>2026-05-01T13:32:52Z</time></trkpt><trkpt lat="45.812714926941794" lon="11.427608562190342"><ele>943.0</ele><time>2026-05-01T13:32:53Z</time></trkpt><trkpt lat="45.812629803495305" lon="11.427529575925435"><ele>943.3333333333334</ele><time>2026-05-01T13:32:54Z</time></trkpt><trkpt lat="45.81254025111945" lon="11.427466878825056"><ele>943.6666666666667</ele><time>2026-05-01T13:32:55Z</time></trkpt><trkpt lat="45.81246642742339" lon="11.427418840882803"><ele>944.0</ele><time>2026-05-01T13:32:56Z</time></trkpt><trkpt lat="45.81240831186191" lon="11.427363091763024"><ele>942.6666666666667</ele><time>2026-05-01T13:32:57Z</time></trkpt><trkpt lat="45.81234035086094" lon="11.427264311538465"><ele>941.3333333333334</ele><time>2026-05-01T13:32:59Z</time></trkpt><trkpt lat="45.812273169985815" lon="11.427195997529251"><ele>940.0</ele><time>2026-05-01T13:33:01Z</time></trkpt><trkpt lat="45.81219805704106" lon="11.427140211258605"><ele>938.6666666666667</ele><time>2026-05-01T13:33:03Z</time></trkpt><trkpt lat="45.812139326727696" lon="11.427075884689463"><ele>937.3333333333334</ele><time>2026-05-01T13:33:05Z</time></trkpt><trkpt lat="45.81207197850448" lon="11.426989186707608"><ele>936.0</ele><time>2026-05-01T13:33:07Z</time></trkpt><trkpt lat="45.81200100475339" lon="11.426894160087892"><ele>935.8</ele><time>2026-05-01T13:33:09Z</time></trkpt><trkpt lat="45.81190656763993" lon="11.426800602157616"><ele>935.5999999999999</ele><time>2026-05-01T13:33:11Z</time></trkpt><trkpt lat="45.81180499034371" lon="11.426762058425057"><ele>935.4</ele><time>2026-05-01T13:33:13Z</time></trkpt><trkpt lat="45.81172678032595" lon="11.426701191108924"><ele>935.2</ele><time>2026-05-01T13:33:15Z</time></trkpt><trkpt lat="45.81166552073011" lon="11.42665351554726"><ele>935.0</ele><time>2026-05-01T13:33:17Z</time></trkpt><trkpt lat="45.811584799461976" lon="11.426590693849613"><ele>933.4</ele><time>2026-05-01T13:33:19Z</time></trkpt><trkpt lat="45.81147819204187" lon="11.426507726150968"><ele>931.8</ele><time>2026-05-01T13:33:21Z</time></trkpt><trkpt lat="45.81138380863219" lon="11.426436470927412"><ele>930.2</ele><time>2026-05-01T13:33:23Z</time></trkpt><trkpt lat="45.81132156958105" lon="11.426391032932907"><ele>928.6</ele><time>2026-05-01T13:33:24Z</time></trkpt><trkpt lat="45.81122541121376" lon="11.426324215955503"><ele>927.0</ele><time>2026-05-01T13:33:26Z</time></trkpt><trkpt lat="45.811166736458325" lon="11.426289440958305"><ele>926.4000000000001</ele><time>2026-05-01T13:33:27Z</time></trkpt><trkpt lat="45.8111075874968" lon="11.426258060563713"><ele>925.8000000000001</ele><time>2026-05-01T13:33:28Z</time></trkpt><trkpt lat="45.81100497643405" lon="11.426216123889311"><ele>925.2</ele><time>2026-05-01T13:33:30Z</time></trkpt><trkpt lat="45.81089006030508" lon="11.426183080559522"><ele>924.6</ele><time>2026-05-01T13:33:32Z</time></trkpt><trkpt lat="45.81077778169391" lon="11.42615454853498"><ele>924.0</ele><time>2026-05-01T13:33:34Z</time></trkpt><trkpt lat="45.81071356256422" lon="11.426138952278421"><ele>921.6</ele><time>2026-05-01T13:33:35Z</time></trkpt><trkpt lat="45.810598461129416" lon="11.426110998713684"><ele>919.2</ele><time>2026-05-01T13:33:37Z</time></trkpt><trkpt lat="45.81049596443157" lon="11.426086106355195"><ele>916.8000000000001</ele><time>2026-05-01T13:33:39Z</time></trkpt><trkpt lat="45.81036622366558" lon="11.426054597497284"><ele>914.4000000000001</ele><time>2026-05-01T13:33:41Z</time></trkpt><trkpt lat="45.81029330226962" lon="11.426036887811533"><ele>912.0</ele><time>2026-05-01T13:33:42Z</time></trkpt><trkpt lat="45.81022471713051" lon="11.42601896005893"><ele>911.0</ele><time>2026-05-01T13:33:43Z</time></trkpt><trkpt lat="45.81012234213474" lon="11.425989883607727"><ele>910.0</ele><time>2026-05-01T13:33:44Z</time></trkpt><trkpt lat="45.8100081681455" lon="11.425932004650312"><ele>909.0</ele><time>2026-05-01T13:33:45Z</time></trkpt><trkpt lat="45.80990875877869" lon="11.425863110585734"><ele>908.0</ele><time>2026-05-01T13:33:46Z</time></trkpt><trkpt lat="45.809811728568825" lon="11.425767775086646"><ele>908.0000000000001</ele><time>2026-05-01T13:33:47Z</time></trkpt><trkpt lat="45.80973216471275" lon="11.425660572713532"><ele>908.0</ele><time>2026-05-01T13:33:48Z</time></trkpt><trkpt lat="45.80967895578104" lon="11.425581061934775"><ele>908.0</ele><time>2026-05-01T13:33:49Z</time></trkpt><trkpt lat="45.809628912373896" lon="11.425506561830183"><ele>908.0</ele><time>2026-05-01T13:33:50Z</time></trkpt><trkpt lat="45.80957327590322" lon="11.425421502445744"><ele>908.0000000000001</ele><time>2026-05-01T13:33:51Z</time></trkpt><trkpt lat="45.80951399228474" lon="11.425330867242026"><ele>908.0</ele><time>2026-05-01T13:33:52Z</time></trkpt><trkpt lat="45.809458511592474" lon="11.425246045776278"><ele>907.4</ele><time>2026-05-01T13:33:53Z</time></trkpt><trkpt lat="45.80940493146055" lon="11.425171183416007"><ele>906.8</ele><time>2026-05-01T13:33:54Z</time></trkpt><trkpt lat="45.80930189508937" lon="11.425058427204128"><ele>906.2</ele><time>2026-05-01T13:33:56Z</time></trkpt><trkpt lat="45.80921781140405" lon="11.424996335592567"><ele>905.6</ele><time>2026-05-01T13:33:58Z</time></trkpt><trkpt lat="45.80913782544162" lon="11.42493440203214"><ele>905.0</ele><time>2026-05-01T13:33:59Z</time></trkpt><trkpt lat="45.80902592838418" lon="11.424886044444214"><ele>905.0</ele><time>2026-05-01T13:34:01Z</time></trkpt><trkpt lat="45.808922028444805" lon="11.424857876096887"><ele>905.0</ele><time>2026-05-01T13:34:03Z</time></trkpt><trkpt lat="45.80885901119567" lon="11.424846446674277"><ele>905.0</ele><time>2026-05-01T13:34:04Z</time></trkpt><trkpt lat="45.80876361614045" lon="11.424801173930675"><ele>905.0</ele><time>2026-05-01T13:34:06Z</time></trkpt><trkpt lat="45.80867665030554" lon="11.424751903257343"><ele>905.0</ele><time>2026-05-01T13:34:07Z</time></trkpt><trkpt lat="45.80847645632707" lon="11.42467903752964"><ele>900.0</ele><time>2026-05-01T13:34:08Z</time></trkpt><trkpt lat="45.808298056369864" lon="11.424535826264856"><ele>895.0</ele><time>2026-05-01T13:34:09Z</time></trkpt><trkpt lat="45.80816961163454" lon="11.42436778237183"><ele>890.0</ele><time>2026-05-01T13:34:10Z</time></trkpt><trkpt lat="45.80808666328542" lon="11.424318963636873"><ele>890.0000000000001</ele><time>2026-05-01T13:34:11Z</time></trkpt><trkpt lat="45.80800318889565" lon="11.424268213946192"><ele>890.0</ele><time>2026-05-01T13:34:12Z</time></trkpt><trkpt lat="45.80792323139047" lon="11.424219794877507"><ele>890.0</ele><time>2026-05-01T13:34:13Z</time></trkpt><trkpt lat="45.80783723170092" lon="11.424155705514975"><ele>890.0</ele><time>2026-05-01T13:34:14Z</time></trkpt><trkpt lat="45.80777828054587" lon="11.424114872898016"><ele>890.0000000000001</ele><time>2026-05-01T13:34:15Z</time></trkpt><trkpt lat="45.80770084956047" lon="11.42408684703625"><ele>890.0</ele><time>2026-05-01T13:34:17Z</time></trkpt><trkpt lat="45.807651010895825" lon="11.424017829819253"><ele>890.6666666666667</ele><time>2026-05-01T13:34:19Z</time></trkpt><trkpt lat="45.80763778836085" lon="11.423899855266786"><ele>891.3333333333334</ele><time>2026-05-01T13:34:21Z</time></trkpt><trkpt lat="45.80761788110554" lon="11.423770750580116"><ele>892.0</ele><time>2026-05-01T13:34:23Z</time></trkpt><trkpt lat="45.80761024887498" lon="11.423641887874192"><ele>892.6666666666667</ele><time>2026-05-01T13:34:25Z</time></trkpt><trkpt lat="45.80764172726444" lon="11.42355746148111"><ele>893.3333333333334</ele><time>2026-05-01T13:34:27Z</time></trkpt><trkpt lat="45.807627895952855" lon="11.423434321088036"><ele>894.0</ele><time>2026-05-01T13:34:29Z</time></trkpt><trkpt lat="45.807604233997466" lon="11.423293640296237"><ele>889.2</ele><time>2026-05-01T13:34:31Z</time></trkpt><trkpt lat="45.80756047736874" lon="11.423204431606273"><ele>884.4000000000001</ele><time>2026-05-01T13:34:33Z</time></trkpt><trkpt lat="45.80757087083579" lon="11.42287652528577"><ele>879.6</ele><time>2026-05-01T13:34:35Z</time></trkpt><trkpt lat="45.80753743727381" lon="11.4227899030187"><ele>874.8</ele><time>2026-05-01T13:34:39Z</time></trkpt><trkpt lat="45.807484864593796" lon="11.42272898250995"><ele>870.0</ele><time>2026-05-01T13:34:42Z</time></trkpt><trkpt lat="45.80741412541359" lon="11.422676547352186"><ele>868.6666666666666</ele><time>2026-05-01T13:34:44Z</time></trkpt><trkpt lat="45.807356081493595" lon="11.422590017200493"><ele>867.3333333333333</ele><time>2026-05-01T13:34:46Z</time></trkpt><trkpt lat="45.80727045984846" lon="11.422549702717001"><ele>866.0</ele><time>2026-05-01T13:34:49Z</time></trkpt><trkpt lat="45.80718275302873" lon="11.422499451533142"><ele>864.6666666666666</ele><time>2026-05-01T13:34:52Z</time></trkpt><trkpt lat="45.80709124736195" lon="11.422418862974402"><ele>863.3333333333333</ele><time>2026-05-01T13:34:55Z</time></trkpt><trkpt lat="45.807033435942195" lon="11.422353088105561"><ele>862.0</ele><time>2026-05-01T13:34:58Z</time></trkpt><trkpt lat="45.80697401675903" lon="11.422310782880663"><ele>862.0</ele><time>2026-05-01T13:35:00Z</time></trkpt><trkpt lat="45.80689694223008" lon="11.422270185082901"><ele>862.0</ele><time>2026-05-01T13:35:03Z</time></trkpt><trkpt lat="45.80682970411116" lon="11.42223098571738"><ele>862.0</ele><time>2026-05-01T13:35:06Z</time></trkpt><trkpt lat="45.8067688814713" lon="11.422180443893538"><ele>862.0</ele><time>2026-05-01T13:35:09Z</time></trkpt><trkpt lat="45.80670237130295" lon="11.422165981795647"><ele>862.0</ele><time>2026-05-01T13:35:12Z</time></trkpt><trkpt lat="45.806672244269436" lon="11.422075101990298"><ele>862.0</ele><time>2026-05-01T13:35:16Z</time></trkpt><trkpt lat="45.806615058069276" lon="11.421988746208525"><ele>862.0</ele><time>2026-05-01T13:35:19Z</time></trkpt><trkpt lat="45.80656111462808" lon="11.421928289037055"><ele>859.4999999999999</ele><time>2026-05-01T13:35:25Z</time></trkpt><trkpt lat="45.80650216913651" lon="11.421888734856951"><ele>857.0</ele><time>2026-05-01T13:35:39Z</time></trkpt><trkpt lat="45.8064497458536" lon="11.421797550523413"><ele>854.5</ele><time>2026-05-01T13:35:41Z</time></trkpt><trkpt lat="45.80639870231367" lon="11.421736830291009"><ele>852.0</ele><time>2026-05-01T13:35:42Z</time></trkpt><trkpt lat="45.80629831627086" lon="11.421657536754873"><ele>849.4999999999999</ele><time>2026-05-01T13:35:44Z</time></trkpt><trkpt lat="45.80624559717863" lon="11.421598397232476"><ele>847.0</ele><time>2026-05-01T13:35:45Z</time></trkpt><trkpt lat="45.80618142156748" lon="11.421550275109205"><ele>847.0</ele><time>2026-05-01T13:35:46Z</time></trkpt><trkpt lat="45.806121127305" lon="11.421498235732525"><ele>847.0</ele><time>2026-05-01T13:35:47Z</time></trkpt><trkpt lat="45.80606390114006" lon="11.421454540381228"><ele>847.0</ele><time>2026-05-01T13:35:48Z</time></trkpt><trkpt lat="45.805979113166195" lon="11.421374904178718"><ele>847.0</ele><time>2026-05-01T13:35:50Z</time></trkpt><trkpt lat="45.80588483939417" lon="11.42129510595121"><ele>847.0</ele><time>2026-05-01T13:35:52Z</time></trkpt><trkpt lat="45.805782826453445" lon="11.421240293554181"><ele>843.9999999999999</ele><time>2026-05-01T13:35:54Z</time></trkpt><trkpt lat="45.80569179692912" lon="11.42121850170097"><ele>841.0</ele><time>2026-05-01T13:35:56Z</time></trkpt><trkpt lat="45.80561730702425" lon="11.42122365499716"><ele>838.0</ele><time>2026-05-01T13:35:58Z</time></trkpt><trkpt lat="45.8055479888734" lon="11.421254964384499"><ele>835.0</ele><time>2026-05-01T13:36:00Z</time></trkpt><trkpt lat="45.80548530443028" lon="11.421289768553597"><ele>831.9999999999999</ele><time>2026-05-01T13:36:02Z</time></trkpt><trkpt lat="45.805406437035195" lon="11.4213088516399"><ele>829.0</ele><time>2026-05-01T13:36:04Z</time></trkpt><trkpt lat="45.8053016248177" lon="11.421345229116529"><ele>828.9999999999999</ele><time>2026-05-01T13:36:07Z</time></trkpt><trkpt lat="45.80522523697492" lon="11.421349718537623"><ele>829.0</ele><time>2026-05-01T13:36:09Z</time></trkpt><trkpt lat="45.80513911926481" lon="11.421333505117419"><ele>829.0</ele><time>2026-05-01T13:36:11Z</time></trkpt><trkpt lat="45.80507496147301" lon="11.42127616652518"><ele>829.0</ele><time>2026-05-01T13:36:13Z</time></trkpt><trkpt lat="45.80499123865108" lon="11.421205528963315"><ele>828.9999999999999</ele><time>2026-05-01T13:36:15Z</time></trkpt><trkpt lat="45.80491418105348" lon="11.421137030984278"><ele>829.0</ele><time>2026-05-01T13:36:17Z</time></trkpt><trkpt lat="45.80483883758126" lon="11.421076151810833"><ele>824.6666666666666</ele><time>2026-05-01T13:36:19Z</time></trkpt><trkpt lat="45.80477836996139" lon="11.421005773877672"><ele>820.3333333333333</ele><time>2026-05-01T13:36:21Z</time></trkpt><trkpt lat="45.80469801806297" lon="11.42097000438211"><ele>816.0</ele><time>2026-05-01T13:36:24Z</time></trkpt><trkpt lat="45.80467237639293" lon="11.420879901172018"><ele>811.6666666666667</ele><time>2026-05-01T13:36:28Z</time></trkpt><trkpt lat="45.80459477865448" lon="11.420783906470296"><ele>807.3333333333334</ele><time>2026-05-01T13:36:30Z</time></trkpt><trkpt lat="45.80451022002739" lon="11.420726968539872"><ele>803.0</ele><time>2026-05-01T13:36:32Z</time></trkpt><trkpt lat="45.80443910578492" lon="11.420680797223767"><ele>803.0000000000001</ele><time>2026-05-01T13:36:34Z</time></trkpt><trkpt lat="45.80435405370621" lon="11.420632925106684"><ele>803.0</ele><time>2026-05-01T13:36:36Z</time></trkpt><trkpt lat="45.80427179519031" lon="11.420607923563368"><ele>803.0</ele><time>2026-05-01T13:36:38Z</time></trkpt><trkpt lat="45.80419698490902" lon="11.420571751885445"><ele>803.0</ele><time>2026-05-01T13:36:40Z</time></trkpt><trkpt lat="45.804115473211375" lon="11.420513763630021"><ele>803.0000000000001</ele><time>2026-05-01T13:36:42Z</time></trkpt><trkpt lat="45.804032051555645" lon="11.420457540769402"><ele>803.0</ele><time>2026-05-01T13:36:44Z</time></trkpt><trkpt lat="45.80393570712995" lon="11.420398553459323"><ele>799.0</ele><time>2026-05-01T13:36:46Z</time></trkpt><trkpt lat="45.80383908207593" lon="11.420366011084607"><ele>795.0</ele><time>2026-05-01T13:36:48Z</time></trkpt><trkpt lat="45.80373009455002" lon="11.420356178736524"><ele>791.0</ele><time>2026-05-01T13:36:50Z</time></trkpt><trkpt lat="45.80360888904967" lon="11.42035608509268"><ele>787.0</ele><time>2026-05-01T13:36:52Z</time></trkpt><trkpt lat="45.80349188279826" lon="11.420329288451828"><ele>783.0</ele><time>2026-05-01T13:36:54Z</time></trkpt><trkpt lat="45.80339267792631" lon="11.420259458725234"><ele>779.8333333333334</ele><time>2026-05-01T13:36:56Z</time></trkpt><trkpt lat="45.80328323916208" lon="11.420191868985848"><ele>776.6666666666666</ele><time>2026-05-01T13:36:58Z</time></trkpt><trkpt lat="45.80322324555465" lon="11.420164376840951"><ele>773.5</ele><time>2026-05-01T13:36:59Z</time></trkpt><trkpt lat="45.803086545663895" lon="11.420137623677126"><ele>770.3333333333333</ele><time>2026-05-01T13:37:01Z</time></trkpt><trkpt lat="45.80302364971122" lon="11.420126642373186"><ele>767.1666666666666</ele><time>2026-05-01T13:37:02Z</time></trkpt><trkpt lat="45.80295928822966" lon="11.420119290701292"><ele>764.0</ele><time>2026-05-01T13:37:03Z</time></trkpt><trkpt lat="45.80289043350977" lon="11.420110018527039"><ele>764.0</ele><time>2026-05-01T13:37:04Z</time></trkpt><trkpt lat="45.80276310078667" lon="11.420120810883267"><ele>764.0</ele><time>2026-05-01T13:37:06Z</time></trkpt><trkpt lat="45.80264289509185" lon="11.420129383245959"><ele>764.0</ele><time>2026-05-01T13:37:08Z</time></trkpt><trkpt lat="45.80252743866615" lon="11.420133915119367"><ele>764.0</ele><time>2026-05-01T13:37:10Z</time></trkpt><trkpt lat="45.8024107566157" lon="11.420138067768683"><ele>763.8571428571429</ele><time>2026-05-01T13:37:12Z</time></trkpt><trkpt lat="45.80228741108992" lon="11.420127598679642"><ele>763.7142857142857</ele><time>2026-05-01T13:37:14Z</time></trkpt><trkpt lat="45.80222344857806" lon="11.420120110261148"><ele>763.5714285714286</ele><time>2026-05-01T13:37:15Z</time></trkpt><trkpt lat="45.802160276074744" lon="11.420115056565393"><ele>763.4285714285714</ele><time>2026-05-01T13:37:16Z</time></trkpt><trkpt lat="45.802095016710716" lon="11.420106242793185"><ele>763.2857142857142</ele><time>2026-05-01T13:37:17Z</time></trkpt><trkpt lat="45.802032457011634" lon="11.420087236589156"><ele>763.1428571428571</ele><time>2026-05-01T13:37:18Z</time></trkpt><trkpt lat="45.801966821869954" lon="11.420068279607898"><ele>763.0</ele><time>2026-05-01T13:37:19Z</time></trkpt><trkpt lat="45.80190041418863" lon="11.420059718436482"><ele>763.0</ele><time>2026-05-01T13:37:20Z</time></trkpt><trkpt lat="45.80183203544459" lon="11.420061727305347"><ele>763.0</ele><time>2026-05-01T13:37:21Z</time></trkpt><trkpt lat="45.801761079948314" lon="11.42005257659249"><ele>763.0</ele><time>2026-05-01T13:37:22Z</time></trkpt><trkpt lat="45.80169676182307" lon="11.420031671885916"><ele>763.0</ele><time>2026-05-01T13:37:23Z</time></trkpt><trkpt lat="45.8016296465949" lon="11.420023482123174"><ele>763.0</ele><time>2026-05-01T13:37:24Z</time></trkpt><trkpt lat="45.801562475665946" lon="11.420028100423917"><ele>763.0</ele><time>2026-05-01T13:37:25Z</time></trkpt><trkpt lat="45.801497935559404" lon="11.42002530211771"><ele>763.0</ele><time>2026-05-01T13:37:26Z</time></trkpt><trkpt lat="45.80143404974618" lon="11.420008300527408"><ele>761.6666666666667</ele><time>2026-05-01T13:37:27Z</time></trkpt><trkpt lat="45.80137215772005" lon="11.419970584562943"><ele>760.3333333333334</ele><time>2026-05-01T13:37:28Z</time></trkpt><trkpt lat="45.801306998969004" lon="11.419946886267839"><ele>759.0</ele><time>2026-05-01T13:37:29Z</time></trkpt><trkpt lat="45.801181329307035" lon="11.419964967292971"><ele>757.6666666666666</ele><time>2026-05-01T13:37:31Z</time></trkpt><trkpt lat="45.801116879906154" lon="11.420015435052546"><ele>756.3333333333333</ele><time>2026-05-01T13:37:32Z</time></trkpt><trkpt lat="45.80105794055743" lon="11.420087556674677"><ele>755.0</ele><time>2026-05-01T13:37:33Z</time></trkpt><trkpt lat="45.80098537760175" lon="11.420131937934965"><ele>751.75</ele><time>2026-05-01T13:37:34Z</time></trkpt><trkpt lat="45.800825663804346" lon="11.419870503339302"><ele>748.5</ele><time>2026-05-01T13:37:35Z</time></trkpt><trkpt lat="45.80073612425447" lon="11.41993611755264"><ele>745.25</ele><time>2026-05-01T13:37:37Z</time></trkpt><trkpt lat="45.80067422646822" lon="11.419957406785498"><ele>742.0</ele><time>2026-05-01T13:37:38Z</time></trkpt><trkpt lat="45.80057540572396" lon="11.419973044965479"><ele>742.0</ele><time>2026-05-01T13:37:40Z</time></trkpt><trkpt lat="45.800463464986244" lon="11.41996850562244"><ele>742.0</ele><time>2026-05-01T13:37:42Z</time></trkpt><trkpt lat="45.80038333076978" lon="11.419968505619844"><ele>742.0</ele><time>2026-05-01T13:37:44Z</time></trkpt><trkpt lat="45.800323821534796" lon="11.420011688921266"><ele>742.0</ele><time>2026-05-01T13:37:49Z</time></trkpt><trkpt lat="45.80026218032724" lon="11.419967855967291"><ele>742.0</ele><time>2026-05-01T13:37:54Z</time></trkpt><trkpt lat="45.80014693962215" lon="11.419982652523897"><ele>742.0</ele><time>2026-05-01T13:38:59Z</time></trkpt><trkpt lat="45.80014148099005" lon="11.419878772702592"><ele>738.8571428571429</ele><time>2026-05-01T13:41:35Z</time></trkpt><trkpt lat="45.80006404446869" lon="11.419822451206583"><ele>735.7142857142858</ele><time>2026-05-01T13:41:38Z</time></trkpt><trkpt lat="45.79999304876859" lon="11.419830554217926"><ele>732.5714285714286</ele><time>2026-05-01T13:41:40Z</time></trkpt><trkpt lat="45.79991657010783" lon="11.419854746740258"><ele>729.4285714285714</ele><time>2026-05-01T13:41:43Z</time></trkpt><trkpt lat="45.799850321162914" lon="11.419892759175841"><ele>726.2857142857143</ele><time>2026-05-01T13:41:47Z</time></trkpt><trkpt lat="45.79978972322911" lon="11.419935625854913"><ele>723.1428571428571</ele><time>2026-05-01T13:41:50Z</time></trkpt><trkpt lat="45.799810936221725" lon="11.420023425331253"><ele>720.0</ele><time>2026-05-01T13:41:52Z</time></trkpt><trkpt lat="45.799823291884195" lon="11.420115150055308"><ele>720.0</ele><time>2026-05-01T13:41:54Z</time></trkpt><trkpt lat="45.799840534779506" lon="11.42021499083972"><ele>720.0</ele><time>2026-05-01T13:41:57Z</time></trkpt><trkpt lat="45.79988084498599" lon="11.420298469696206"><ele>720.0</ele><time>2026-05-01T13:42:00Z</time></trkpt><trkpt lat="45.79990751509342" lon="11.420385810278127"><ele>720.0</ele><time>2026-05-01T13:42:03Z</time></trkpt><trkpt lat="45.79988206858553" lon="11.420494824387857"><ele>720.0</ele><time>2026-05-01T13:42:06Z</time></trkpt><trkpt lat="45.79985816390464" lon="11.42060566513335"><ele>720.0</ele><time>2026-05-01T13:42:09Z</time></trkpt><trkpt lat="45.79982439168789" lon="11.420709655907146"><ele>720.0</ele><time>2026-05-01T13:42:12Z</time></trkpt><trkpt lat="45.799811391096654" lon="11.420602165254529"><ele>720.0</ele><time>2026-05-01T13:42:18Z</time></trkpt><trkpt lat="45.799831755895354" lon="11.420512457627803"><ele>720.0</ele><time>2026-05-01T13:42:22Z</time></trkpt><trkpt lat="45.799763548336976" lon="11.420535199924775"><ele>720.0</ele><time>2026-05-01T13:42:27Z</time></trkpt><trkpt lat="45.79969411913135" lon="11.420477990304295"><ele>720.0</ele><time>2026-05-01T13:42:30Z</time></trkpt><trkpt lat="45.79964243957735" lon="11.420412105240267"><ele>720.0</ele><time>2026-05-01T13:42:33Z</time></trkpt><trkpt lat="45.7995744926711" lon="11.420392205165944"><ele>720.0</ele><time>2026-05-01T13:42:38Z</time></trkpt><trkpt lat="45.799513097700576" lon="11.42032779090265"><ele>720.0</ele><time>2026-05-01T13:42:41Z</time></trkpt><trkpt lat="45.799561732578645" lon="11.42042232081843"><ele>720.0</ele><time>2026-05-01T13:43:07Z</time></trkpt><trkpt lat="45.79960451490079" lon="11.420529424240538"><ele>720.0</ele><time>2026-05-01T13:43:10Z</time></trkpt><trkpt lat="45.79960276976779" lon="11.420630507536526"><ele>720.0</ele><time>2026-05-01T13:43:15Z</time></trkpt><trkpt lat="45.799542371160925" lon="11.420661431654361"><ele>720.0</ele><time>2026-05-01T13:43:30Z</time></trkpt><trkpt lat="45.79948925407274" lon="11.420722282317245"><ele>720.0</ele><time>2026-05-01T13:43:33Z</time></trkpt><trkpt lat="45.79944370343447" lon="11.420817370224428"><ele>719.7142857142857</ele><time>2026-05-01T13:43:38Z</time></trkpt><trkpt lat="45.79939781308702" lon="11.42087953802116"><ele>719.4285714285714</ele><time>2026-05-01T13:43:41Z</time></trkpt><trkpt lat="45.79932995934228" lon="11.420948355570589"><ele>719.1428571428571</ele><time>2026-05-01T13:43:44Z</time></trkpt><trkpt lat="45.7992725511066" lon="11.421028754705313"><ele>718.8571428571429</ele><time>2026-05-01T13:43:47Z</time></trkpt><trkpt lat="45.799218269364026" lon="11.421084998226245"><ele>718.5714285714287</ele><time>2026-05-01T13:43:49Z</time></trkpt><trkpt lat="45.79915982681801" lon="11.421140090082368"><ele>718.2857142857143</ele><time>2026-05-01T13:43:51Z</time></trkpt><trkpt lat="45.799101421123716" lon="11.421201298789876"><ele>718.0</ele><time>2026-05-01T13:43:53Z</time></trkpt><trkpt lat="45.79906854619925" lon="11.421290260915665"><ele>712.0</ele><time>2026-05-01T13:43:55Z</time></trkpt><trkpt lat="45.79905565837788" lon="11.421401566226352"><ele>706.0</ele><time>2026-05-01T13:43:57Z</time></trkpt><trkpt lat="45.79906961856099" lon="11.421515817645822"><ele>700.0</ele><time>2026-05-01T13:43:59Z</time></trkpt><trkpt lat="45.799045828621985" lon="11.42163372643716"><ele>694.0</ele><time>2026-05-01T13:44:01Z</time></trkpt><trkpt lat="45.79899500811778" lon="11.421736023459989"><ele>688.0</ele><time>2026-05-01T13:44:03Z</time></trkpt><trkpt lat="45.798923903481615" lon="11.421831811743038"><ele>682.0</ele><time>2026-05-01T13:44:05Z</time></trkpt><trkpt lat="45.798853472906266" lon="11.421922554374785"><ele>682.0</ele><time>2026-05-01T13:44:07Z</time></trkpt><trkpt lat="45.798761951029356" lon="11.421966841226153"><ele>682.0</ele><time>2026-05-01T13:44:09Z</time></trkpt><trkpt lat="45.79866609098866" lon="11.422001500139073"><ele>682.0</ele><time>2026-05-01T13:44:11Z</time></trkpt><trkpt lat="45.79857406213212" lon="11.422064817376533"><ele>682.0</ele><time>2026-05-01T13:44:13Z</time></trkpt><trkpt lat="45.798484410714735" lon="11.422124780140386"><ele>682.0</ele><time>2026-05-01T13:44:15Z</time></trkpt><trkpt lat="45.79839348638568" lon="11.422192187745898"><ele>677.6</ele><time>2026-05-01T13:44:17Z</time></trkpt><trkpt lat="45.79828862499746" lon="11.422254034551209"><ele>673.2</ele><time>2026-05-01T13:44:19Z</time></trkpt><trkpt lat="45.79819511874322" lon="11.4223328587753"><ele>668.8</ele><time>2026-05-01T13:44:21Z</time></trkpt><trkpt lat="45.7981176634533" lon="11.422449264926575"><ele>664.4</ele><time>2026-05-01T13:44:23Z</time></trkpt><trkpt lat="45.79805179225492" lon="11.422577248349874"><ele>660.0</ele><time>2026-05-01T13:44:25Z</time></trkpt><trkpt lat="45.798002168096225" lon="11.422723029452966"><ele>660.0</ele><time>2026-05-01T13:44:27Z</time></trkpt><trkpt lat="45.79797334301915" lon="11.422865651328559"><ele>660.0</ele><time>2026-05-01T13:44:29Z</time></trkpt><trkpt lat="45.79801166769625" lon="11.42297915652455"><ele>660.0</ele><time>2026-05-01T13:44:31Z</time></trkpt><trkpt lat="45.79806236492117" lon="11.423071507219474"><ele>660.0</ele><time>2026-05-01T13:44:33Z</time></trkpt><trkpt lat="45.79809177302778" lon="11.423157114989808"><ele>660.0</ele><time>2026-05-01T13:44:35Z</time></trkpt><trkpt lat="45.798037119149626" lon="11.423219694848227"><ele>660.0</ele><time>2026-05-01T13:44:38Z</time></trkpt><trkpt lat="45.79799986643513" lon="11.423145193760575"><ele>661.1428571428572</ele><time>2026-05-01T13:44:41Z</time></trkpt><trkpt lat="45.79796665206737" lon="11.423054343262715"><ele>662.2857142857143</ele><time>2026-05-01T13:44:46Z</time></trkpt><trkpt lat="45.79792345032948" lon="11.423123737802376"><ele>663.4285714285714</ele><time>2026-05-01T13:44:57Z</time></trkpt><trkpt lat="45.79790983209051" lon="11.423226858819728"><ele>664.5714285714287</ele><time>2026-05-01T13:45:03Z</time></trkpt><trkpt lat="45.797892526690546" lon="11.423338589069692"><ele>665.7142857142858</ele><time>2026-05-01T13:45:08Z</time></trkpt><trkpt lat="45.79786872193917" lon="11.423423674580484"><ele>666.8571428571429</ele><time>2026-05-01T13:45:13Z</time></trkpt><trkpt lat="45.79779719987246" lon="11.42341244175872"><ele>668.0</ele><time>2026-05-01T13:45:16Z</time></trkpt><trkpt lat="45.797724560064395" lon="11.42339637474319"><ele>660.8333333333333</ele><time>2026-05-01T13:45:18Z</time></trkpt><trkpt lat="45.797645856348815" lon="11.423454525831154"><ele>653.6666666666666</ele><time>2026-05-01T13:45:21Z</time></trkpt><trkpt lat="45.7975771307058" lon="11.423528044231444"><ele>646.5</ele><time>2026-05-01T13:45:24Z</time></trkpt><trkpt lat="45.797499279428195" lon="11.423555712601383"><ele>639.3333333333334</ele><time>2026-05-01T13:45:27Z</time></trkpt><trkpt lat="45.797426328424386" lon="11.423591344974865"><ele>632.1666666666667</ele><time>2026-05-01T13:45:30Z</time></trkpt><trkpt lat="45.79740106259106" lon="11.423679045656765"><ele>625.0</ele><time>2026-05-01T13:45:33Z</time></trkpt><trkpt lat="45.79735234682759" lon="11.423764550254699"><ele>625.0000000000001</ele><time>2026-05-01T13:45:36Z</time></trkpt><trkpt lat="45.79728612036758" lon="11.423804602979777"><ele>625.0</ele><time>2026-05-01T13:45:39Z</time></trkpt><trkpt lat="45.797219543717056" lon="11.423800752684663"><ele>625.0</ele><time>2026-05-01T13:46:02Z</time></trkpt><trkpt lat="45.79716300555247" lon="11.423859950431941"><ele>625.0</ele><time>2026-05-01T13:46:06Z</time></trkpt><trkpt lat="45.79710552813976" lon="11.423904284508328"><ele>625.0</ele><time>2026-05-01T13:46:09Z</time></trkpt><trkpt lat="45.79705905582969" lon="11.423990974959734"><ele>625.0000000000001</ele><time>2026-05-01T13:46:13Z</time></trkpt><trkpt lat="45.79700953144998" lon="11.424076182242986"><ele>625.0</ele><time>2026-05-01T13:46:16Z</time></trkpt><trkpt lat="45.796952757741906" lon="11.424172223076575"><ele>626.8333333333334</ele><time>2026-05-01T13:46:19Z</time></trkpt><trkpt lat="45.79688666506857" lon="11.424237533373056"><ele>628.6666666666667</ele><time>2026-05-01T13:46:22Z</time></trkpt><trkpt lat="45.79682645591498" lon="11.424316851641182"><ele>630.5</ele><time>2026-05-01T13:46:25Z</time></trkpt><trkpt lat="45.7967753614405" lon="11.424381325798853"><ele>632.3333333333334</ele><time>2026-05-01T13:46:27Z</time></trkpt><trkpt lat="45.796703747966056" lon="11.424447076174214"><ele>634.1666666666666</ele><time>2026-05-01T13:46:29Z</time></trkpt><trkpt lat="45.796632529978524" lon="11.42450899408184"><ele>636.0</ele><time>2026-05-01T13:46:32Z</time></trkpt><trkpt lat="45.796543127297724" lon="11.424505328605404"><ele>631.5</ele><time>2026-05-01T13:46:35Z</time></trkpt><trkpt lat="45.79647355570485" lon="11.424588427257758"><ele>627.0</ele><time>2026-05-01T13:46:38Z</time></trkpt><trkpt lat="45.79644683050883" lon="11.424685239401656"><ele>622.5</ele><time>2026-05-01T13:46:40Z</time></trkpt><trkpt lat="45.79639029543777" lon="11.424733944113523"><ele>618.0</ele><time>2026-05-01T13:46:43Z</time></trkpt><trkpt lat="45.796324870941" lon="11.424711066005603"><ele>613.5</ele><time>2026-05-01T13:46:47Z</time></trkpt><trkpt lat="45.79623929479676" lon="11.424713764488164"><ele>609.0</ele><time>2026-05-01T13:46:50Z</time></trkpt><trkpt lat="45.79617934267529" lon="11.424798432187938"><ele>609.0</ele><time>2026-05-01T13:46:54Z</time></trkpt><trkpt lat="45.79612308803839" lon="11.424852717000856"><ele>609.0</ele><time>2026-05-01T13:46:58Z</time></trkpt><trkpt lat="45.79607834145889" lon="11.424934787410347"><ele>609.0</ele><time>2026-05-01T13:47:01Z</time></trkpt><trkpt lat="45.79603786106237" lon="11.425015267396164"><ele>609.0</ele><time>2026-05-01T13:47:04Z</time></trkpt><trkpt lat="45.7959735951181" lon="11.425028911722302"><ele>609.0</ele><time>2026-05-01T13:47:08Z</time></trkpt><trkpt lat="45.795910612665836" lon="11.425031825225377"><ele>609.0</ele><time>2026-05-01T13:47:18Z</time></trkpt><trkpt lat="45.79582942066531" lon="11.425015101091295"><ele>609.0</ele><time>2026-05-01T13:47:33Z</time></trkpt><trkpt lat="45.7957531887911" lon="11.424970009931455"><ele>602.0</ele><time>2026-05-01T13:47:37Z</time></trkpt><trkpt lat="45.7957186212663" lon="11.42488180969944"><ele>595.0</ele><time>2026-05-01T13:47:40Z</time></trkpt><trkpt lat="45.79564322120094" lon="11.424834055152543"><ele>588.0</ele><time>2026-05-01T13:47:45Z</time></trkpt><trkpt lat="45.795566660393355" lon="11.424764224330202"><ele>581.0</ele><time>2026-05-01T13:47:48Z</time></trkpt><trkpt lat="45.795496035011624" lon="11.424689992590555"><ele>574.0</ele><time>2026-05-01T13:47:51Z</time></trkpt><trkpt lat="45.79547941232924" lon="11.424596821100316"><ele>567.0</ele><time>2026-05-01T13:47:54Z</time></trkpt><trkpt lat="45.79548567668877" lon="11.42449857934709"><ele>564.8333333333334</ele><time>2026-05-01T13:48:00Z</time></trkpt><trkpt lat="45.795506900765695" lon="11.424377107651482"><ele>562.6666666666666</ele><time>2026-05-01T13:48:02Z</time></trkpt><trkpt lat="45.79555227630152" lon="11.424251720147565"><ele>560.5</ele><time>2026-05-01T13:48:04Z</time></trkpt><trkpt lat="45.795552782591336" lon="11.424154998591492"><ele>558.3333333333333</ele><time>2026-05-01T13:48:07Z</time></trkpt><trkpt lat="45.795536654725154" lon="11.424055540614809"><ele>556.1666666666666</ele><time>2026-05-01T13:49:11Z</time></trkpt><trkpt lat="45.79554180330621" lon="11.423965288469223"><ele>554.0</ele><time>2026-05-01T13:49:15Z</time></trkpt><trkpt lat="45.79555190183833" lon="11.423874182762553"><ele>552.5</ele><time>2026-05-01T13:49:19Z</time></trkpt><trkpt lat="45.79554098156952" lon="11.42375998543233"><ele>551.0</ele><time>2026-05-01T13:49:23Z</time></trkpt><trkpt lat="45.79553672180016" lon="11.423655554391761"><ele>549.5</ele><time>2026-05-01T13:49:26.999Z</time></trkpt><trkpt lat="45.79551976117862" lon="11.423558697399548"><ele>548.0</ele><time>2026-05-01T13:49:31.999Z</time></trkpt><trkpt lat="45.79546712087173" lon="11.423448942270875"><ele>546.5</ele><time>2026-05-01T13:49:35Z</time></trkpt><trkpt lat="45.79541871275078" lon="11.42338108673735"><ele>545.0</ele><time>2026-05-01T13:49:37Z</time></trkpt><trkpt lat="45.79531630297797" lon="11.423417072660369"><ele>545.0</ele><time>2026-05-01T13:49:40Z</time></trkpt><trkpt lat="45.795219370109244" lon="11.423434992876196"><ele>545.0</ele><time>2026-05-01T13:49:42Z</time></trkpt><trkpt lat="45.795123897560025" lon="11.423418882536042"><ele>545.0</ele><time>2026-05-01T13:49:45Z</time></trkpt><trkpt lat="45.795061001844395" lon="11.423428110172674"><ele>545.0</ele><time>2026-05-01T13:49:48Z</time></trkpt><trkpt lat="45.79499881844409" lon="11.423448744245013"><ele>545.0</ele><time>2026-05-01T13:49:51Z</time></trkpt><trkpt lat="45.7948948189753" lon="11.423401975131984"><ele>545.0</ele><time>2026-05-01T13:49:53Z</time></trkpt><trkpt lat="45.794815847415904" lon="11.423456116968303"><ele>540.3333333333333</ele><time>2026-05-01T13:49:55Z</time></trkpt><trkpt lat="45.79472481161399" lon="11.423474243744167"><ele>535.6666666666666</ele><time>2026-05-01T13:49:59Z</time></trkpt><trkpt lat="45.794660670948396" lon="11.423454483167113"><ele>531.0</ele><time>2026-05-01T13:50:02Z</time></trkpt><trkpt lat="45.794607953096786" lon="11.423404499718117"><ele>526.3333333333334</ele><time>2026-05-01T13:50:04Z</time></trkpt><trkpt lat="45.79453798414032" lon="11.423358357311844"><ele>521.6666666666667</ele><time>2026-05-01T13:50:06Z</time></trkpt><trkpt lat="45.794445681870094" lon="11.423319495125039"><ele>517.0</ele><time>2026-05-01T13:50:09Z</time></trkpt><trkpt lat="45.794371818993014" lon="11.42331935873431"><ele>512.5</ele><time>2026-05-01T13:50:13Z</time></trkpt><trkpt lat="45.79428876460595" lon="11.423297973056187"><ele>508.0</ele><time>2026-05-01T13:50:16Z</time></trkpt><trkpt lat="45.794225186112286" lon="11.42330240156714"><ele>503.5</ele><time>2026-05-01T13:50:23Z</time></trkpt><trkpt lat="45.794153670649926" lon="11.423317295263516"><ele>499.0</ele><time>2026-05-01T13:51:17Z</time></trkpt><trkpt lat="45.794116787847834" lon="11.423402172682238"><ele>494.50000000000006</ele><time>2026-05-01T13:51:25Z</time></trkpt><trkpt lat="45.79407106841427" lon="11.423483925091901"><ele>490.0</ele><time>2026-05-01T13:51:28Z</time></trkpt><trkpt lat="45.79398759378358" lon="11.423541199149158"><ele>490.00000000000006</ele><time>2026-05-01T13:51:29.999Z</time></trkpt><trkpt lat="45.79394495900619" lon="11.423623462619954"><ele>490.0</ele><time>2026-05-01T13:51:31.999Z</time></trkpt><trkpt lat="45.79389293891273" lon="11.423705256774843"><ele>490.0</ele><time>2026-05-01T13:51:33.999Z</time></trkpt><trkpt lat="45.79381704110994" lon="11.423782927422943"><ele>490.0</ele><time>2026-05-01T13:51:35.999Z</time></trkpt><trkpt lat="45.79374031278042" lon="11.423820700640023"><ele>490.00000000000006</ele><time>2026-05-01T13:51:37.999Z</time></trkpt><trkpt lat="45.79367030565527" lon="11.423853318242406"><ele>490.0</ele><time>2026-05-01T13:51:40Z</time></trkpt><trkpt lat="45.79360202667206" lon="11.423890840112312"><ele>491.42857142857144</ele><time>2026-05-01T13:51:42Z</time></trkpt><trkpt lat="45.793543087227256" lon="11.423925611715317"><ele>492.8571428571429</ele><time>2026-05-01T13:51:44Z</time></trkpt><trkpt lat="45.79346781776159" lon="11.423960345370432"><ele>494.2857142857143</ele><time>2026-05-01T13:51:46Z</time></trkpt><trkpt lat="45.79340022337176" lon="11.424003879188449"><ele>495.7142857142857</ele><time>2026-05-01T13:51:48Z</time></trkpt><trkpt lat="45.793330956423134" lon="11.424029641595736"><ele>497.14285714285717</ele><time>2026-05-01T13:51:50Z</time></trkpt><trkpt lat="45.79325020943001" lon="11.424029673399202"><ele>498.57142857142856</ele><time>2026-05-01T13:51:53Z</time></trkpt><trkpt lat="45.79318604914865" lon="11.424039516145383"><ele>500.0</ele><time>2026-05-01T13:51:55Z</time></trkpt><trkpt lat="45.79312449369361" lon="11.424066793965334"><ele>496.42857142857144</ele><time>2026-05-01T13:52:22Z</time></trkpt><trkpt lat="45.79305821313809" lon="11.424095727681658"><ele>492.8571428571429</ele><time>2026-05-01T13:52:28Z</time></trkpt><trkpt lat="45.79303806261122" lon="11.424184641533536"><ele>489.28571428571433</ele><time>2026-05-01T13:52:36Z</time></trkpt><trkpt lat="45.79306723369747" lon="11.424269135500035"><ele>485.7142857142857</ele><time>2026-05-01T13:52:44Z</time></trkpt><trkpt lat="45.793134271921076" lon="11.424349357780134"><ele>482.1428571428572</ele><time>2026-05-01T13:52:49Z</time></trkpt><trkpt lat="45.79318727101518" lon="11.42439935016808"><ele>478.5714285714286</ele><time>2026-05-01T13:52:52Z</time></trkpt><trkpt lat="45.79322953926342" lon="11.42446755053443"><ele>475.0</ele><time>2026-05-01T13:52:56Z</time></trkpt><trkpt lat="45.79327543753867" lon="11.424532443015403"><ele>475.0</ele><time>2026-05-01T13:53:03Z</time></trkpt><trkpt lat="45.79331790308833" lon="11.424606578115256"><ele>475.00000000000006</ele><time>2026-05-01T13:53:13Z</time></trkpt><trkpt lat="45.79336594891262" lon="11.42466684482034"><ele>475.0</ele><time>2026-05-01T13:53:23Z</time></trkpt><trkpt lat="45.79334040796498" lon="11.424572196798518"><ele>475.0</ele><time>2026-05-01T13:54:24Z</time></trkpt><trkpt lat="45.79328501602332" lon="11.424517551972128"><ele>475.00000000000006</ele><time>2026-05-01T13:54:26Z</time></trkpt><trkpt lat="45.7932191119137" lon="11.424466780296761"><ele>475.0</ele><time>2026-05-01T13:54:28Z</time></trkpt><trkpt lat="45.79316319572373" lon="11.424396078198743"><ele>475.0</ele><time>2026-05-01T13:54:32Z</time></trkpt><trkpt lat="45.793109668843336" lon="11.424339423172519"><ele>475.0</ele><time>2026-05-01T13:54:37Z</time></trkpt><trkpt lat="45.79304431418768" lon="11.424291810834772"><ele>475.00000000000006</ele><time>2026-05-01T13:54:41Z</time></trkpt><trkpt lat="45.792991910350786" lon="11.424233347259044"><ele>475.0</ele><time>2026-05-01T13:54:49Z</time></trkpt><trkpt lat="45.79292105363568" lon="11.424234267345243"><ele>475.0</ele><time>2026-05-01T13:55:02Z</time></trkpt><trkpt lat="45.79289333281417" lon="11.424341334288288"><ele>475.00000000000006</ele><time>2026-05-01T13:55:09Z</time></trkpt><trkpt lat="45.792905326697536" lon="11.424441517738055"><ele>475.0</ele><time>2026-05-01T13:55:12Z</time></trkpt><trkpt lat="45.792895071809895" lon="11.424558614382084"><ele>475.0</ele><time>2026-05-01T13:55:15Z</time></trkpt><trkpt lat="45.792864407037605" lon="11.424707379378512"><ele>476.6666666666667</ele><time>2026-05-01T13:55:18Z</time></trkpt><trkpt lat="45.79289900938854" lon="11.424807363355706"><ele>478.33333333333337</ele><time>2026-05-01T13:55:20Z</time></trkpt><trkpt lat="45.7929192512103" lon="11.42490571718057"><ele>480.0</ele><time>2026-05-01T13:55:22Z</time></trkpt><trkpt lat="45.79294988850799" lon="11.424991614592876"><ele>481.66666666666663</ele><time>2026-05-01T13:55:24Z</time></trkpt><trkpt lat="45.7929951362099" lon="11.425093311865332"><ele>483.3333333333333</ele><time>2026-05-01T13:55:26Z</time></trkpt><trkpt lat="45.793043252169724" lon="11.42520214237962"><ele>485.0</ele><time>2026-05-01T13:55:30Z</time></trkpt><trkpt lat="45.79311726752093" lon="11.425230409767533"><ele>485.00000000000006</ele><time>2026-05-01T13:55:33Z</time></trkpt><trkpt lat="45.79316684146981" lon="11.425289824440313"><ele>485.0</ele><time>2026-05-01T13:55:40.999Z</time></trkpt><trkpt lat="45.79323109074117" lon="11.42530887595684"><ele>485.00000000000006</ele><time>2026-05-01T13:55:55Z</time></trkpt><trkpt lat="45.79328093321182" lon="11.425368240288773"><ele>485.00000000000006</ele><time>2026-05-01T13:56:08Z</time></trkpt><trkpt lat="45.79332254886749" lon="11.425437499953862"><ele>485.0</ele><time>2026-05-01T13:56:11Z</time></trkpt><trkpt lat="45.79337501859513" lon="11.425500480752596"><ele>485.00000000000006</ele><time>2026-05-01T13:56:13Z</time></trkpt><trkpt lat="45.79343302625893" lon="11.425550285435634"><ele>485.00000000000006</ele><time>2026-05-01T13:56:17Z</time></trkpt><trkpt lat="45.79348701046628" lon="11.42560319584391"><ele>490.4285714285715</ele><time>2026-05-01T13:56:21Z</time></trkpt><trkpt lat="45.79354454608736" lon="11.425658337418222"><ele>495.8571428571429</ele><time>2026-05-01T13:56:25Z</time></trkpt><trkpt lat="45.79360902319616" lon="11.42566087694027"><ele>501.2857142857143</ele><time>2026-05-01T13:56:31Z</time></trkpt><trkpt lat="45.79367076597691" lon="11.42569025888291"><ele>506.7142857142857</ele><time>2026-05-01T13:56:43Z</time></trkpt><trkpt lat="45.79372697655517" lon="11.425739942295193"><ele>512.1428571428571</ele><time>2026-05-01T13:56:46Z</time></trkpt><trkpt lat="45.79377204119124" lon="11.425828192304882"><ele>517.5714285714286</ele><time>2026-05-01T13:56:51Z</time></trkpt><trkpt lat="45.793839264178466" lon="11.425885451494825"><ele>523.0</ele><time>2026-05-01T13:56:57Z</time></trkpt><trkpt lat="45.79388988179514" lon="11.425958067176875"><ele>523.0</ele><time>2026-05-01T13:57:03Z</time></trkpt><trkpt lat="45.793935398332195" lon="11.426026816475355"><ele>523.0</ele><time>2026-05-01T13:57:10Z</time></trkpt><trkpt lat="45.79392806497311" lon="11.42612487399496"><ele>523.0</ele><time>2026-05-01T13:57:21Z</time></trkpt><trkpt lat="45.793868401451284" lon="11.426166611826098"><ele>523.0</ele><time>2026-05-01T13:57:24Z</time></trkpt><trkpt lat="45.79378807808553" lon="11.42622240432622"><ele>523.0</ele><time>2026-05-01T13:57:27Z</time></trkpt><trkpt lat="45.793713614406705" lon="11.426269071538169"><ele>523.0</ele><time>2026-05-01T13:57:29Z</time></trkpt><trkpt lat="45.79363393562592" lon="11.426315560589332"><ele>525.1666666666667</ele><time>2026-05-01T13:57:31Z</time></trkpt><trkpt lat="45.79355529427199" lon="11.426391282924202"><ele>527.3333333333334</ele><time>2026-05-01T13:57:34Z</time></trkpt><trkpt lat="45.793496694255076" lon="11.426463588421726"><ele>529.5</ele><time>2026-05-01T13:57:37Z</time></trkpt><trkpt lat="45.793428226216164" lon="11.426533778946864"><ele>531.6666666666666</ele><time>2026-05-01T13:57:39.999Z</time></trkpt><trkpt lat="45.793366401003084" lon="11.426600763413429"><ele>533.8333333333333</ele><time>2026-05-01T13:57:42.999Z</time></trkpt><trkpt lat="45.793312496472964" lon="11.426662182076267"><ele>536.0</ele><time>2026-05-01T13:57:45.999Z</time></trkpt><trkpt lat="45.79321540681821" lon="11.426669106171104"><ele>531.1666666666666</ele><time>2026-05-01T13:57:48.999Z</time></trkpt><trkpt lat="45.793123114667736" lon="11.426663316104584"><ele>526.3333333333333</ele><time>2026-05-01T13:57:50.999Z</time></trkpt><trkpt lat="45.79305113463676" lon="11.426685049605284"><ele>521.5</ele><time>2026-05-01T13:57:52.999Z</time></trkpt><trkpt lat="45.79298934057549" lon="11.426757575150027"><ele>516.6666666666666</ele><time>2026-05-01T13:57:55.999Z</time></trkpt><trkpt lat="45.79290228914181" lon="11.426833395115683"><ele>511.8333333333333</ele><time>2026-05-01T13:57:59Z</time></trkpt><trkpt lat="45.79282806446331" lon="11.426881513789551"><ele>507.0</ele><time>2026-05-01T13:58:01Z</time></trkpt><trkpt lat="45.79276402753169" lon="11.426940963194912"><ele>507.0</ele><time>2026-05-01T13:58:04Z</time></trkpt><trkpt lat="45.792704723562224" lon="11.427038826547692"><ele>507.0</ele><time>2026-05-01T13:58:09Z</time></trkpt><trkpt lat="45.792673961408035" lon="11.42715614417696"><ele>507.0</ele><time>2026-05-01T13:58:11Z</time></trkpt><trkpt lat="45.79262829637703" lon="11.427233868338124"><ele>507.0</ele><time>2026-05-01T13:58:13Z</time></trkpt><trkpt lat="45.79258397159881" lon="11.427321672602375"><ele>507.0</ele><time>2026-05-01T13:58:15Z</time></trkpt><trkpt lat="45.79249712228799" lon="11.427441404189596"><ele>507.0</ele><time>2026-05-01T13:58:17Z</time></trkpt><trkpt lat="45.792447569028624" lon="11.427511616544098"><ele>505.3333333333333</ele><time>2026-05-01T13:58:18Z</time></trkpt><trkpt lat="45.7923922850099" lon="11.427575082361363"><ele>503.66666666666663</ele><time>2026-05-01T13:58:19Z</time></trkpt><trkpt lat="45.7923414723556" lon="11.427635390618873"><ele>502.0</ele><time>2026-05-01T13:58:20Z</time></trkpt><trkpt lat="45.79228815223904" lon="11.427702842802617"><ele>500.3333333333333</ele><time>2026-05-01T13:58:21Z</time></trkpt><trkpt lat="45.7922207138635" lon="11.427812924274592"><ele>498.66666666666663</ele><time>2026-05-01T13:58:23Z</time></trkpt><trkpt lat="45.792142538965436" lon="11.427949856288514"><ele>497.0</ele><time>2026-05-01T13:58:25Z</time></trkpt><trkpt lat="45.79208456697813" lon="11.428095886537822"><ele>497.0</ele><time>2026-05-01T13:58:27Z</time></trkpt><trkpt lat="45.79202357780939" lon="11.42824105159597"><ele>497.00000000000006</ele><time>2026-05-01T13:58:29Z</time></trkpt><trkpt lat="45.79195175610333" lon="11.428389976444729"><ele>497.00000000000006</ele><time>2026-05-01T13:58:31Z</time></trkpt><trkpt lat="45.79188776862455" lon="11.428452655470203"><ele>497.0</ele><time>2026-05-01T13:58:32Z</time></trkpt><trkpt lat="45.791837340359656" lon="11.428506712182056"><ele>497.0</ele><time>2026-05-01T13:58:33Z</time></trkpt><trkpt lat="45.791767525424326" lon="11.428610175865357"><ele>492.66666666666663</ele><time>2026-05-01T13:58:35Z</time></trkpt><trkpt lat="45.791723018995604" lon="11.42873085886771"><ele>488.3333333333333</ele><time>2026-05-01T13:58:37Z</time></trkpt><trkpt lat="45.791661511970254" lon="11.428774481054647"><ele>484.0</ele><time>2026-05-01T13:58:40Z</time></trkpt><trkpt lat="45.791593993377624" lon="11.428767324812798"><ele>479.66666666666663</ele><time>2026-05-01T13:58:46Z</time></trkpt><trkpt lat="45.791526688890485" lon="11.428688606649747"><ele>475.3333333333333</ele><time>2026-05-01T13:58:49Z</time></trkpt><trkpt lat="45.79145593573328" lon="11.42867334642633"><ele>471.0</ele><time>2026-05-01T13:58:53Z</time></trkpt><trkpt lat="45.79138007589503" lon="11.428748372636395"><ele>470.1666666666667</ele><time>2026-05-01T13:58:57Z</time></trkpt><trkpt lat="45.79133387687001" lon="11.42886060878453"><ele>469.33333333333337</ele><time>2026-05-01T13:58:59Z</time></trkpt><trkpt lat="45.791265583103495" lon="11.42894250965174"><ele>468.5</ele><time>2026-05-01T13:59:02Z</time></trkpt><trkpt lat="45.791196053047045" lon="11.428999033354298"><ele>467.6666666666667</ele><time>2026-05-01T13:59:05Z</time></trkpt><trkpt lat="45.791117226659736" lon="11.4290283869802"><ele>466.83333333333337</ele><time>2026-05-01T13:59:11Z</time></trkpt><trkpt lat="45.79105783557215" lon="11.429074380724558"><ele>466.0</ele><time>2026-05-01T13:59:22Z</time></trkpt><trkpt lat="45.79099220059007" lon="11.429050504369991"><ele>466.00000000000006</ele><time>2026-05-01T13:59:25Z</time></trkpt><trkpt lat="45.79094077328776" lon="11.429105783629142"><ele>466.0</ele><time>2026-05-01T13:59:28Z</time></trkpt><trkpt lat="45.79089086249337" lon="11.429164481503026"><ele>466.0</ele><time>2026-05-01T13:59:35Z</time></trkpt><trkpt lat="45.790856082187" lon="11.429299387798483"><ele>466.0</ele><time>2026-05-01T14:00:20Z</time></trkpt><trkpt lat="45.790823147450915" lon="11.429222230953927"><ele>466.00000000000006</ele><time>2026-05-01T14:01:32Z</time></trkpt><trkpt lat="45.79071975561153" lon="11.42925702546312"><ele>466.0</ele><time>2026-05-01T14:01:39Z</time></trkpt><trkpt lat="45.79064186810016" lon="11.429254110316354"><ele>466.00000000000006</ele><time>2026-05-01T14:01:42Z</time></trkpt><trkpt lat="45.79056652235272" lon="11.429208966030814"><ele>466.0</ele><time>2026-05-01T14:01:44Z</time></trkpt><trkpt lat="45.79052983498541" lon="11.429120686796416"><ele>466.0</ele><time>2026-05-01T14:01:46Z</time></trkpt><trkpt lat="45.79048897195263" lon="11.429016193260848"><ele>466.0</ele><time>2026-05-01T14:01:50Z</time></trkpt><trkpt lat="45.79041185111256" lon="11.428942191166874"><ele>466.00000000000006</ele><time>2026-05-01T14:01:52.999Z</time></trkpt><trkpt lat="45.79034098390443" lon="11.428865300959746"><ele>466.0</ele><time>2026-05-01T14:01:55.999Z</time></trkpt><trkpt lat="45.79025938226187" lon="11.42876503567039"><ele>463.6666666666667</ele><time>2026-05-01T14:01:57.999Z</time></trkpt><trkpt lat="45.790214211399864" lon="11.428698148432417"><ele>461.33333333333337</ele><time>2026-05-01T14:01:58.999Z</time></trkpt><trkpt lat="45.7901640052098" lon="11.428629995833509"><ele>459.0</ele><time>2026-05-01T14:01:59.999Z</time></trkpt><trkpt lat="45.79010544720993" lon="11.428553505777153"><ele>456.66666666666663</ele><time>2026-05-01T14:02:00.999Z</time></trkpt><trkpt lat="45.790041034080396" lon="11.42846106030751"><ele>454.3333333333333</ele><time>2026-05-01T14:02:01.999Z</time></trkpt><trkpt lat="45.78997923191577" lon="11.428363871854875"><ele>452.0</ele><time>2026-05-01T14:02:02.999Z</time></trkpt><trkpt lat="45.78992831143723" lon="11.428292509574272"><ele>449.16666666666663</ele><time>2026-05-01T14:02:03.999Z</time></trkpt><trkpt lat="45.78982858922382" lon="11.428189778075385"><ele>446.3333333333333</ele><time>2026-05-01T14:02:05.999Z</time></trkpt><trkpt lat="45.789744516548765" lon="11.428136441660373"><ele>443.5</ele><time>2026-05-01T14:02:06.999Z</time></trkpt><trkpt lat="45.78967502675437" lon="11.428094046164178"><ele>440.66666666666663</ele><time>2026-05-01T14:02:07.999Z</time></trkpt><trkpt lat="45.78961075023351" lon="11.428059999751994"><ele>437.8333333333333</ele><time>2026-05-01T14:02:09Z</time></trkpt><trkpt lat="45.78955270310117" lon="11.428006606240722"><ele>435.0</ele><time>2026-05-01T14:02:10Z</time></trkpt><trkpt lat="45.78949721274235" lon="11.427936489320482"><ele>433.5</ele><time>2026-05-01T14:02:11Z</time></trkpt><trkpt lat="45.789441481206" lon="11.427875522176462"><ele>432.0</ele><time>2026-05-01T14:02:12Z</time></trkpt><trkpt lat="45.789382363065066" lon="11.427841879935274"><ele>430.5</ele><time>2026-05-01T14:02:13Z</time></trkpt><trkpt lat="45.78928370263968" lon="11.427798535541216"><ele>429.0</ele><time>2026-05-01T14:02:15Z</time></trkpt><trkpt lat="45.78920784202771" lon="11.427792883530831"><ele>427.5</ele><time>2026-05-01T14:02:19Z</time></trkpt><trkpt lat="45.789166168037916" lon="11.427695003635224"><ele>426.0</ele><time>2026-05-01T14:02:29Z</time></trkpt><trkpt lat="45.78910809856854" lon="11.427608323433455"><ele>423.99999999999994</ele><time>2026-05-01T14:02:33Z</time></trkpt><trkpt lat="45.789039771692885" lon="11.427549467465479"><ele>422.0</ele><time>2026-05-01T14:02:37Z</time></trkpt><trkpt lat="45.78902058588567" lon="11.427462329768325"><ele>420.0</ele><time>2026-05-01T14:02:40Z</time></trkpt><trkpt lat="45.788999381462546" lon="11.427359451160916"><ele>418.0</ele><time>2026-05-01T14:02:45Z</time></trkpt><trkpt lat="45.78894889981162" lon="11.42730367686363"><ele>416.0</ele><time>2026-05-01T14:02:51Z</time></trkpt><trkpt lat="45.78889999953862" lon="11.427218218003203"><ele>413.99999999999994</ele><time>2026-05-01T14:02:55Z</time></trkpt><trkpt lat="45.78882711502924" lon="11.427156780389076"><ele>412.0</ele><time>2026-05-01T14:02:58Z</time></trkpt><trkpt lat="45.788791704546504" lon="11.427068479221987"><ele>409.83333333333337</ele><time>2026-05-01T14:03:01Z</time></trkpt><trkpt lat="45.788729868910366" lon="11.427022510660501"><ele>407.6666666666667</ele><time>2026-05-01T14:03:09Z</time></trkpt><trkpt lat="45.788684809745845" lon="11.42691881883348"><ele>405.5</ele><time>2026-05-01T14:03:13Z</time></trkpt><trkpt lat="45.78862302357065" lon="11.426852588621134"><ele>403.33333333333337</ele><time>2026-05-01T14:03:16Z</time></trkpt><trkpt lat="45.78855361004654" lon="11.42676291503262"><ele>401.1666666666667</ele><time>2026-05-01T14:03:19Z</time></trkpt><trkpt lat="45.78847736078249" lon="11.426687432853013"><ele>399.0</ele><time>2026-05-01T14:03:21Z</time></trkpt><trkpt lat="45.78841424867941" lon="11.426621126654492"><ele>396.42857142857144</ele><time>2026-05-01T14:03:24Z</time></trkpt><trkpt lat="45.78835297445551" lon="11.42655084443349"><ele>393.8571428571429</ele><time>2026-05-01T14:03:26Z</time></trkpt><trkpt lat="45.788298421585964" lon="11.426480452808418"><ele>391.2857142857143</ele><time>2026-05-01T14:03:29Z</time></trkpt><trkpt lat="45.78823605925461" lon="11.426421133648812"><ele>388.7142857142857</ele><time>2026-05-01T14:03:33Z</time></trkpt><trkpt lat="45.788168668499" lon="11.426380167173534"><ele>386.14285714285717</ele><time>2026-05-01T14:03:41Z</time></trkpt><trkpt lat="45.788109698481456" lon="11.42634241390753"><ele>383.57142857142856</ele><time>2026-05-01T14:03:45Z</time></trkpt><trkpt lat="45.78803934028153" lon="11.426317558433551"><ele>381.0</ele><time>2026-05-01T14:03:49Z</time></trkpt><trkpt lat="45.787966231566834" lon="11.42629386681692"><ele>379.8333333333333</ele><time>2026-05-01T14:03:52Z</time></trkpt><trkpt lat="45.78790103957798" lon="11.426283126332581"><ele>378.6666666666667</ele><time>2026-05-01T14:03:54Z</time></trkpt><trkpt lat="45.787838092620404" lon="11.426267259500063"><ele>377.5</ele><time>2026-05-01T14:03:57Z</time></trkpt><trkpt lat="45.78777793618501" lon="11.426236252401306"><ele>376.33333333333337</ele><time>2026-05-01T14:03:58.999Z</time></trkpt><trkpt lat="45.78768771174906" lon="11.426202084513633"><ele>375.1666666666667</ele><time>2026-05-01T14:04:01.999Z</time></trkpt><trkpt lat="45.78757461783462" lon="11.426171847572693"><ele>374.0</ele><time>2026-05-01T14:04:03.999Z</time></trkpt><trkpt lat="45.78748136642754" lon="11.426144421041121"><ele>370.1666666666667</ele><time>2026-05-01T14:04:06.999Z</time></trkpt><trkpt lat="45.78741997618655" lon="11.426098263474962"><ele>366.33333333333337</ele><time>2026-05-01T14:04:08.999Z</time></trkpt><trkpt lat="45.787342895770756" lon="11.426026887857875"><ele>362.5</ele><time>2026-05-01T14:04:12.999Z</time></trkpt><trkpt lat="45.787268646879845" lon="11.425979065564574"><ele>358.6666666666667</ele><time>2026-05-01T14:04:15Z</time></trkpt><trkpt lat="45.78719902027286" lon="11.42596808323321"><ele>354.8333333333333</ele><time>2026-05-01T14:04:20Z</time></trkpt><trkpt lat="45.78713096587291" lon="11.425956168977459"><ele>351.0</ele><time>2026-05-01T14:04:26Z</time></trkpt><trkpt lat="45.78705785082161" lon="11.426003456303377"><ele>351.00000000000006</ele><time>2026-05-01T14:04:29Z</time></trkpt><trkpt lat="45.7870172667747" lon="11.426081614545373"><ele>351.0</ele><time>2026-05-01T14:04:33Z</time></trkpt><trkpt lat="45.787042414992385" lon="11.42617623722835"><ele>351.0</ele><time>2026-05-01T14:04:37Z</time></trkpt><trkpt lat="45.787094384238415" lon="11.426247814438272"><ele>351.0</ele><time>2026-05-01T14:04:39Z</time></trkpt><trkpt lat="45.78715673121898" lon="11.426345701443555"><ele>351.0</ele><time>2026-05-01T14:04:41Z</time></trkpt><trkpt lat="45.78719402714735" lon="11.426449591020615"><ele>351.00000000000006</ele><time>2026-05-01T14:04:43Z</time></trkpt><trkpt lat="45.78723131466923" lon="11.426523414283919"><ele>351.0</ele><time>2026-05-01T14:04:48Z</time></trkpt><trkpt lat="45.78725950803785" lon="11.42662082054231"><ele>353.00000000000006</ele><time>2026-05-01T14:04:54Z</time></trkpt><trkpt lat="45.78727199417069" lon="11.426721548348409"><ele>355.0</ele><time>2026-05-01T14:04:56Z</time></trkpt><trkpt lat="45.78726315496713" lon="11.426813611285144"><ele>357.0</ele><time>2026-05-01T14:04:58Z</time></trkpt><trkpt lat="45.78722744069794" lon="11.42692216220954"><ele>359.0</ele><time>2026-05-01T14:05:03Z</time></trkpt><trkpt lat="45.78729206331198" lon="11.426998507807319"><ele>361.0</ele><time>2026-05-01T14:05:06Z</time></trkpt><trkpt lat="45.78732699469659" lon="11.42709146169059"><ele>363.00000000000006</ele><time>2026-05-01T14:05:09Z</time></trkpt><trkpt lat="45.78730858261264" lon="11.427181422689976"><ele>365.0</ele><time>2026-05-01T14:05:13Z</time></trkpt><trkpt lat="45.78728736418491" lon="11.427269343995919"><ele>366.5</ele><time>2026-05-01T14:05:17Z</time></trkpt><trkpt lat="45.78732545090248" lon="11.427357459766624"><ele>368.0</ele><time>2026-05-01T14:05:22Z</time></trkpt><trkpt lat="45.78736450889799" lon="11.427438937323812"><ele>369.5</ele><time>2026-05-01T14:05:31Z</time></trkpt><trkpt lat="45.78740598486629" lon="11.42753200337383"><ele>371.0</ele><time>2026-05-01T14:05:39Z</time></trkpt><trkpt lat="45.78745834215839" lon="11.427655075377306"><ele>372.5</ele><time>2026-05-01T14:06:36Z</time></trkpt><trkpt lat="45.78739759425816" lon="11.427737822119127"><ele>374.0</ele><time>2026-05-01T14:06:41Z</time></trkpt><trkpt lat="45.78734479625172" lon="11.42784344917376"><ele>374.0</ele><time>2026-05-01T14:06:43Z</time></trkpt><trkpt lat="45.78730874925258" lon="11.427939854492081"><ele>374.0</ele><time>2026-05-01T14:06:45Z</time></trkpt><trkpt lat="45.787266399208576" lon="11.428072762858603"><ele>374.0</ele><time>2026-05-01T14:06:47Z</time></trkpt><trkpt lat="45.78721643956759" lon="11.428160854369292"><ele>374.0</ele><time>2026-05-01T14:06:49Z</time></trkpt><trkpt lat="45.787186901025365" lon="11.428275598644591"><ele>374.0</ele><time>2026-05-01T14:06:52Z</time></trkpt><trkpt lat="45.78719429455751" lon="11.42840483509992"><ele>374.0</ele><time>2026-05-01T14:06:56Z</time></trkpt><trkpt lat="45.78723820762654" lon="11.428484120403066"><ele>376.0</ele><time>2026-05-01T14:06:58Z</time></trkpt><trkpt lat="45.787177563445155" lon="11.428543843097984"><ele>378.0</ele><time>2026-05-01T14:07:05Z</time></trkpt><trkpt lat="45.78718220355504" lon="11.42865810607531"><ele>380.0</ele><time>2026-05-01T14:07:09Z</time></trkpt><trkpt lat="45.787165334344756" lon="11.42877118289812"><ele>382.0</ele><time>2026-05-01T14:07:12Z</time></trkpt><trkpt lat="45.78716965403184" lon="11.428887749622273"><ele>383.99999999999994</ele><time>2026-05-01T14:07:15Z</time></trkpt><trkpt lat="45.7871728930349" lon="11.429012715496894"><ele>386.0</ele><time>2026-05-01T14:07:19Z</time></trkpt><trkpt lat="45.78723342496283" lon="11.429124963421957"><ele>386.99999999999994</ele><time>2026-05-01T14:07:22Z</time></trkpt><trkpt lat="45.78731915276457" lon="11.429303877631007"><ele>388.0</ele><time>2026-05-01T14:07:25Z</time></trkpt><trkpt lat="45.787380242324126" lon="11.429342895411217"><ele>389.0</ele><time>2026-05-01T14:07:28Z</time></trkpt><trkpt lat="45.7874549458837" lon="11.429376150190961"><ele>390.0</ele><time>2026-05-01T14:07:31Z</time></trkpt><trkpt lat="45.7875032478933" lon="11.429445815687929"><ele>390.99999999999994</ele><time>2026-05-01T14:07:35Z</time></trkpt><trkpt lat="45.787495503949295" lon="11.429551576317163"><ele>392.0</ele><time>2026-05-01T14:07:38Z</time></trkpt><trkpt lat="45.78743074375851" lon="11.429663528204768"><ele>391.99999999999994</ele><time>2026-05-01T14:07:41Z</time></trkpt><trkpt lat="45.78737096802289" lon="11.42981072514088"><ele>392.0</ele><time>2026-05-01T14:07:43Z</time></trkpt><trkpt lat="45.78729276977477" lon="11.429842767372987"><ele>392.0</ele><time>2026-05-01T14:07:47Z</time></trkpt><trkpt lat="45.7872481242274" lon="11.429943105612764"><ele>392.0</ele><time>2026-05-01T14:07:51Z</time></trkpt><trkpt lat="45.78717118385336" lon="11.429963094740856"><ele>391.99999999999994</ele><time>2026-05-01T14:07:55Z</time></trkpt><trkpt lat="45.78713817422218" lon="11.430046061412233"><ele>392.0</ele><time>2026-05-01T14:07:58Z</time></trkpt><trkpt lat="45.78710140680424" lon="11.430127293222391"><ele>391.99999999999994</ele><time>2026-05-01T14:08:02Z</time></trkpt><trkpt lat="45.78705011418636" lon="11.43026419960595"><ele>392.0</ele><time>2026-05-01T14:08:05Z</time></trkpt><trkpt lat="45.78698719702519" lon="11.43030014236319"><ele>392.0</ele><time>2026-05-01T14:08:08Z</time></trkpt><trkpt lat="45.78694076298664" lon="11.430371644722198"><ele>392.0</ele><time>2026-05-01T14:08:11Z</time></trkpt><trkpt lat="45.78689192298032" lon="11.43047095767959"><ele>391.99999999999994</ele><time>2026-05-01T14:08:12.999Z</time></trkpt><trkpt lat="45.786842439613714" lon="11.430572679871943"><ele>392.0</ele><time>2026-05-01T14:08:15.999Z</time></trkpt><trkpt lat="45.78677807749695" lon="11.430562986744995"><ele>388.85714285714283</ele><time>2026-05-01T14:08:21.999Z</time></trkpt><trkpt lat="45.78671292182009" lon="11.430609633821335"><ele>385.7142857142857</ele><time>2026-05-01T14:09:30Z</time></trkpt><trkpt lat="45.786640070866554" lon="11.430630097022636"><ele>382.57142857142856</ele><time>2026-05-01T14:09:34Z</time></trkpt><trkpt lat="45.78658428125793" lon="11.430672882452669"><ele>379.42857142857144</ele><time>2026-05-01T14:09:37Z</time></trkpt><trkpt lat="45.78651888584922" lon="11.430688976570528"><ele>376.2857142857143</ele><time>2026-05-01T14:09:42Z</time></trkpt><trkpt lat="45.786452790541155" lon="11.430756446528683"><ele>373.1428571428571</ele><time>2026-05-01T14:09:50Z</time></trkpt><trkpt lat="45.78638611363301" lon="11.430842955028325"><ele>370.0</ele><time>2026-05-01T14:09:53Z</time></trkpt><trkpt lat="45.786359885872486" lon="11.430979495724367"><ele>370.0</ele><time>2026-05-01T14:09:58Z</time></trkpt><trkpt lat="45.786369270267734" lon="11.431109170594791"><ele>370.0</ele><time>2026-05-01T14:10:00Z</time></trkpt><trkpt lat="45.78638049543239" lon="11.431218197653008"><ele>370.0</ele><time>2026-05-01T14:10:02Z</time></trkpt><trkpt lat="45.78640959743549" lon="11.431342634612108"><ele>370.0</ele><time>2026-05-01T14:10:04Z</time></trkpt><trkpt lat="45.78645539620047" lon="11.431461113939463"><ele>370.0</ele><time>2026-05-01T14:10:06Z</time></trkpt><trkpt lat="45.786454527678885" lon="11.43155996364845"><ele>370.0</ele><time>2026-05-01T14:10:08Z</time></trkpt><trkpt lat="45.786443448999414" lon="11.431687857013625"><ele>370.66666666666663</ele><time>2026-05-01T14:10:11Z</time></trkpt><trkpt lat="45.786444170322625" lon="11.431801880738005"><ele>371.3333333333333</ele><time>2026-05-01T14:10:13Z</time></trkpt><trkpt lat="45.78645341376062" lon="11.431940155777465"><ele>372.0</ele><time>2026-05-01T14:10:16.999Z</time></trkpt><trkpt lat="45.78643007651716" lon="11.4320347877244"><ele>372.6666666666667</ele><time>2026-05-01T14:10:20.999Z</time></trkpt><trkpt lat="45.78644437573129" lon="11.432177053448457"><ele>373.33333333333337</ele><time>2026-05-01T14:10:23.999Z</time></trkpt><trkpt lat="45.78642770094456" lon="11.432275264304199"><ele>374.0</ele><time>2026-05-01T14:10:25.999Z</time></trkpt><trkpt lat="45.78643244425731" lon="11.432377949250508"><ele>376.33333333333337</ele><time>2026-05-01T14:10:27.999Z</time></trkpt><trkpt lat="45.78639565665155" lon="11.432473167800673"><ele>378.6666666666667</ele><time>2026-05-01T14:10:30.999Z</time></trkpt><trkpt lat="45.78640758431724" lon="11.432632233883481"><ele>381.0</ele><time>2026-05-01T14:10:33Z</time></trkpt><trkpt lat="45.78643848338409" lon="11.432741425698998"><ele>383.33333333333337</ele><time>2026-05-01T14:10:35Z</time></trkpt><trkpt lat="45.786439969235595" lon="11.43285305103519"><ele>385.6666666666667</ele><time>2026-05-01T14:10:37Z</time></trkpt><trkpt lat="45.78644120645425" lon="11.432957334801845"><ele>388.0</ele><time>2026-05-01T14:10:40Z</time></trkpt><trkpt lat="45.786476429300706" lon="11.433049430115101"><ele>390.6666666666667</ele><time>2026-05-01T14:10:46Z</time></trkpt><trkpt lat="45.78648765723566" lon="11.433140640808741"><ele>393.33333333333337</ele><time>2026-05-01T14:10:57Z</time></trkpt><trkpt lat="45.786477458996345" lon="11.433252121098914"><ele>396.0</ele><time>2026-05-01T14:11:00Z</time></trkpt><trkpt lat="45.78644758153458" lon="11.433368159950346"><ele>398.66666666666663</ele><time>2026-05-01T14:11:02Z</time></trkpt><trkpt lat="45.78642864698264" lon="11.433520200235545"><ele>401.3333333333333</ele><time>2026-05-01T14:11:05Z</time></trkpt><trkpt lat="45.786404477056294" lon="11.433657734924315"><ele>404.0</ele><time>2026-05-01T14:11:07Z</time></trkpt><trkpt lat="45.78639371626115" lon="11.433753125662854"><ele>406.16666666666663</ele><time>2026-05-01T14:11:09Z</time></trkpt><trkpt lat="45.78637939568682" lon="11.433847236147768"><ele>408.3333333333333</ele><time>2026-05-01T14:11:11Z</time></trkpt><trkpt lat="45.78635183352316" lon="11.433961804905575"><ele>410.5</ele><time>2026-05-01T14:11:13Z</time></trkpt><trkpt lat="45.78634616002735" lon="11.43407676431522"><ele>412.66666666666663</ele><time>2026-05-01T14:11:15Z</time></trkpt><trkpt lat="45.78632427976956" lon="11.434189287172217"><ele>414.8333333333333</ele><time>2026-05-01T14:11:17Z</time></trkpt><trkpt lat="45.78633189103752" lon="11.434323418836469"><ele>417.0</ele><time>2026-05-01T14:11:19Z</time></trkpt><trkpt lat="45.7863213573689" lon="11.434431506115837"><ele>417.0</ele><time>2026-05-01T14:11:21Z</time></trkpt><trkpt lat="45.78633402390986" lon="11.434558411816198"><ele>417.0</ele><time>2026-05-01T14:11:23Z</time></trkpt><trkpt lat="45.786331881675636" lon="11.434662224504352"><ele>417.0</ele><time>2026-05-01T14:11:25Z</time></trkpt><trkpt lat="45.78633859810101" lon="11.434780363240433"><ele>417.0</ele><time>2026-05-01T14:11:27Z</time></trkpt><trkpt lat="45.7863250482401" lon="11.434909800587715"><ele>417.0</ele><time>2026-05-01T14:11:30Z</time></trkpt><trkpt lat="45.78631848794322" lon="11.43502272192052"><ele>417.0</ele><time>2026-05-01T14:11:35Z</time></trkpt><trkpt lat="45.786341263722704" lon="11.435134729403648"><ele>417.3333333333333</ele><time>2026-05-01T14:11:39Z</time></trkpt><trkpt lat="45.78636901195265" lon="11.435219381920572"><ele>417.66666666666663</ele><time>2026-05-01T14:11:47Z</time></trkpt><trkpt lat="45.78641164167089" lon="11.435290168778357"><ele>418.0</ele><time>2026-05-01T14:12:03Z</time></trkpt><trkpt lat="45.78636227298379" lon="11.435427854508388"><ele>418.3333333333333</ele><time>2026-05-01T14:12:11Z</time></trkpt><trkpt lat="45.78629347013809" lon="11.43555421690438"><ele>418.66666666666663</ele><time>2026-05-01T14:12:13Z</time></trkpt><trkpt lat="45.786237267283916" lon="11.43564199856265"><ele>419.0</ele><time>2026-05-01T14:12:15Z</time></trkpt><trkpt lat="45.7863078903576" lon="11.435649999141987"><ele>418.99999999999994</ele><time>2026-05-01T14:12:19.999Z</time></trkpt><trkpt lat="45.786259080828955" lon="11.435567688343399"><ele>419.0</ele><time>2026-05-01T14:12:28.999Z</time></trkpt><trkpt lat="45.786208418776" lon="11.43551385688836"><ele>419.0</ele><time>2026-05-01T14:12:31.999Z</time></trkpt><trkpt lat="45.78616079640108" lon="11.435430528994349"><ele>419.0</ele><time>2026-05-01T14:12:33.999Z</time></trkpt><trkpt lat="45.78612093989439" lon="11.435347741525081"><ele>419.0</ele><time>2026-05-01T14:12:37Z</time></trkpt><trkpt lat="45.78607680948441" lon="11.435278535933229"><ele>418.99999999999994</ele><time>2026-05-01T14:12:45Z</time></trkpt><trkpt lat="45.7860347745785" lon="11.435209065787733"><ele>419.0</ele><time>2026-05-01T14:12:51Z</time></trkpt><trkpt lat="45.785965983186244" lon="11.435107496278691"><ele>413.6</ele><time>2026-05-01T14:12:55Z</time></trkpt><trkpt lat="45.78592429341116" lon="11.435003620236664"><ele>408.2</ele><time>2026-05-01T14:12:58Z</time></trkpt><trkpt lat="45.78587934413137" lon="11.434892120977803"><ele>402.8</ele><time>2026-05-01T14:13:02Z</time></trkpt><trkpt lat="45.78583807399515" lon="11.434795987171222"><ele>397.40000000000003</ele><time>2026-05-01T14:13:05Z</time></trkpt><trkpt lat="45.78579982421878" lon="11.43469712406068"><ele>392.0</ele><time>2026-05-01T14:13:08Z</time></trkpt><trkpt lat="45.785737026338516" lon="11.434545709910493"><ele>389.66666666666663</ele><time>2026-05-01T14:13:30Z</time></trkpt><trkpt lat="45.78568038530695" lon="11.434428525456564"><ele>387.3333333333333</ele><time>2026-05-01T14:13:35Z</time></trkpt><trkpt lat="45.78564027207879" lon="11.434338538515153"><ele>385.0</ele><time>2026-05-01T14:13:37Z</time></trkpt><trkpt lat="45.78561014467782" lon="11.434249087123076"><ele>382.66666666666663</ele><time>2026-05-01T14:13:39Z</time></trkpt><trkpt lat="45.78556074625523" lon="11.43416119725475"><ele>380.3333333333333</ele><time>2026-05-01T14:13:41Z</time></trkpt><trkpt lat="45.785495695790615" lon="11.43408224629839"><ele>378.0</ele><time>2026-05-01T14:13:44Z</time></trkpt><trkpt lat="45.78542004533326" lon="11.434030693550056"><ele>378.0</ele><time>2026-05-01T14:13:48Z</time></trkpt><trkpt lat="45.7853381132303" lon="11.43402326127332"><ele>378.0</ele><time>2026-05-01T14:13:54Z</time></trkpt><trkpt lat="45.78524055264464" lon="11.434062629022204"><ele>378.0</ele><time>2026-05-01T14:13:56Z</time></trkpt><trkpt lat="45.78518222862333" lon="11.434101841384706"><ele>378.0</ele><time>2026-05-01T14:13:58Z</time></trkpt><trkpt lat="45.78511190612816" lon="11.434148579069717"><ele>378.0</ele><time>2026-05-01T14:14:01Z</time></trkpt><trkpt lat="45.78503787681027" lon="11.434192780773062"><ele>378.0</ele><time>2026-05-01T14:14:05Z</time></trkpt><trkpt lat="45.78494344691938" lon="11.434291746683183"><ele>373.59999999999997</ele><time>2026-05-01T14:14:07Z</time></trkpt><trkpt lat="45.78486133427403" lon="11.434372403388792"><ele>369.2</ele><time>2026-05-01T14:14:09Z</time></trkpt><trkpt lat="45.784766217925316" lon="11.434424412977721"><ele>364.8</ele><time>2026-05-01T14:14:11Z</time></trkpt><trkpt lat="45.78466582945012" lon="11.43448669983588"><ele>360.4</ele><time>2026-05-01T14:14:13Z</time></trkpt><trkpt lat="45.78455312978901" lon="11.43456276888154"><ele>356.0</ele><time>2026-05-01T14:14:15Z</time></trkpt><trkpt lat="45.784493685078914" lon="11.434600557443943"><ele>357.57142857142856</ele><time>2026-05-01T14:14:16Z</time></trkpt><trkpt lat="45.784436423197306" lon="11.434638810946788"><ele>359.1428571428571</ele><time>2026-05-01T14:14:17Z</time></trkpt><trkpt lat="45.78437714550666" lon="11.43468024671859"><ele>360.71428571428567</ele><time>2026-05-01T14:14:18Z</time></trkpt><trkpt lat="45.78431217625715" lon="11.434732816035103"><ele>362.2857142857143</ele><time>2026-05-01T14:14:19Z</time></trkpt><trkpt lat="45.784248354562166" lon="11.434779942960546"><ele>363.8571428571429</ele><time>2026-05-01T14:14:20Z</time></trkpt><trkpt lat="45.784186228912766" lon="11.434828408730898"><ele>365.4285714285714</ele><time>2026-05-01T14:14:21Z</time></trkpt><trkpt lat="45.7841170714878" lon="11.43485144362486"><ele>367.0</ele><time>2026-05-01T14:14:22Z</time></trkpt><trkpt lat="45.784055771060935" lon="11.434907227638844"><ele>363.7142857142857</ele><time>2026-05-01T14:14:22.999Z</time></trkpt><trkpt lat="45.7840008816183" lon="11.434954794083978"><ele>360.42857142857144</ele><time>2026-05-01T14:14:23.999Z</time></trkpt><trkpt lat="45.78394387393766" lon="11.435001554274326"><ele>357.14285714285717</ele><time>2026-05-01T14:14:24.999Z</time></trkpt><trkpt lat="45.78387898891759" lon="11.435051918097939"><ele>353.8571428571429</ele><time>2026-05-01T14:14:25.999Z</time></trkpt><trkpt lat="45.78381403934364" lon="11.435097928701099"><ele>350.57142857142856</ele><time>2026-05-01T14:14:26.999Z</time></trkpt><trkpt lat="45.78374229360146" lon="11.435152428049362"><ele>347.28571428571433</ele><time>2026-05-01T14:14:27.999Z</time></trkpt><trkpt lat="45.783676381217326" lon="11.4352126961254"><ele>344.0</ele><time>2026-05-01T14:14:28.999Z</time></trkpt><trkpt lat="45.78361104582731" lon="11.435277178060723"><ele>344.00000000000006</ele><time>2026-05-01T14:14:29.999Z</time></trkpt><trkpt lat="45.78354763522614" lon="11.435345673081509"><ele>344.0</ele><time>2026-05-01T14:14:30.999Z</time></trkpt><trkpt lat="45.78349020116413" lon="11.435415688905337"><ele>344.0</ele><time>2026-05-01T14:14:31.999Z</time></trkpt><trkpt lat="45.78343912739813" lon="11.435488425850945"><ele>344.0</ele><time>2026-05-01T14:14:32.999Z</time></trkpt><trkpt lat="45.78339169752105" lon="11.435556568039026"><ele>344.0</ele><time>2026-05-01T14:14:33.999Z</time></trkpt><trkpt lat="45.78334640636156" lon="11.435621637542598"><ele>344.00000000000006</ele><time>2026-05-01T14:14:34.999Z</time></trkpt><trkpt lat="45.78331065002135" lon="11.435696180467918"><ele>344.0</ele><time>2026-05-01T14:14:35.999Z</time></trkpt><trkpt lat="45.78326928624742" lon="11.43576913642693"><ele>342.28571428571433</ele><time>2026-05-01T14:14:36.999Z</time></trkpt><trkpt lat="45.78322877322991" lon="11.435846595274455"><ele>340.57142857142856</ele><time>2026-05-01T14:14:37.999Z</time></trkpt><trkpt lat="45.78319197383659" lon="11.435929284644867"><ele>338.8571428571429</ele><time>2026-05-01T14:14:38.999Z</time></trkpt><trkpt lat="45.783156286951574" lon="11.436017177302682"><ele>337.14285714285717</ele><time>2026-05-01T14:14:39.999Z</time></trkpt><trkpt lat="45.783121895212076" lon="11.436113107820173"><ele>335.42857142857144</ele><time>2026-05-01T14:14:40.999Z</time></trkpt><trkpt lat="45.7830897992398" lon="11.436206598355895"><ele>333.7142857142857</ele><time>2026-05-01T14:14:41.999Z</time></trkpt><trkpt lat="45.78305506356111" lon="11.43630084658795"><ele>332.0</ele><time>2026-05-01T14:14:43Z</time></trkpt><trkpt lat="45.78301844845795" lon="11.436397924566359"><ele>332.0</ele><time>2026-05-01T14:14:44Z</time></trkpt><trkpt lat="45.782983164288716" lon="11.4364972791783"><ele>332.0</ele><time>2026-05-01T14:14:45Z</time></trkpt><trkpt lat="45.78294710091583" lon="11.436604351447032"><ele>332.0</ele><time>2026-05-01T14:14:46Z</time></trkpt><trkpt lat="45.78291470419426" lon="11.436713385958328"><ele>332.0</ele><time>2026-05-01T14:14:47Z</time></trkpt><trkpt lat="45.782884772593874" lon="11.436816997701378"><ele>332.0</ele><time>2026-05-01T14:14:48Z</time></trkpt><trkpt lat="45.782854171289365" lon="11.43691959169634"><ele>332.0</ele><time>2026-05-01T14:14:49Z</time></trkpt><trkpt lat="45.78282391375174" lon="11.437018499515611"><ele>332.0</ele><time>2026-05-01T14:14:50Z</time></trkpt><trkpt lat="45.78279333595715" lon="11.437112665191512"><ele>332.0</ele><time>2026-05-01T14:14:51Z</time></trkpt><trkpt lat="45.78276437651751" lon="11.437199594261228"><ele>332.0</ele><time>2026-05-01T14:14:52Z</time></trkpt><trkpt lat="45.78273633156377" lon="11.437283429420956"><ele>332.0</ele><time>2026-05-01T14:14:53Z</time></trkpt><trkpt lat="45.782689736021204" lon="11.43739997474776"><ele>332.0</ele><time>2026-05-01T14:14:55Z</time></trkpt><trkpt lat="45.78261763162023" lon="11.437419407454286"><ele>332.0</ele><time>2026-05-01T14:14:57Z</time></trkpt><trkpt lat="45.78255060455763" lon="11.43736495707591"><ele>332.0</ele><time>2026-05-01T14:14:58Z</time></trkpt><trkpt lat="45.78249329114676" lon="11.437312050225094"><ele>328.20000000000005</ele><time>2026-05-01T14:14:59Z</time></trkpt><trkpt lat="45.782398739269226" lon="11.437274851778273"><ele>324.40000000000003</ele><time>2026-05-01T14:15:01Z</time></trkpt><trkpt lat="45.782325264639596" lon="11.437377793842737"><ele>320.6</ele><time>2026-05-01T14:15:03Z</time></trkpt><trkpt lat="45.782292518937524" lon="11.43753632367988"><ele>316.8</ele><time>2026-05-01T14:15:05Z</time></trkpt><trkpt lat="45.782259270244886" lon="11.437687049752165"><ele>313.0</ele><time>2026-05-01T14:15:07Z</time></trkpt><trkpt lat="45.78221965250107" lon="11.437852781219748"><ele>313.0</ele><time>2026-05-01T14:15:09Z</time></trkpt><trkpt lat="45.78219874246745" lon="11.437942484742644"><ele>313.0</ele><time>2026-05-01T14:15:10Z</time></trkpt><trkpt lat="45.782176891092035" lon="11.43803622661706"><ele>313.0</ele><time>2026-05-01T14:15:11Z</time></trkpt><trkpt lat="45.78217200988161" lon="11.438139974705267"><ele>313.0</ele><time>2026-05-01T14:15:12Z</time></trkpt><trkpt lat="45.782159805643275" lon="11.438263935192508"><ele>313.0</ele><time>2026-05-01T14:15:14Z</time></trkpt><trkpt lat="45.7821389019436" lon="11.438407200236005"><ele>313.0</ele><time>2026-05-01T14:15:20Z</time></trkpt><trkpt lat="45.78211011724447" lon="11.438488407171794"><ele>312.8</ele><time>2026-05-01T14:15:22Z</time></trkpt><trkpt lat="45.78204476357779" lon="11.43853699210049"><ele>312.6</ele><time>2026-05-01T14:15:24Z</time></trkpt><trkpt lat="45.78197092629222" lon="11.438624540150979"><ele>312.4</ele><time>2026-05-01T14:15:26Z</time></trkpt><trkpt lat="45.781870786866776" lon="11.438732491332573"><ele>312.2</ele><time>2026-05-01T14:15:28Z</time></trkpt><trkpt lat="45.781801095821734" lon="11.438819428335792"><ele>312.0</ele><time>2026-05-01T14:15:30Z</time></trkpt><trkpt lat="45.78174150838221" lon="11.438894270223697"><ele>300.0</ele><time>2026-05-01T14:15:32Z</time></trkpt><trkpt lat="45.78167448881137" lon="11.4388896447331"><ele>300.0</ele><time>2026-05-01T14:15:36Z</time></trkpt><trkpt lat="45.781570433958244" lon="11.438899081333012"><ele>300.0</ele><time>2026-05-01T14:15:42Z</time></trkpt><trkpt lat="45.7816564227781" lon="11.438853588088834"><ele>300.0</ele><time>2026-05-01T14:16:06Z</time></trkpt></trkseg></trk></gpx>